Wetterdaten: Mittwoch, 07.09.2016
Datum Zeit Temp. A. Temp. A. max Feuchte A. Luftdruck Regen Wind Richtung Richtung Sonnenschein ET UV Solar Taupunkt Windben
07.09.2016 00:00 10,5 C 10,6 C 90 % 1023,4 hPa 0,0 mm 0,0 km/h (0 Bft) SO 142 0 min 0,000 mm 0,0 UV-I 0 W/m 8,9 C 0,0 km/h (0 Bft)
07.09.2016 00:01 10,4 C 10,5 C 90 % 1023,5 hPa 0,0 mm 0,0 km/h (0 Bft) SO 142 0 min 0,000 mm 0,0 UV-I 0 W/m 8,8 C 0,0 km/h (0 Bft)
07.09.2016 00:02 10,4 C 10,4 C 90 % 1023,4 hPa 0,0 mm 0,6 km/h (0 Bft) SO 142 0 min 0,000 mm 0,0 UV-I 0 W/m 8,8 C 1,6 km/h (1 Bft)
07.09.2016 00:03 10,4 C 10,4 C 90 % 1023,5 hPa 0,0 mm 0,3 km/h (0 Bft) SO 142 0 min 0,000 mm 0,0 UV-I 0 W/m 8,8 C 1,6 km/h (1 Bft)
07.09.2016 00:04 10,4 C 10,4 C 91 % 1023,5 hPa 0,0 mm 0,0 km/h (0 Bft) SO 142 0 min 0,000 mm 0,0 UV-I 0 W/m 9,0 C 0,0 km/h (0 Bft)
07.09.2016 00:05 10,3 C 10,4 C 90 % 1023,5 hPa 0,0 mm 0,3 km/h (0 Bft) SO 142 0 min 0,000 mm 0,0 UV-I 0 W/m 8,7 C 1,6 km/h (1 Bft)
07.09.2016 00:06 10,3 C 10,3 C 91 % 1023,6 hPa 0,0 mm 2,1 km/h (1 Bft) SO 142 0 min 0,000 mm 0,0 UV-I 0 W/m 8,9 C 3,2 km/h (1 Bft)
07.09.2016 00:07 10,3 C 10,3 C 91 % 1023,6 hPa 0,0 mm 2,0 km/h (1 Bft) SO 142 0 min 0,000 mm 0,0 UV-I 0 W/m 8,9 C 3,2 km/h (1 Bft)
07.09.2016 00:08 10,3 C 10,3 C 91 % 1023,5 hPa 0,0 mm 1,9 km/h (1 Bft) SO 142 0 min 0,000 mm 0,0 UV-I 0 W/m 8,9 C 3,2 km/h (1 Bft)
07.09.2016 00:09 10,4 C 10,4 C 92 % 1023,5 hPa 0,0 mm 1,0 km/h (0 Bft) SO 142 0 min 0,000 mm 0,0 UV-I 0 W/m 9,2 C 3,2 km/h (1 Bft)
07.09.2016 00:10 10,4 C 10,4 C 92 % 1023,5 hPa 0,0 mm 0,6 km/h (0 Bft) SO 142 0 min 0,000 mm 0,0 UV-I 0 W/m 9,2 C 1,6 km/h (1 Bft)
07.09.2016 00:11 10,5 C 10,5 C 91 % 1023,5 hPa 0,0 mm 0,7 km/h (0 Bft) SO 142 0 min 0,000 mm 0,0 UV-I 0 W/m 9,1 C 1,6 km/h (1 Bft)
07.09.2016 00:12 10,6 C 10,6 C 91 % 1023,5 hPa 0,0 mm 1,3 km/h (1 Bft) SO 142 0 min 0,000 mm 0,0 UV-I 0 W/m 9,2 C 3,2 km/h (1 Bft)
07.09.2016 00:13 10,6 C 10,6 C 91 % 1023,5 hPa 0,0 mm 1,6 km/h (1 Bft) SO 142 0 min 0,000 mm 0,0 UV-I 0 W/m 9,2 C 1,6 km/h (1 Bft)
07.09.2016 00:14 10,7 C 10,7 C 91 % 1023,5 hPa 0,0 mm 1,8 km/h (1 Bft) SO 142 0 min 0,000 mm 0,0 UV-I 0 W/m 9,3 C 3,2 km/h (1 Bft)
07.09.2016 00:15 10,8 C 10,8 C 91 % 1023,5 hPa 0,0 mm 1,7 km/h (1 Bft) SO 142 0 min 0,000 mm 0,0 UV-I 0 W/m 9,4 C 3,2 km/h (1 Bft)
07.09.2016 00:16 10,8 C 10,8 C 90 % 1023,5 hPa 0,0 mm 0,7 km/h (0 Bft) SO 142 0 min 0,000 mm 0,0 UV-I 0 W/m 9,2 C 1,6 km/h (1 Bft)
07.09.2016 00:17 10,8 C 10,8 C 89 % 1023,4 hPa 0,0 mm 0,5 km/h (0 Bft) SO 142 0 min 0,000 mm 0,0 UV-I 0 W/m 9,1 C 1,6 km/h (1 Bft)
07.09.2016 00:18 10,7 C 10,8 C 89 % 1023,4 hPa 0,0 mm 0,1 km/h (0 Bft) SO 142 0 min 0,000 mm 0,0 UV-I 0 W/m 9,0 C 1,6 km/h (1 Bft)
07.09.2016 00:19 10,6 C 10,7 C 89 % 1023,4 hPa 0,0 mm 0,7 km/h (0 Bft) SO 142 0 min 0,000 mm 0,0 UV-I 0 W/m 8,9 C 1,6 km/h (1 Bft)
07.09.2016 00:20 10,6 C 10,6 C 89 % 1023,4 hPa 0,0 mm 1,2 km/h (1 Bft) SO 142 0 min 0,000 mm 0,0 UV-I 0 W/m 8,9 C 3,2 km/h (1 Bft)
07.09.2016 00:21 10,4 C 10,6 C 90 % 1023,4 hPa 0,0 mm 0,0 km/h (0 Bft) SO 142 0 min 0,000 mm 0,0 UV-I 0 W/m 8,8 C 0,0 km/h (0 Bft)
07.09.2016 00:22 10,3 C 10,4 C 90 % 1023,3 hPa 0,0 mm 0,0 km/h (0 Bft) SO 142 0 min 0,000 mm 0,0 UV-I 0 W/m 8,7 C 0,0 km/h (0 Bft)
07.09.2016 00:23 10,3 C 10,3 C 91 % 1023,3 hPa 0,0 mm 0,0 km/h (0 Bft) SO 142 0 min 0,000 mm 0,0 UV-I 0 W/m 8,9 C 0,0 km/h (0 Bft)
07.09.2016 00:24 10,3 C 10,3 C 91 % 1023,4 hPa 0,0 mm 0,0 km/h (0 Bft) SO 142 0 min 0,000 mm 0,0 UV-I 0 W/m 8,9 C 0,0 km/h (0 Bft)
07.09.2016 00:25 10,3 C 10,3 C 91 % 1023,4 hPa 0,0 mm 0,0 km/h (0 Bft) SO 142 0 min 0,000 mm 0,0 UV-I 0 W/m 8,9 C 0,0 km/h (0 Bft)
07.09.2016 00:26 10,4 C 10,4 C 91 % 1023,4 hPa 0,0 mm 0,0 km/h (0 Bft) SO 142 0 min 0,000 mm 0,0 UV-I 0 W/m 9,0 C 0,0 km/h (0 Bft)
07.09.2016 00:27 10,4 C 10,5 C 91 % 1023,4 hPa 0,0 mm 0,0 km/h (0 Bft) SO 142 0 min 0,000 mm 0,0 UV-I 0 W/m 9,0 C 0,0 km/h (0 Bft)
07.09.2016 00:28 10,5 C 10,5 C 90 % 1023,4 hPa 0,0 mm 0,0 km/h (0 Bft) SO 142 0 min 0,000 mm 0,0 UV-I 0 W/m 8,9 C 0,0 km/h (0 Bft)
07.09.2016 00:29 10,6 C 10,6 C 91 % 1023,4 hPa 0,0 mm 0,0 km/h (0 Bft) SO 142 0 min 0,000 mm 0,0 UV-I 0 W/m 9,2 C 0,0 km/h (0 Bft)
07.09.2016 00:30 10,7 C 10,7 C 91 % 1023,4 hPa 0,0 mm 0,0 km/h (0 Bft) SO 142 0 min 0,000 mm 0,0 UV-I 0 W/m 9,3 C 0,0 km/h (0 Bft)
07.09.2016 00:31 10,7 C 10,7 C 91 % 1023,4 hPa 0,0 mm 1,0 km/h (0 Bft) SO 142 0 min 0,000 mm 0,0 UV-I 0 W/m 9,3 C 1,6 km/h (1 Bft)
07.09.2016 00:32 10,8 C 10,8 C 91 % 1023,3 hPa 0,0 mm 2,1 km/h (1 Bft) SO 142 0 min 0,000 mm 0,0 UV-I 0 W/m 9,4 C 3,2 km/h (1 Bft)
07.09.2016 00:33 10,8 C 10,8 C 91 % 1023,3 hPa 0,0 mm 4,0 km/h (1 Bft) SO 142 0 min 0,000 mm 0,0 UV-I 0 W/m 9,4 C 4,8 km/h (1 Bft)
07.09.2016 00:34 10,9 C 10,9 C 91 % 1023,3 hPa 0,0 mm 3,3 km/h (1 Bft) SO 141 0 min 0,000 mm 0,0 UV-I 0 W/m 9,5 C 4,8 km/h (1 Bft)
07.09.2016 00:35 10,9 C 10,9 C 90 % 1023,3 hPa 0,0 mm 4,0 km/h (1 Bft) SO 141 0 min 0,000 mm 0,0 UV-I 0 W/m 9,3 C 4,8 km/h (1 Bft)
07.09.2016 00:36 11,0 C 11,0 C 90 % 1023,3 hPa 0,0 mm 3,0 km/h (1 Bft) SO 141 0 min 0,000 mm 0,0 UV-I 0 W/m 9,4 C 4,8 km/h (1 Bft)
07.09.2016 00:37 11,0 C 11,0 C 90 % 1023,3 hPa 0,0 mm 3,4 km/h (1 Bft) SO 141 0 min 0,000 mm 0,0 UV-I 0 W/m 9,4 C 4,8 km/h (1 Bft)
07.09.2016 00:38 11,0 C 11,1 C 90 % 1023,3 hPa 0,0 mm 2,3 km/h (1 Bft) SO 142 0 min 0,000 mm 0,0 UV-I 0 W/m 9,4 C 3,2 km/h (1 Bft)
07.09.2016 00:39 10,9 C 11,0 C 89 % 1023,3 hPa 0,0 mm 2,6 km/h (1 Bft) SO 141 0 min 0,000 mm 0,0 UV-I 0 W/m 9,2 C 3,2 km/h (1 Bft)
07.09.2016 00:40 10,9 C 10,9 C 89 % 1023,3 hPa 0,0 mm 1,9 km/h (1 Bft) SO 141 0 min 0,000 mm 0,0 UV-I 0 W/m 9,2 C 3,2 km/h (1 Bft)
07.09.2016 00:41 10,9 C 10,9 C 90 % 1023,3 hPa 0,0 mm 2,7 km/h (1 Bft) SO 141 0 min 0,000 mm 0,0 UV-I 0 W/m 9,3 C 4,8 km/h (1 Bft)
07.09.2016 00:42 10,9 C 10,9 C 90 % 1023,3 hPa 0,0 mm 2,6 km/h (1 Bft) SO 141 0 min 0,000 mm 0,0 UV-I 0 W/m 9,3 C 4,8 km/h (1 Bft)
07.09.2016 00:43 11,0 C 11,0 C 90 % 1023,3 hPa 0,0 mm 2,1 km/h (1 Bft) SO 141 0 min 0,000 mm 0,0 UV-I 0 W/m 9,4 C 3,2 km/h (1 Bft)
07.09.2016 00:44 11,0 C 11,0 C 89 % 1023,3 hPa 0,0 mm 3,2 km/h (1 Bft) S-SO 162 0 min 0,000 mm 0,0 UV-I 0 W/m 9,3 C 4,8 km/h (1 Bft)
07.09.2016 00:45 10,9 C 11,0 C 89 % 1023,3 hPa 0,0 mm 2,7 km/h (1 Bft) S-SO 162 0 min 0,000 mm 0,0 UV-I 0 W/m 9,2 C 3,2 km/h (1 Bft)
07.09.2016 00:46 10,9 C 10,9 C 89 % 1023,3 hPa 0,0 mm 2,0 km/h (1 Bft) S-SO 162 0 min 0,000 mm 0,0 UV-I 0 W/m 9,2 C 3,2 km/h (1 Bft)
07.09.2016 00:47 10,9 C 10,9 C 89 % 1023,3 hPa 0,0 mm 2,3 km/h (1 Bft) S-SO 162 0 min 0,000 mm 0,0 UV-I 0 W/m 9,2 C 3,2 km/h (1 Bft)
07.09.2016 00:48 10,9 C 10,9 C 90 % 1023,3 hPa 0,0 mm 1,9 km/h (1 Bft) S-SO 162 0 min 0,000 mm 0,0 UV-I 0 W/m 9,3 C 3,2 km/h (1 Bft)
07.09.2016 00:49 10,9 C 10,9 C 89 % 1023,3 hPa 0,0 mm 1,3 km/h (1 Bft) S-SO 162 0 min 0,000 mm 0,0 UV-I 0 W/m 9,2 C 3,2 km/h (1 Bft)
07.09.2016 00:50 10,9 C 10,9 C 89 % 1023,3 hPa 0,0 mm 2,4 km/h (1 Bft) S-SO 162 0 min 0,000 mm 0,0 UV-I 0 W/m 9,2 C 3,2 km/h (1 Bft)
07.09.2016 00:51 10,9 C 10,9 C 89 % 1023,2 hPa 0,0 mm 1,9 km/h (1 Bft) S-SO 162 0 min 0,000 mm 0,0 UV-I 0 W/m 9,2 C 3,2 km/h (1 Bft)
07.09.2016 00:52 10,9 C 10,9 C 89 % 1023,2 hPa 0,0 mm 1,5 km/h (1 Bft) S-SO 162 0 min 0,000 mm 0,0 UV-I 0 W/m 9,2 C 1,6 km/h (1 Bft)
07.09.2016 00:53 10,9 C 10,9 C 89 % 1023,2 hPa 0,0 mm 2,5 km/h (1 Bft) SO 144 0 min 0,000 mm 0,0 UV-I 0 W/m 9,2 C 3,2 km/h (1 Bft)
07.09.2016 00:54 10,9 C 11,0 C 89 % 1023,2 hPa 0,0 mm 1,6 km/h (1 Bft) SO 144 0 min 0,000 mm 0,0 UV-I 0 W/m 9,2 C 3,2 km/h (1 Bft)
07.09.2016 00:55 10,9 C 10,9 C 89 % 1023,2 hPa 0,0 mm 1,9 km/h (1 Bft) SO 144 0 min 0,000 mm 0,0 UV-I 0 W/m 9,2 C 3,2 km/h (1 Bft)
07.09.2016 00:56 10,9 C 10,9 C 89 % 1023,2 hPa 0,0 mm 2,7 km/h (1 Bft) SO 144 0 min 0,000 mm 0,0 UV-I 0 W/m 9,2 C 3,2 km/h (1 Bft)
07.09.2016 00:57 10,9 C 10,9 C 89 % 1023,2 hPa 0,0 mm 2,5 km/h (1 Bft) SO 144 0 min 0,000 mm 0,0 UV-I 0 W/m 9,2 C 3,2 km/h (1 Bft)
07.09.2016 00:58 10,9 C 10,9 C 89 % 1023,1 hPa 0,0 mm 3,2 km/h (1 Bft) SO 144 0 min 0,000 mm 0,0 UV-I 0 W/m 9,2 C 4,8 km/h (1 Bft)
07.09.2016 00:59 10,9 C 10,9 C 89 % 1023,1 hPa 0,0 mm 3,8 km/h (1 Bft) SO 146 0 min 0,000 mm 0,0 UV-I 0 W/m 9,2 C 8,0 km/h (2 Bft)
07.09.2016 01:00 10,9 C 10,9 C 89 % 1023,1 hPa 0,0 mm 3,3 km/h (1 Bft) S-SO 165 0 min 0,000 mm 0,0 UV-I 0 W/m 9,2 C 6,4 km/h (2 Bft)
07.09.2016 01:01 10,9 C 10,9 C 89 % 1023,1 hPa 0,0 mm 5,0 km/h (1 Bft) S-SO 152 0 min 0,000 mm 0,0 UV-I 0 W/m 9,2 C 8,0 km/h (2 Bft)
07.09.2016 01:02 10,9 C 10,9 C 90 % 1023,1 hPa 0,0 mm 4,1 km/h (1 Bft) S-SO 151 0 min 0,000 mm 0,0 UV-I 0 W/m 9,3 C 6,4 km/h (2 Bft)
07.09.2016 01:03 10,9 C 10,9 C 90 % 1023,2 hPa 0,0 mm 3,6 km/h (1 Bft) S 175 0 min 0,000 mm 0,0 UV-I 0 W/m 9,3 C 6,4 km/h (2 Bft)
07.09.2016 01:04 10,9 C 10,9 C 89 % 1023,1 hPa 0,0 mm 2,2 km/h (1 Bft) S 173 0 min 0,000 mm 0,0 UV-I 0 W/m 9,2 C 3,2 km/h (1 Bft)
07.09.2016 01:05 10,9 C 10,9 C 90 % 1023,2 hPa 0,0 mm 1,7 km/h (1 Bft) S 173 0 min 0,000 mm 0,0 UV-I 0 W/m 9,3 C 3,2 km/h (1 Bft)
07.09.2016 01:06 10,9 C 10,9 C 89 % 1023,1 hPa 0,0 mm 1,5 km/h (1 Bft) S 173 0 min 0,000 mm 0,0 UV-I 0 W/m 9,2 C 3,2 km/h (1 Bft)
07.09.2016 01:07 10,8 C 10,9 C 89 % 1023,1 hPa 0,0 mm 2,9 km/h (1 Bft) S 173 0 min 0,000 mm 0,0 UV-I 0 W/m 9,1 C 3,2 km/h (1 Bft)
07.09.2016 01:08 10,7 C 10,8 C 89 % 1023,1 hPa 0,0 mm 3,2 km/h (1 Bft) S 173 0 min 0,000 mm 0,0 UV-I 0 W/m 9,0 C 4,8 km/h (1 Bft)
07.09.2016 01:09 10,7 C 10,7 C 89 % 1023,1 hPa 0,0 mm 3,5 km/h (1 Bft) S 173 0 min 0,000 mm 0,0 UV-I 0 W/m 9,0 C 4,8 km/h (1 Bft)
07.09.2016 01:10 10,7 C 10,7 C 90 % 1023,0 hPa 0,0 mm 3,0 km/h (1 Bft) S 173 0 min 0,000 mm 0,0 UV-I 0 W/m 9,1 C 4,8 km/h (1 Bft)
07.09.2016 01:11 10,7 C 10,7 C 90 % 1023,1 hPa 0,0 mm 3,9 km/h (1 Bft) S 173 0 min 0,000 mm 0,0 UV-I 0 W/m 9,1 C 4,8 km/h (1 Bft)
07.09.2016 01:12 10,7 C 10,7 C 90 % 1023,1 hPa 0,0 mm 3,7 km/h (1 Bft) SO 144 0 min 0,000 mm 0,0 UV-I 0 W/m 9,1 C 6,4 km/h (2 Bft)
07.09.2016 01:13 10,7 C 10,7 C 90 % 1023,1 hPa 0,0 mm 1,4 km/h (1 Bft) SO 144 0 min 0,000 mm 0,0 UV-I 0 W/m 9,1 C 3,2 km/h (1 Bft)
07.09.2016 01:14 10,6 C 10,7 C 90 % 1023,1 hPa 0,0 mm 1,9 km/h (1 Bft) SO 144 0 min 0,000 mm 0,0 UV-I 0 W/m 9,0 C 3,2 km/h (1 Bft)
07.09.2016 01:15 10,6 C 10,7 C 89 % 1023,1 hPa 0,0 mm 2,5 km/h (1 Bft) SO 137 0 min 0,000 mm 0,0 UV-I 0 W/m 8,9 C 4,8 km/h (1 Bft)
07.09.2016 01:16 10,7 C 10,7 C 91 % 1023,0 hPa 0,0 mm 1,8 km/h (1 Bft) SO 137 0 min 0,000 mm 0,0 UV-I 0 W/m 9,3 C 3,2 km/h (1 Bft)
07.09.2016 01:17 10,7 C 10,7 C 90 % 1023,1 hPa 0,0 mm 2,1 km/h (1 Bft) SO 137 0 min 0,000 mm 0,0 UV-I 0 W/m 9,1 C 3,2 km/h (1 Bft)
07.09.2016 01:18 10,7 C 10,7 C 90 % 1023,1 hPa 0,0 mm 2,7 km/h (1 Bft) SO 146 0 min 0,000 mm 0,0 UV-I 0 W/m 9,1 C 4,8 km/h (1 Bft)
07.09.2016 01:19 10,7 C 10,7 C 90 % 1023,0 hPa 0,0 mm 3,0 km/h (1 Bft) S-SO 164 0 min 0,000 mm 0,0 UV-I 0 W/m 9,1 C 4,8 km/h (1 Bft)
07.09.2016 01:20 10,8 C 10,8 C 90 % 1023,0 hPa 0,0 mm 2,8 km/h (1 Bft) S-SO 164 0 min 0,000 mm 0,0 UV-I 0 W/m 9,2 C 3,2 km/h (1 Bft)
07.09.2016 01:21 10,7 C 10,8 C 90 % 1023,0 hPa 0,0 mm 4,4 km/h (1 Bft) S-SO 168 0 min 0,000 mm 0,0 UV-I 0 W/m 9,1 C 6,4 km/h (2 Bft)
07.09.2016 01:22 10,7 C 10,7 C 89 % 1023,0 hPa 0,0 mm 4,2 km/h (1 Bft) S-SO 167 0 min 0,000 mm 0,0 UV-I 0 W/m 9,0 C 6,4 km/h (2 Bft)
07.09.2016 01:23 10,6 C 10,7 C 90 % 1023,0 hPa 0,0 mm 4,0 km/h (1 Bft) S-SO 167 0 min 0,000 mm 0,0 UV-I 0 W/m 9,0 C 6,4 km/h (2 Bft)
07.09.2016 01:24 10,5 C 10,6 C 90 % 1023,0 hPa 0,0 mm 1,4 km/h (1 Bft) S-SO 167 0 min 0,000 mm 0,0 UV-I 0 W/m 8,9 C 4,8 km/h (1 Bft)
07.09.2016 01:25 10,4 C 10,5 C 90 % 1022,9 hPa 0,0 mm 1,9 km/h (1 Bft) S-SO 167 0 min 0,000 mm 0,0 UV-I 0 W/m 8,8 C 4,8 km/h (1 Bft)
07.09.2016 01:26 10,3 C 10,4 C 90 % 1022,9 hPa 0,0 mm 1,5 km/h (1 Bft) S-SO 167 0 min 0,000 mm 0,0 UV-I 0 W/m 8,7 C 1,6 km/h (1 Bft)
07.09.2016 01:27 10,3 C 10,3 C 90 % 1022,8 hPa 0,0 mm 0,5 km/h (0 Bft) S-SO 167 0 min 0,000 mm 0,0 UV-I 0 W/m 8,7 C 1,6 km/h (1 Bft)
07.09.2016 01:28 10,2 C 10,3 C 91 % 1022,9 hPa 0,0 mm 1,7 km/h (1 Bft) S-SO 167 0 min 0,000 mm 0,0 UV-I 0 W/m 8,8 C 4,8 km/h (1 Bft)
07.09.2016 01:29 10,1 C 10,2 C 90 % 1022,8 hPa 0,0 mm 0,9 km/h (0 Bft) S-SO 167 0 min 0,000 mm 0,0 UV-I 0 W/m 8,5 C 1,6 km/h (1 Bft)
07.09.2016 01:30 10,1 C 10,1 C 91 % 1022,8 hPa 0,0 mm 0,6 km/h (0 Bft) S-SO 167 0 min 0,000 mm 0,0 UV-I 0 W/m 8,7 C 1,6 km/h (1 Bft)
07.09.2016 01:31 10,0 C 10,1 C 90 % 1022,8 hPa 0,0 mm 0,4 km/h (0 Bft) S-SO 167 0 min 0,000 mm 0,0 UV-I 0 W/m 8,4 C 1,6 km/h (1 Bft)
07.09.2016 01:32 9,9 C 10,0 C 91 % 1022,8 hPa 0,0 mm 0,0 km/h (0 Bft) S-SO 167 0 min 0,000 mm 0,0 UV-I 0 W/m 8,5 C 0,0 km/h (0 Bft)
07.09.2016 01:33 9,9 C 9,9 C 92 % 1022,8 hPa 0,0 mm 0,0 km/h (0 Bft) S-SO 167 0 min 0,000 mm 0,0 UV-I 0 W/m 8,7 C 0,0 km/h (0 Bft)
07.09.2016 01:34 10,0 C 10,0 C 92 % 1022,8 hPa 0,0 mm 0,0 km/h (0 Bft) S-SO 167 0 min 0,000 mm 0,0 UV-I 0 W/m 8,8 C 0,0 km/h (0 Bft)
07.09.2016 01:35 10,1 C 10,1 C 92 % 1022,8 hPa 0,0 mm 0,0 km/h (0 Bft) S-SO 167 0 min 0,000 mm 0,0 UV-I 0 W/m 8,9 C 0,0 km/h (0 Bft)
07.09.2016 01:36 10,0 C 10,1 C 92 % 1022,8 hPa 0,0 mm 0,0 km/h (0 Bft) S-SO 167 0 min 0,000 mm 0,0 UV-I 0 W/m 8,8 C 0,0 km/h (0 Bft)
07.09.2016 01:37 9,9 C 10,0 C 91 % 1022,8 hPa 0,0 mm 0,0 km/h (0 Bft) S-SO 167 0 min 0,000 mm 0,0 UV-I 0 W/m 8,5 C 0,0 km/h (0 Bft)
07.09.2016 01:38 9,9 C 9,9 C 91 % 1022,7 hPa 0,0 mm 0,0 km/h (0 Bft) S-SO 167 0 min 0,000 mm 0,0 UV-I 0 W/m 8,5 C 0,0 km/h (0 Bft)
07.09.2016 01:39 9,8 C 9,9 C 92 % 1022,6 hPa 0,0 mm 0,0 km/h (0 Bft) S-SO 167 0 min 0,000 mm 0,0 UV-I 0 W/m 8,6 C 0,0 km/h (0 Bft)
07.09.2016 01:40 9,8 C 9,8 C 92 % 1022,6 hPa 0,0 mm 0,0 km/h (0 Bft) S-SO 167 0 min 0,000 mm 0,0 UV-I 0 W/m 8,6 C 0,0 km/h (0 Bft)
07.09.2016 01:41 9,8 C 9,8 C 92 % 1022,7 hPa 0,0 mm 0,0 km/h (0 Bft) S-SO 167 0 min 0,000 mm 0,0 UV-I 0 W/m 8,6 C 0,0 km/h (0 Bft)
07.09.2016 01:42 9,7 C 9,8 C 92 % 1022,7 hPa 0,0 mm 0,0 km/h (0 Bft) S-SO 167 0 min 0,000 mm 0,0 UV-I 0 W/m 8,5 C 0,0 km/h (0 Bft)
07.09.2016 01:43 9,6 C 9,7 C 92 % 1022,7 hPa 0,0 mm 0,0 km/h (0 Bft) S-SO 167 0 min 0,000 mm 0,0 UV-I 0 W/m 8,4 C 0,0 km/h (0 Bft)
07.09.2016 01:44 9,5 C 9,6 C 92 % 1022,7 hPa 0,0 mm 0,0 km/h (0 Bft) S-SO 167 0 min 0,000 mm 0,0 UV-I 0 W/m 8,3 C 0,0 km/h (0 Bft)
07.09.2016 01:45 9,4 C 9,5 C 92 % 1022,7 hPa 0,0 mm 0,0 km/h (0 Bft) S-SO 167 0 min 0,000 mm 0,0 UV-I 0 W/m 8,2 C 0,0 km/h (0 Bft)
07.09.2016 01:46 9,3 C 9,4 C 92 % 1022,7 hPa 0,0 mm 0,0 km/h (0 Bft) S-SO 167 0 min 0,000 mm 0,0 UV-I 0 W/m 8,1 C 0,0 km/h (0 Bft)
07.09.2016 01:47 9,3 C 9,3 C 92 % 1022,7 hPa 0,0 mm 0,0 km/h (0 Bft) S-SO 167 0 min 0,000 mm 0,0 UV-I 0 W/m 8,1 C 0,0 km/h (0 Bft)
07.09.2016 01:48 9,3 C 9,3 C 93 % 1022,7 hPa 0,0 mm 0,0 km/h (0 Bft) S-SO 167 0 min 0,000 mm 0,0 UV-I 0 W/m 8,2 C 0,0 km/h (0 Bft)
07.09.2016 01:49 9,2 C 9,3 C 93 % 1022,7 hPa 0,0 mm 0,0 km/h (0 Bft) S-SO 167 0 min 0,000 mm 0,0 UV-I 0 W/m 8,1 C 0,0 km/h (0 Bft)
07.09.2016 01:50 9,3 C 9,3 C 93 % 1022,7 hPa 0,0 mm 0,0 km/h (0 Bft) S-SO 167 0 min 0,000 mm 0,0 UV-I 0 W/m 8,2 C 0,0 km/h (0 Bft)
07.09.2016 01:51 9,4 C 9,4 C 94 % 1022,7 hPa 0,0 mm 0,0 km/h (0 Bft) S-SO 167 0 min 0,000 mm 0,0 UV-I 0 W/m 8,5 C 0,0 km/h (0 Bft)
07.09.2016 01:52 9,5 C 9,5 C 94 % 1022,7 hPa 0,0 mm 0,0 km/h (0 Bft) S-SO 167 0 min 0,000 mm 0,0 UV-I 0 W/m 8,6 C 0,0 km/h (0 Bft)
07.09.2016 01:53 9,6 C 9,6 C 94 % 1022,7 hPa 0,0 mm 0,0 km/h (0 Bft) S-SO 167 0 min 0,000 mm 0,0 UV-I 0 W/m 8,7 C 0,0 km/h (0 Bft)
07.09.2016 01:54 9,7 C 9,7 C 94 % 1022,7 hPa 0,0 mm 0,0 km/h (0 Bft) S-SO 167 0 min 0,000 mm 0,0 UV-I 0 W/m 8,8 C 0,0 km/h (0 Bft)
07.09.2016 01:55 9,7 C 9,7 C 94 % 1022,7 hPa 0,0 mm 0,0 km/h (0 Bft) S-SO 167 0 min 0,000 mm 0,0 UV-I 0 W/m 8,8 C 0,0 km/h (0 Bft)
07.09.2016 01:56 9,7 C 9,7 C 94 % 1022,7 hPa 0,0 mm 0,0 km/h (0 Bft) S-SO 167 0 min 0,000 mm 0,0 UV-I 0 W/m 8,8 C 0,0 km/h (0 Bft)
07.09.2016 01:57 9,6 C 9,7 C 92 % 1022,6 hPa 0,0 mm 0,0 km/h (0 Bft) S-SO 167 0 min 0,000 mm 0,0 UV-I 0 W/m 8,4 C 0,0 km/h (0 Bft)
07.09.2016 01:58 9,4 C 9,6 C 92 % 1022,6 hPa 0,0 mm 0,0 km/h (0 Bft) S-SO 167 0 min 0,000 mm 0,0 UV-I 0 W/m 8,2 C 0,0 km/h (0 Bft)
07.09.2016 01:59 9,4 C 9,4 C 92 % 1022,6 hPa 0,0 mm 0,0 km/h (0 Bft) S-SO 167 0 min 0,000 mm 0,0 UV-I 0 W/m 8,2 C 0,0 km/h (0 Bft)
07.09.2016 02:00 9,3 C 9,4 C 92 % 1022,6 hPa 0,0 mm 0,0 km/h (0 Bft) S-SO 167 0 min 0,000 mm 0,0 UV-I 0 W/m 8,1 C 0,0 km/h (0 Bft)
07.09.2016 02:01 9,3 C 9,3 C 92 % 1022,6 hPa 0,0 mm 0,0 km/h (0 Bft) S-SO 167 0 min 0,000 mm 0,0 UV-I 0 W/m 8,1 C 0,0 km/h (0 Bft)
07.09.2016 02:02 9,3 C 9,3 C 93 % 1022,5 hPa 0,0 mm 0,0 km/h (0 Bft) S-SO 167 0 min 0,000 mm 0,0 UV-I 0 W/m 8,2 C 0,0 km/h (0 Bft)
07.09.2016 02:03 9,3 C 9,3 C 93 % 1022,5 hPa 0,0 mm 0,0 km/h (0 Bft) S-SO 167 0 min 0,000 mm 0,0 UV-I 0 W/m 8,2 C 0,0 km/h (0 Bft)
07.09.2016 02:04 9,3 C 9,3 C 93 % 1022,5 hPa 0,0 mm 0,0 km/h (0 Bft) S-SO 167 0 min 0,000 mm 0,0 UV-I 0 W/m 8,2 C 0,0 km/h (0 Bft)
07.09.2016 02:05 9,3 C 9,3 C 93 % 1022,5 hPa 0,0 mm 0,0 km/h (0 Bft) S-SO 167 0 min 0,000 mm 0,0 UV-I 0 W/m 8,2 C 0,0 km/h (0 Bft)
07.09.2016 02:06 9,3 C 9,3 C 94 % 1022,5 hPa 0,0 mm 0,0 km/h (0 Bft) S-SO 167 0 min 0,000 mm 0,0 UV-I 0 W/m 8,4 C 0,0 km/h (0 Bft)
07.09.2016 02:07 9,4 C 9,4 C 94 % 1022,5 hPa 0,0 mm 0,0 km/h (0 Bft) S-SO 167 0 min 0,000 mm 0,0 UV-I 0 W/m 8,5 C 0,0 km/h (0 Bft)
07.09.2016 02:08 9,5 C 9,5 C 94 % 1022,5 hPa 0,0 mm 0,0 km/h (0 Bft) S-SO 167 0 min 0,000 mm 0,0 UV-I 0 W/m 8,6 C 0,0 km/h (0 Bft)
07.09.2016 02:09 9,6 C 9,6 C 94 % 1022,5 hPa 0,0 mm 0,0 km/h (0 Bft) S-SO 167 0 min 0,000 mm 0,0 UV-I 0 W/m 8,7 C 0,0 km/h (0 Bft)
07.09.2016 02:10 9,4 C 9,6 C 93 % 1022,4 hPa 0,0 mm 0,0 km/h (0 Bft) S-SO 167 0 min 0,000 mm 0,0 UV-I 0 W/m 8,3 C 0,0 km/h (0 Bft)
07.09.2016 02:11 9,4 C 9,4 C 93 % 1022,4 hPa 0,0 mm 0,0 km/h (0 Bft) S-SO 167 0 min 0,000 mm 0,0 UV-I 0 W/m 8,3 C 0,0 km/h (0 Bft)
07.09.2016 02:12 9,3 C 9,4 C 93 % 1022,4 hPa 0,0 mm 0,0 km/h (0 Bft) S-SO 167 0 min 0,000 mm 0,0 UV-I 0 W/m 8,2 C 0,0 km/h (0 Bft)
07.09.2016 02:13 9,3 C 9,3 C 93 % 1022,4 hPa 0,0 mm 0,0 km/h (0 Bft) S-SO 167 0 min 0,000 mm 0,0 UV-I 0 W/m 8,2 C 0,0 km/h (0 Bft)
07.09.2016 02:14 9,3 C 9,3 C 93 % 1022,4 hPa 0,0 mm 0,0 km/h (0 Bft) S-SO 167 0 min 0,000 mm 0,0 UV-I 0 W/m 8,2 C 0,0 km/h (0 Bft)
07.09.2016 02:15 9,2 C 9,3 C 93 % 1022,4 hPa 0,0 mm 0,0 km/h (0 Bft) S-SO 167 0 min 0,000 mm 0,0 UV-I 0 W/m 8,1 C 0,0 km/h (0 Bft)
07.09.2016 02:16 9,3 C 9,3 C 93 % 1022,4 hPa 0,0 mm 0,0 km/h (0 Bft) S-SO 167 0 min 0,000 mm 0,0 UV-I 0 W/m 8,2 C 0,0 km/h (0 Bft)
07.09.2016 02:17 9,3 C 9,3 C 93 % 1022,4 hPa 0,0 mm 0,0 km/h (0 Bft) S-SO 167 0 min 0,000 mm 0,0 UV-I 0 W/m 8,2 C 0,0 km/h (0 Bft)
07.09.2016 02:18 9,3 C 9,3 C 93 % 1022,3 hPa 0,0 mm 0,0 km/h (0 Bft) S-SO 167 0 min 0,000 mm 0,0 UV-I 0 W/m 8,2 C 0,0 km/h (0 Bft)
07.09.2016 02:19 9,2 C 9,3 C 93 % 1022,3 hPa 0,0 mm 0,0 km/h (0 Bft) S-SO 167 0 min 0,000 mm 0,0 UV-I 0 W/m 8,1 C 0,0 km/h (0 Bft)
07.09.2016 02:20 9,1 C 9,2 C 92 % 1022,3 hPa 0,0 mm 0,0 km/h (0 Bft) S-SO 167 0 min 0,000 mm 0,0 UV-I 0 W/m 7,9 C 0,0 km/h (0 Bft)
07.09.2016 02:21 8,9 C 9,1 C 92 % 1022,3 hPa 0,0 mm 0,0 km/h (0 Bft) S-SO 167 0 min 0,000 mm 0,0 UV-I 0 W/m 7,7 C 0,0 km/h (0 Bft)
07.09.2016 02:22 8,9 C 8,9 C 93 % 1022,3 hPa 0,0 mm 0,0 km/h (0 Bft) S-SO 167 0 min 0,000 mm 0,0 UV-I 0 W/m 7,8 C 0,0 km/h (0 Bft)
07.09.2016 02:23 8,8 C 8,9 C 93 % 1022,2 hPa 0,0 mm 0,0 km/h (0 Bft) S-SO 167 0 min 0,000 mm 0,0 UV-I 0 W/m 7,7 C 0,0 km/h (0 Bft)
07.09.2016 02:24 8,8 C 8,8 C 92 % 1022,2 hPa 0,0 mm 0,0 km/h (0 Bft) S-SO 167 0 min 0,000 mm 0,0 UV-I 0 W/m 7,6 C 0,0 km/h (0 Bft)
07.09.2016 02:25 8,7 C 8,8 C 93 % 1022,2 hPa 0,0 mm 0,1 km/h (0 Bft) S-SO 167 0 min 0,000 mm 0,0 UV-I 0 W/m 7,6 C 1,6 km/h (1 Bft)
07.09.2016 02:26 8,8 C 8,8 C 94 % 1022,2 hPa 0,0 mm 0,8 km/h (0 Bft) S-SO 167 0 min 0,000 mm 0,0 UV-I 0 W/m 7,9 C 1,6 km/h (1 Bft)
07.09.2016 02:27 8,8 C 8,8 C 94 % 1022,2 hPa 0,0 mm 0,1 km/h (0 Bft) S-SO 167 0 min 0,000 mm 0,0 UV-I 0 W/m 7,9 C 1,6 km/h (1 Bft)
07.09.2016 02:28 8,9 C 8,9 C 94 % 1022,1 hPa 0,0 mm 0,0 km/h (0 Bft) S-SO 167 0 min 0,000 mm 0,0 UV-I 0 W/m 8,0 C 0,0 km/h (0 Bft)
07.09.2016 02:29 8,9 C 8,9 C 94 % 1022,1 hPa 0,0 mm 0,0 km/h (0 Bft) S-SO 167 0 min 0,000 mm 0,0 UV-I 0 W/m 8,0 C 0,0 km/h (0 Bft)
07.09.2016 02:30 8,9 C 8,9 C 94 % 1022,1 hPa 0,0 mm 0,0 km/h (0 Bft) S-SO 167 0 min 0,000 mm 0,0 UV-I 0 W/m 8,0 C 0,0 km/h (0 Bft)
07.09.2016 02:31 8,9 C 8,9 C 93 % 1022,1 hPa 0,0 mm 0,0 km/h (0 Bft) S-SO 167 0 min 0,000 mm 0,0 UV-I 0 W/m 7,8 C 0,0 km/h (0 Bft)
07.09.2016 02:32 8,9 C 9,0 C 94 % 1022,1 hPa 0,0 mm 0,0 km/h (0 Bft) S-SO 167 0 min 0,000 mm 0,0 UV-I 0 W/m 8,0 C 0,0 km/h (0 Bft)
07.09.2016 02:33 9,0 C 9,0 C 94 % 1022,1 hPa 0,0 mm 0,3 km/h (0 Bft) S-SO 167 0 min 0,000 mm 0,0 UV-I 0 W/m 8,1 C 1,6 km/h (1 Bft)
07.09.2016 02:34 9,1 C 9,1 C 94 % 1022,1 hPa 0,0 mm 1,0 km/h (0 Bft) S-SO 167 0 min 0,000 mm 0,0 UV-I 0 W/m 8,2 C 1,6 km/h (1 Bft)
07.09.2016 02:35 9,1 C 9,1 C 94 % 1022,1 hPa 0,0 mm 0,2 km/h (0 Bft) S-SO 167 0 min 0,000 mm 0,0 UV-I 0 W/m 8,2 C 1,6 km/h (1 Bft)
07.09.2016 02:36 9,1 C 9,1 C 94 % 1022,1 hPa 0,0 mm 0,2 km/h (0 Bft) S-SO 167 0 min 0,000 mm 0,0 UV-I 0 W/m 8,2 C 1,6 km/h (1 Bft)
07.09.2016 02:37 9,1 C 9,1 C 93 % 1022,1 hPa 0,0 mm 0,0 km/h (0 Bft) S-SO 167 0 min 0,000 mm 0,0 UV-I 0 W/m 8,0 C 0,0 km/h (0 Bft)
07.09.2016 02:38 9,1 C 9,1 C 93 % 1022,1 hPa 0,0 mm 0,0 km/h (0 Bft) S-SO 167 0 min 0,000 mm 0,0 UV-I 0 W/m 8,0 C 0,0 km/h (0 Bft)
07.09.2016 02:39 9,0 C 9,1 C 93 % 1022,1 hPa 0,0 mm 0,0 km/h (0 Bft) S-SO 167 0 min 0,000 mm 0,0 UV-I 0 W/m 7,9 C 0,0 km/h (0 Bft)
07.09.2016 02:40 8,9 C 9,0 C 93 % 1022,1 hPa 0,0 mm 0,0 km/h (0 Bft) S-SO 167 0 min 0,000 mm 0,0 UV-I 0 W/m 7,8 C 0,0 km/h (0 Bft)
07.09.2016 02:41 8,9 C 8,9 C 93 % 1022,1 hPa 0,0 mm 0,1 km/h (0 Bft) S-SO 167 0 min 0,000 mm 0,0 UV-I 0 W/m 7,8 C 1,6 km/h (1 Bft)
07.09.2016 02:42 8,9 C 8,9 C 93 % 1022,1 hPa 0,0 mm 0,0 km/h (0 Bft) S-SO 167 0 min 0,000 mm 0,0 UV-I 0 W/m 7,8 C 0,0 km/h (0 Bft)
07.09.2016 02:43 8,9 C 8,9 C 94 % 1022,1 hPa 0,0 mm 0,0 km/h (0 Bft) S-SO 167 0 min 0,000 mm 0,0 UV-I 0 W/m 8,0 C 0,0 km/h (0 Bft)
07.09.2016 02:44 9,0 C 9,0 C 93 % 1022,1 hPa 0,0 mm 0,0 km/h (0 Bft) S-SO 167 0 min 0,000 mm 0,0 UV-I 0 W/m 7,9 C 0,0 km/h (0 Bft)
07.09.2016 02:45 8,9 C 9,0 C 93 % 1022,0 hPa 0,0 mm 0,0 km/h (0 Bft) S-SO 167 0 min 0,000 mm 0,0 UV-I 0 W/m 7,8 C 0,0 km/h (0 Bft)
07.09.2016 02:46 8,9 C 9,0 C 93 % 1022,0 hPa 0,0 mm 0,0 km/h (0 Bft) S-SO 167 0 min 0,000 mm 0,0 UV-I 0 W/m 7,8 C 0,0 km/h (0 Bft)
07.09.2016 02:47 8,8 C 8,9 C 93 % 1022,0 hPa 0,0 mm 0,0 km/h (0 Bft) S-SO 167 0 min 0,000 mm 0,0 UV-I 0 W/m 7,7 C 0,0 km/h (0 Bft)
07.09.2016 02:48 8,7 C 8,8 C 92 % 1022,0 hPa 0,0 mm 0,0 km/h (0 Bft) S-SO 167 0 min 0,000 mm 0,0 UV-I 0 W/m 7,5 C 0,0 km/h (0 Bft)
07.09.2016 02:49 8,6 C 8,7 C 92 % 1022,0 hPa 0,0 mm 0,0 km/h (0 Bft) S-SO 167 0 min 0,000 mm 0,0 UV-I 0 W/m 7,4 C 0,0 km/h (0 Bft)
07.09.2016 02:50 8,5 C 8,6 C 93 % 1022,0 hPa 0,0 mm 0,0 km/h (0 Bft) S-SO 167 0 min 0,000 mm 0,0 UV-I 0 W/m 7,4 C 0,0 km/h (0 Bft)
07.09.2016 02:51 8,4 C 8,5 C 93 % 1022,0 hPa 0,0 mm 0,0 km/h (0 Bft) S-SO 167 0 min 0,000 mm 0,0 UV-I 0 W/m 7,3 C 0,0 km/h (0 Bft)
07.09.2016 02:52 8,4 C 8,4 C 93 % 1022,0 hPa 0,0 mm 0,0 km/h (0 Bft) S-SO 167 0 min 0,000 mm 0,0 UV-I 0 W/m 7,3 C 0,0 km/h (0 Bft)
07.09.2016 02:53 8,3 C 8,4 C 93 % 1022,0 hPa 0,0 mm 0,0 km/h (0 Bft) S-SO 167 0 min 0,000 mm 0,0 UV-I 0 W/m 7,2 C 0,0 km/h (0 Bft)
07.09.2016 02:54 8,3 C 8,3 C 93 % 1022,0 hPa 0,0 mm 0,0 km/h (0 Bft) S-SO 167 0 min 0,000 mm 0,0 UV-I 0 W/m 7,2 C 0,0 km/h (0 Bft)
07.09.2016 02:55 8,3 C 8,3 C 94 % 1022,1 hPa 0,0 mm 0,5 km/h (0 Bft) S-SO 167 0 min 0,000 mm 0,0 UV-I 0 W/m 7,4 C 1,6 km/h (1 Bft)
07.09.2016 02:56 8,3 C 8,3 C 93 % 1022,1 hPa 0,0 mm 0,9 km/h (0 Bft) S-SO 167 0 min 0,000 mm 0,0 UV-I 0 W/m 7,2 C 1,6 km/h (1 Bft)
07.09.2016 02:57 8,3 C 8,3 C 94 % 1022,0 hPa 0,0 mm 1,9 km/h (1 Bft) S-SO 167 0 min 0,000 mm 0,0 UV-I 0 W/m 7,4 C 4,8 km/h (1 Bft)
07.09.2016 02:58 8,3 C 8,3 C 94 % 1022,0 hPa 0,0 mm 0,6 km/h (0 Bft) S-SO 167 0 min 0,000 mm 0,0 UV-I 0 W/m 7,4 C 1,6 km/h (1 Bft)
07.09.2016 02:59 8,3 C 8,3 C 94 % 1022,0 hPa 0,0 mm 0,0 km/h (0 Bft) S-SO 167 0 min 0,000 mm 0,0 UV-I 0 W/m 7,4 C 0,0 km/h (0 Bft)
07.09.2016 03:00 8,2 C 8,3 C 94 % 1022,0 hPa 0,0 mm 0,0 km/h (0 Bft) S-SO 167 0 min 0,000 mm 0,0 UV-I 0 W/m 7,3 C 0,0 km/h (0 Bft)
07.09.2016 03:01 8,2 C 8,2 C 94 % 1022,0 hPa 0,0 mm 0,0 km/h (0 Bft) S-SO 167 0 min 0,000 mm 0,0 UV-I 0 W/m 7,3 C 0,0 km/h (0 Bft)
07.09.2016 03:02 8,2 C 8,2 C 94 % 1022,0 hPa 0,0 mm 1,2 km/h (1 Bft) S-SO 167 0 min 0,000 mm 0,0 UV-I 0 W/m 7,3 C 1,6 km/h (1 Bft)
07.09.2016 03:03 8,3 C 8,3 C 94 % 1022,0 hPa 0,0 mm 0,2 km/h (0 Bft) S-SO 167 0 min 0,000 mm 0,0 UV-I 0 W/m 7,4 C 1,6 km/h (1 Bft)
07.09.2016 03:04 8,3 C 8,3 C 95 % 1021,9 hPa 0,0 mm 0,0 km/h (0 Bft) S-SO 167 0 min 0,000 mm 0,0 UV-I 0 W/m 7,5 C 0,0 km/h (0 Bft)
07.09.2016 03:05 8,4 C 8,4 C 95 % 1021,9 hPa 0,0 mm 0,0 km/h (0 Bft) S-SO 167 0 min 0,000 mm 0,0 UV-I 0 W/m 7,6 C 0,0 km/h (0 Bft)
07.09.2016 03:06 8,4 C 8,5 C 95 % 1021,9 hPa 0,0 mm 0,5 km/h (0 Bft) S-SO 167 0 min 0,000 mm 0,0 UV-I 0 W/m 7,6 C 1,6 km/h (1 Bft)
07.09.2016 03:07 8,4 C 8,5 C 95 % 1021,9 hPa 0,0 mm 1,0 km/h (0 Bft) S-SO 167 0 min 0,000 mm 0,0 UV-I 0 W/m 7,6 C 1,6 km/h (1 Bft)
07.09.2016 03:08 8,4 C 8,4 C 94 % 1021,9 hPa 0,0 mm 2,1 km/h (1 Bft) S-SO 167 0 min 0,000 mm 0,0 UV-I 0 W/m 7,5 C 4,8 km/h (1 Bft)
07.09.2016 03:09 8,4 C 8,4 C 95 % 1021,8 hPa 0,0 mm 1,5 km/h (1 Bft) S-SO 167 0 min 0,000 mm 0,0 UV-I 0 W/m 7,6 C 4,8 km/h (1 Bft)
07.09.2016 03:10 8,4 C 8,4 C 95 % 1021,8 hPa 0,0 mm 1,1 km/h (1 Bft) S-SO 167 0 min 0,000 mm 0,0 UV-I 0 W/m 7,6 C 1,6 km/h (1 Bft)
07.09.2016 03:11 8,4 C 8,4 C 95 % 1021,8 hPa 0,0 mm 0,3 km/h (0 Bft) S-SO 167 0 min 0,000 mm 0,0 UV-I 0 W/m 7,6 C 1,6 km/h (1 Bft)
07.09.2016 03:12 8,4 C 8,4 C 95 % 1021,8 hPa 0,0 mm 0,0 km/h (0 Bft) S-SO 167 0 min 0,000 mm 0,0 UV-I 0 W/m 7,6 C 0,0 km/h (0 Bft)
07.09.2016 03:13 8,4 C 8,4 C 94 % 1021,8 hPa 0,0 mm 0,0 km/h (0 Bft) S-SO 167 0 min 0,000 mm 0,0 UV-I 0 W/m 7,5 C 0,0 km/h (0 Bft)
07.09.2016 03:14 8,4 C 8,4 C 95 % 1021,8 hPa 0,0 mm 0,0 km/h (0 Bft) S-SO 167 0 min 0,000 mm 0,0 UV-I 0 W/m 7,6 C 0,0 km/h (0 Bft)
07.09.2016 03:15 8,4 C 8,4 C 95 % 1021,8 hPa 0,0 mm 0,3 km/h (0 Bft) S-SO 167 0 min 0,000 mm 0,0 UV-I 0 W/m 7,6 C 1,6 km/h (1 Bft)
07.09.2016 03:16 8,6 C 8,6 C 95 % 1021,8 hPa 0,0 mm 1,7 km/h (1 Bft) S-SO 167 0 min 0,000 mm 0,0 UV-I 0 W/m 7,8 C 4,8 km/h (1 Bft)
07.09.2016 03:17 8,8 C 8,8 C 95 % 1021,8 hPa 0,0 mm 2,6 km/h (1 Bft) S-SO 167 0 min 0,000 mm 0,0 UV-I 0 W/m 8,0 C 6,4 km/h (2 Bft)
07.09.2016 03:18 8,8 C 8,8 C 95 % 1021,8 hPa 0,0 mm 2,3 km/h (1 Bft) S-SO 167 0 min 0,000 mm 0,0 UV-I 0 W/m 8,0 C 4,8 km/h (1 Bft)
07.09.2016 03:19 8,8 C 8,8 C 95 % 1021,8 hPa 0,0 mm 2,9 km/h (1 Bft) S-SO 167 0 min 0,000 mm 0,0 UV-I 0 W/m 8,0 C 4,8 km/h (1 Bft)
07.09.2016 03:20 8,8 C 8,8 C 95 % 1021,7 hPa 0,0 mm 1,5 km/h (1 Bft) S-SO 167 0 min 0,000 mm 0,0 UV-I 0 W/m 8,0 C 4,8 km/h (1 Bft)
07.09.2016 03:21 8,8 C 8,8 C 95 % 1021,7 hPa 0,0 mm 0,9 km/h (0 Bft) S-SO 167 0 min 0,000 mm 0,0 UV-I 0 W/m 8,0 C 1,6 km/h (1 Bft)
07.09.2016 03:22 8,8 C 8,9 C 95 % 1021,7 hPa 0,0 mm 0,0 km/h (0 Bft) S-SO 167 0 min 0,000 mm 0,0 UV-I 0 W/m 8,0 C 0,0 km/h (0 Bft)
07.09.2016 03:23 8,8 C 8,8 C 95 % 1021,7 hPa 0,0 mm 0,3 km/h (0 Bft) S-SO 167 0 min 0,000 mm 0,0 UV-I 0 W/m 8,0 C 1,6 km/h (1 Bft)
07.09.2016 03:24 8,8 C 8,9 C 95 % 1021,7 hPa 0,0 mm 0,0 km/h (0 Bft) S-SO 167 0 min 0,000 mm 0,0 UV-I 0 W/m 8,0 C 0,0 km/h (0 Bft)
07.09.2016 03:25 8,9 C 8,9 C 95 % 1021,6 hPa 0,0 mm 0,0 km/h (0 Bft) S-SO 167 0 min 0,000 mm 0,0 UV-I 0 W/m 8,1 C 0,0 km/h (0 Bft)
07.09.2016 03:26 9,1 C 9,1 C 95 % 1021,6 hPa 0,0 mm 0,0 km/h (0 Bft) S-SO 167 0 min 0,000 mm 0,0 UV-I 0 W/m 8,3 C 0,0 km/h (0 Bft)
07.09.2016 03:27 9,1 C 9,1 C 95 % 1021,6 hPa 0,0 mm 0,0 km/h (0 Bft) S-SO 167 0 min 0,000 mm 0,0 UV-I 0 W/m 8,3 C 0,0 km/h (0 Bft)
07.09.2016 03:28 9,1 C 9,1 C 95 % 1021,6 hPa 0,0 mm 0,0 km/h (0 Bft) S-SO 167 0 min 0,000 mm 0,0 UV-I 0 W/m 8,3 C 0,0 km/h (0 Bft)
07.09.2016 03:29 9,1 C 9,1 C 95 % 1021,6 hPa 0,0 mm 0,0 km/h (0 Bft) S-SO 167 0 min 0,000 mm 0,0 UV-I 0 W/m 8,3 C 0,0 km/h (0 Bft)
07.09.2016 03:30 9,2 C 9,2 C 95 % 1021,6 hPa 0,0 mm 0,0 km/h (0 Bft) S-SO 167 0 min 0,000 mm 0,0 UV-I 0 W/m 8,4 C 0,0 km/h (0 Bft)
07.09.2016 03:31 9,2 C 9,2 C 95 % 1021,5 hPa 0,0 mm 0,0 km/h (0 Bft) S-SO 165 0 min 0,000 mm 0,0 UV-I 0 W/m 8,4 C 0,0 km/h (0 Bft)
07.09.2016 03:32 9,3 C 9,3 C 95 % 1021,5 hPa 0,0 mm 0,0 km/h (0 Bft) S-SO 164 0 min 0,000 mm 0,0 UV-I 0 W/m 8,5 C 0,0 km/h (0 Bft)
07.09.2016 03:33 9,3 C 9,3 C 95 % 1021,5 hPa 0,0 mm 1,9 km/h (1 Bft) S-SO 164 0 min 0,000 mm 0,0 UV-I 0 W/m 8,5 C 6,4 km/h (2 Bft)
07.09.2016 03:34 9,3 C 9,3 C 95 % 1021,5 hPa 0,0 mm 1,2 km/h (1 Bft) S-SO 164 0 min 0,000 mm 0,0 UV-I 0 W/m 8,5 C 3,2 km/h (1 Bft)
07.09.2016 03:35 9,3 C 9,3 C 95 % 1021,5 hPa 0,0 mm 0,6 km/h (0 Bft) S-SO 164 0 min 0,000 mm 0,0 UV-I 0 W/m 8,5 C 1,6 km/h (1 Bft)
07.09.2016 03:36 9,2 C 9,3 C 94 % 1021,6 hPa 0,0 mm 0,1 km/h (0 Bft) S-SO 164 0 min 0,000 mm 0,0 UV-I 0 W/m 8,3 C 1,6 km/h (1 Bft)
07.09.2016 03:37 9,1 C 9,2 C 94 % 1021,6 hPa 0,0 mm 0,0 km/h (0 Bft) S-SO 164 0 min 0,000 mm 0,0 UV-I 0 W/m 8,2 C 0,0 km/h (0 Bft)
07.09.2016 03:38 9,1 C 9,1 C 94 % 1021,6 hPa 0,0 mm 0,0 km/h (0 Bft) S-SO 164 0 min 0,000 mm 0,0 UV-I 0 W/m 8,2 C 0,0 km/h (0 Bft)
07.09.2016 03:39 9,0 C 9,1 C 94 % 1021,5 hPa 0,0 mm 0,0 km/h (0 Bft) S-SO 164 0 min 0,000 mm 0,0 UV-I 0 W/m 8,1 C 0,0 km/h (0 Bft)
07.09.2016 03:40 9,1 C 9,1 C 94 % 1021,5 hPa 0,0 mm 0,4 km/h (0 Bft) S-SO 164 0 min 0,000 mm 0,0 UV-I 0 W/m 8,2 C 1,6 km/h (1 Bft)
07.09.2016 03:41 9,1 C 9,1 C 94 % 1021,6 hPa 0,0 mm 0,1 km/h (0 Bft) S-SO 164 0 min 0,000 mm 0,0 UV-I 0 W/m 8,2 C 1,6 km/h (1 Bft)
07.09.2016 03:42 9,1 C 9,1 C 95 % 1021,5 hPa 0,0 mm 0,1 km/h (0 Bft) S-SO 164 0 min 0,000 mm 0,0 UV-I 0 W/m 8,3 C 1,6 km/h (1 Bft)
07.09.2016 03:43 9,1 C 9,2 C 95 % 1021,4 hPa 0,0 mm 0,0 km/h (0 Bft) S-SO 164 0 min 0,000 mm 0,0 UV-I 0 W/m 8,3 C 0,0 km/h (0 Bft)
07.09.2016 03:44 9,1 C 9,2 C 95 % 1021,4 hPa 0,0 mm 0,1 km/h (0 Bft) S-SO 164 0 min 0,000 mm 0,0 UV-I 0 W/m 8,3 C 1,6 km/h (1 Bft)
07.09.2016 03:45 9,1 C 9,2 C 95 % 1021,4 hPa 0,0 mm 0,6 km/h (0 Bft) S-SO 164 0 min 0,000 mm 0,0 UV-I 0 W/m 8,3 C 1,6 km/h (1 Bft)
07.09.2016 03:46 9,1 C 9,2 C 95 % 1021,4 hPa 0,0 mm 0,0 km/h (0 Bft) S-SO 164 0 min 0,000 mm 0,0 UV-I 0 W/m 8,3 C 0,0 km/h (0 Bft)
07.09.2016 03:47 9,1 C 9,1 C 95 % 1021,5 hPa 0,0 mm 0,2 km/h (0 Bft) S-SO 164 0 min 0,000 mm 0,0 UV-I 0 W/m 8,3 C 1,6 km/h (1 Bft)
07.09.2016 03:48 9,1 C 9,1 C 94 % 1021,5 hPa 0,0 mm 0,0 km/h (0 Bft) S-SO 164 0 min 0,000 mm 0,0 UV-I 0 W/m 8,2 C 0,0 km/h (0 Bft)
07.09.2016 03:49 8,9 C 9,1 C 94 % 1021,4 hPa 0,0 mm 0,0 km/h (0 Bft) S-SO 164 0 min 0,000 mm 0,0 UV-I 0 W/m 8,0 C 0,0 km/h (0 Bft)
07.09.2016 03:50 8,8 C 8,9 C 93 % 1021,4 hPa 0,0 mm 1,1 km/h (1 Bft) S-SO 164 0 min 0,000 mm 0,0 UV-I 0 W/m 7,7 C 3,2 km/h (1 Bft)
07.09.2016 03:51 8,6 C 8,8 C 93 % 1021,4 hPa 0,0 mm 0,1 km/h (0 Bft) S-SO 164 0 min 0,000 mm 0,0 UV-I 0 W/m 7,5 C 1,6 km/h (1 Bft)
07.09.2016 03:52 8,6 C 8,6 C 93 % 1021,5 hPa 0,0 mm 0,8 km/h (0 Bft) S-SO 164 0 min 0,000 mm 0,0 UV-I 0 W/m 7,5 C 3,2 km/h (1 Bft)
07.09.2016 03:53 8,5 C 8,6 C 94 % 1021,4 hPa 0,0 mm 2,2 km/h (1 Bft) S-SO 164 0 min 0,000 mm 0,0 UV-I 0 W/m 7,6 C 3,2 km/h (1 Bft)
07.09.2016 03:54 8,6 C 8,6 C 94 % 1021,4 hPa 0,0 mm 0,1 km/h (0 Bft) S-SO 164 0 min 0,000 mm 0,0 UV-I 0 W/m 7,7 C 1,6 km/h (1 Bft)
07.09.2016 03:55 8,7 C 8,7 C 95 % 1021,4 hPa 0,0 mm 2,8 km/h (1 Bft) S-SO 164 0 min 0,000 mm 0,0 UV-I 0 W/m 7,9 C 3,2 km/h (1 Bft)
07.09.2016 03:56 8,8 C 8,8 C 95 % 1021,4 hPa 0,0 mm 3,0 km/h (1 Bft) S-SO 164 0 min 0,000 mm 0,0 UV-I 0 W/m 8,0 C 6,4 km/h (2 Bft)
07.09.2016 03:57 8,9 C 8,9 C 95 % 1021,4 hPa 0,0 mm 2,3 km/h (1 Bft) S-SO 164 0 min 0,000 mm 0,0 UV-I 0 W/m 8,1 C 6,4 km/h (2 Bft)
07.09.2016 03:58 9,0 C 9,0 C 95 % 1021,4 hPa 0,0 mm 2,4 km/h (1 Bft) S-SO 164 0 min 0,000 mm 0,0 UV-I 0 W/m 8,2 C 3,2 km/h (1 Bft)
07.09.2016 03:59 9,1 C 9,1 C 95 % 1021,4 hPa 0,0 mm 1,4 km/h (1 Bft) S-SO 164 0 min 0,000 mm 0,0 UV-I 0 W/m 8,3 C 1,6 km/h (1 Bft)
07.09.2016 04:00 9,3 C 9,3 C 96 % 1021,4 hPa 0,0 mm 2,2 km/h (1 Bft) S-SO 164 0 min 0,000 mm 0,0 UV-I 0 W/m 8,7 C 3,2 km/h (1 Bft)
07.09.2016 04:01 9,2 C 9,3 C 95 % 1021,4 hPa 0,0 mm 3,6 km/h (1 Bft) S 180 0 min 0,000 mm 0,0 UV-I 0 W/m 8,4 C 4,8 km/h (1 Bft)
07.09.2016 04:02 9,3 C 9,3 C 95 % 1021,4 hPa 0,0 mm 4,0 km/h (1 Bft) S 178 0 min 0,000 mm 0,0 UV-I 0 W/m 8,5 C 4,8 km/h (1 Bft)
07.09.2016 04:03 9,3 C 9,3 C 95 % 1021,4 hPa 0,0 mm 2,7 km/h (1 Bft) S 171 0 min 0,000 mm 0,0 UV-I 0 W/m 8,5 C 6,4 km/h (2 Bft)
07.09.2016 04:04 9,3 C 9,3 C 95 % 1021,3 hPa 0,0 mm 1,7 km/h (1 Bft) S 171 0 min 0,000 mm 0,0 UV-I 0 W/m 8,5 C 3,2 km/h (1 Bft)
07.09.2016 04:05 9,3 C 9,3 C 95 % 1021,3 hPa 0,0 mm 2,4 km/h (1 Bft) S 171 0 min 0,000 mm 0,0 UV-I 0 W/m 8,5 C 3,2 km/h (1 Bft)
07.09.2016 04:06 9,4 C 9,4 C 95 % 1021,4 hPa 0,0 mm 1,7 km/h (1 Bft) S 171 0 min 0,000 mm 0,0 UV-I 0 W/m 8,6 C 3,2 km/h (1 Bft)
07.09.2016 04:07 9,5 C 9,5 C 96 % 1021,3 hPa 0,0 mm 1,7 km/h (1 Bft) S 171 0 min 0,000 mm 0,0 UV-I 0 W/m 8,9 C 3,2 km/h (1 Bft)
07.09.2016 04:08 9,5 C 9,6 C 96 % 1021,3 hPa 0,0 mm 1,3 km/h (1 Bft) S 171 0 min 0,000 mm 0,0 UV-I 0 W/m 8,9 C 3,2 km/h (1 Bft)
07.09.2016 04:09 9,6 C 9,6 C 96 % 1021,3 hPa 0,0 mm 0,3 km/h (0 Bft) S 171 0 min 0,000 mm 0,0 UV-I 0 W/m 9,0 C 1,6 km/h (1 Bft)
07.09.2016 04:10 9,6 C 9,6 C 96 % 1021,2 hPa 0,0 mm 0,2 km/h (0 Bft) S 171 0 min 0,000 mm 0,0 UV-I 0 W/m 9,0 C 1,6 km/h (1 Bft)
07.09.2016 04:11 9,6 C 9,6 C 95 % 1021,2 hPa 0,0 mm 2,0 km/h (1 Bft) S 171 0 min 0,000 mm 0,0 UV-I 0 W/m 8,8 C 3,2 km/h (1 Bft)
07.09.2016 04:12 9,6 C 9,6 C 95 % 1021,2 hPa 0,0 mm 0,7 km/h (0 Bft) S 171 0 min 0,000 mm 0,0 UV-I 0 W/m 8,8 C 1,6 km/h (1 Bft)
07.09.2016 04:13 9,4 C 9,6 C 95 % 1021,2 hPa 0,0 mm 1,9 km/h (1 Bft) S 171 0 min 0,000 mm 0,0 UV-I 0 W/m 8,6 C 3,2 km/h (1 Bft)
07.09.2016 04:14 9,4 C 9,4 C 95 % 1021,2 hPa 0,0 mm 0,7 km/h (0 Bft) S 171 0 min 0,000 mm 0,0 UV-I 0 W/m 8,6 C 1,6 km/h (1 Bft)
07.09.2016 04:15 9,4 C 9,4 C 95 % 1021,2 hPa 0,0 mm 1,6 km/h (1 Bft) O-NO 74 0 min 0,000 mm 0,0 UV-I 0 W/m 8,6 C 6,4 km/h (2 Bft)
07.09.2016 04:16 9,4 C 9,4 C 95 % 1021,2 hPa 0,0 mm 3,8 km/h (1 Bft) NO 45 0 min 0,000 mm 0,0 UV-I 0 W/m 8,6 C 6,4 km/h (2 Bft)
07.09.2016 04:17 9,4 C 9,4 C 95 % 1021,2 hPa 0,0 mm 3,6 km/h (1 Bft) NO 46 0 min 0,000 mm 0,0 UV-I 0 W/m 8,6 C 4,8 km/h (1 Bft)
07.09.2016 04:18 9,5 C 9,5 C 95 % 1021,2 hPa 0,0 mm 4,2 km/h (1 Bft) NO 53 0 min 0,000 mm 0,0 UV-I 0 W/m 8,7 C 6,4 km/h (2 Bft)
07.09.2016 04:19 9,6 C 9,6 C 95 % 1021,2 hPa 0,0 mm 4,2 km/h (1 Bft) O 86 0 min 0,000 mm 0,0 UV-I 0 W/m 8,8 C 4,8 km/h (1 Bft)
07.09.2016 04:20 9,7 C 9,7 C 95 % 1021,1 hPa 0,0 mm 1,8 km/h (1 Bft) O 86 0 min 0,000 mm 0,0 UV-I 0 W/m 8,9 C 3,2 km/h (1 Bft)
07.09.2016 04:21 9,7 C 9,7 C 96 % 1021,1 hPa 0,0 mm 0,7 km/h (0 Bft) O 86 0 min 0,000 mm 0,0 UV-I 0 W/m 9,1 C 1,6 km/h (1 Bft)
07.09.2016 04:22 9,7 C 9,8 C 96 % 1021,0 hPa 0,0 mm 0,4 km/h (0 Bft) O 86 0 min 0,000 mm 0,0 UV-I 0 W/m 9,1 C 1,6 km/h (1 Bft)
07.09.2016 04:23 9,7 C 9,7 C 95 % 1021,0 hPa 0,0 mm 0,1 km/h (0 Bft) O 86 0 min 0,000 mm 0,0 UV-I 0 W/m 8,9 C 1,6 km/h (1 Bft)
07.09.2016 04:24 9,7 C 9,7 C 95 % 1021,0 hPa 0,0 mm 2,4 km/h (1 Bft) O 90 0 min 0,000 mm 0,0 UV-I 0 W/m 8,9 C 4,8 km/h (1 Bft)
07.09.2016 04:25 9,7 C 9,7 C 95 % 1021,0 hPa 0,0 mm 2,3 km/h (1 Bft) O-SO 103 0 min 0,000 mm 0,0 UV-I 0 W/m 8,9 C 3,2 km/h (1 Bft)
07.09.2016 04:26 9,8 C 9,8 C 95 % 1021,0 hPa 0,0 mm 1,1 km/h (1 Bft) O-SO 103 0 min 0,000 mm 0,0 UV-I 0 W/m 9,0 C 1,6 km/h (1 Bft)
07.09.2016 04:27 9,8 C 9,8 C 96 % 1021,0 hPa 0,0 mm 1,3 km/h (1 Bft) O-SO 103 0 min 0,000 mm 0,0 UV-I 0 W/m 9,2 C 3,2 km/h (1 Bft)
07.09.2016 04:28 9,8 C 9,8 C 96 % 1021,0 hPa 0,0 mm 0,2 km/h (0 Bft) O-SO 103 0 min 0,000 mm 0,0 UV-I 0 W/m 9,2 C 1,6 km/h (1 Bft)
07.09.2016 04:29 9,8 C 9,8 C 96 % 1021,0 hPa 0,0 mm 1,6 km/h (1 Bft) O-SO 103 0 min 0,000 mm 0,0 UV-I 0 W/m 9,2 C 3,2 km/h (1 Bft)
07.09.2016 04:30 9,8 C 9,9 C 96 % 1020,9 hPa 0,0 mm 1,6 km/h (1 Bft) O-SO 103 0 min 0,000 mm 0,0 UV-I 0 W/m 9,2 C 1,6 km/h (1 Bft)
07.09.2016 04:31 9,8 C 9,9 C 96 % 1020,9 hPa 0,0 mm 1,1 km/h (1 Bft) O-SO 103 0 min 0,000 mm 0,0 UV-I 0 W/m 9,2 C 1,6 km/h (1 Bft)
07.09.2016 04:32 9,8 C 9,8 C 95 % 1020,9 hPa 0,0 mm 1,3 km/h (1 Bft) O-SO 103 0 min 0,000 mm 0,0 UV-I 0 W/m 9,0 C 3,2 km/h (1 Bft)
07.09.2016 04:33 9,8 C 9,8 C 95 % 1020,9 hPa 0,0 mm 0,5 km/h (0 Bft) O-SO 103 0 min 0,000 mm 0,0 UV-I 0 W/m 9,0 C 1,6 km/h (1 Bft)
07.09.2016 04:34 9,8 C 9,8 C 95 % 1020,9 hPa 0,0 mm 1,3 km/h (1 Bft) O-SO 103 0 min 0,000 mm 0,0 UV-I 0 W/m 9,0 C 3,2 km/h (1 Bft)
07.09.2016 04:35 9,7 C 9,8 C 95 % 1020,9 hPa 0,0 mm 0,7 km/h (0 Bft) O-SO 103 0 min 0,000 mm 0,0 UV-I 0 W/m 8,9 C 1,6 km/h (1 Bft)
07.09.2016 04:36 9,7 C 9,8 C 95 % 1020,9 hPa 0,0 mm 0,8 km/h (0 Bft) O-SO 103 0 min 0,000 mm 0,0 UV-I 0 W/m 8,9 C 1,6 km/h (1 Bft)
07.09.2016 04:37 9,8 C 9,8 C 95 % 1020,9 hPa 0,0 mm 0,2 km/h (0 Bft) O-SO 103 0 min 0,000 mm 0,0 UV-I 0 W/m 9,0 C 1,6 km/h (1 Bft)
07.09.2016 04:38 9,7 C 9,8 C 95 % 1020,9 hPa 0,0 mm 0,3 km/h (0 Bft) O-SO 103 0 min 0,000 mm 0,0 UV-I 0 W/m 8,9 C 1,6 km/h (1 Bft)
07.09.2016 04:39 9,7 C 9,7 C 95 % 1020,8 hPa 0,0 mm 0,1 km/h (0 Bft) O-SO 103 0 min 0,000 mm 0,0 UV-I 0 W/m 8,9 C 1,6 km/h (1 Bft)
07.09.2016 04:40 9,7 C 9,7 C 95 % 1020,9 hPa 0,0 mm 1,0 km/h (0 Bft) O-SO 103 0 min 0,000 mm 0,0 UV-I 0 W/m 8,9 C 1,6 km/h (1 Bft)
07.09.2016 04:41 9,7 C 9,7 C 95 % 1020,9 hPa 0,0 mm 0,7 km/h (0 Bft) O-SO 103 0 min 0,000 mm 0,0 UV-I 0 W/m 8,9 C 1,6 km/h (1 Bft)
07.09.2016 04:42 9,6 C 9,7 C 95 % 1020,9 hPa 0,0 mm 1,1 km/h (1 Bft) O-SO 103 0 min 0,000 mm 0,0 UV-I 0 W/m 8,8 C 1,6 km/h (1 Bft)
07.09.2016 04:43 9,5 C 9,6 C 95 % 1020,8 hPa 0,0 mm 0,5 km/h (0 Bft) O-SO 103 0 min 0,000 mm 0,0 UV-I 0 W/m 8,7 C 1,6 km/h (1 Bft)
07.09.2016 04:44 9,4 C 9,5 C 95 % 1020,8 hPa 0,0 mm 1,0 km/h (0 Bft) O-SO 103 0 min 0,000 mm 0,0 UV-I 0 W/m 8,6 C 1,6 km/h (1 Bft)
07.09.2016 04:45 9,4 C 9,4 C 95 % 1020,8 hPa 0,0 mm 0,5 km/h (0 Bft) O-SO 103 0 min 0,000 mm 0,0 UV-I 0 W/m 8,6 C 1,6 km/h (1 Bft)
07.09.2016 04:46 9,3 C 9,4 C 95 % 1020,8 hPa 0,0 mm 0,1 km/h (0 Bft) O-SO 103 0 min 0,000 mm 0,0 UV-I 0 W/m 8,5 C 1,6 km/h (1 Bft)
07.09.2016 04:47 9,3 C 9,3 C 95 % 1020,8 hPa 0,0 mm 0,2 km/h (0 Bft) O-SO 103 0 min 0,000 mm 0,0 UV-I 0 W/m 8,5 C 1,6 km/h (1 Bft)
07.09.2016 04:48 9,3 C 9,3 C 95 % 1020,8 hPa 0,0 mm 0,5 km/h (0 Bft) O-SO 103 0 min 0,000 mm 0,0 UV-I 0 W/m 8,5 C 1,6 km/h (1 Bft)
07.09.2016 04:49 9,3 C 9,3 C 95 % 1020,8 hPa 0,0 mm 0,1 km/h (0 Bft) O-SO 103 0 min 0,000 mm 0,0 UV-I 0 W/m 8,5 C 1,6 km/h (1 Bft)
07.09.2016 04:50 9,4 C 9,4 C 95 % 1020,8 hPa 0,0 mm 0,5 km/h (0 Bft) O-SO 103 0 min 0,000 mm 0,0 UV-I 0 W/m 8,6 C 1,6 km/h (1 Bft)
07.09.2016 04:51 9,4 C 9,4 C 95 % 1020,8 hPa 0,0 mm 0,6 km/h (0 Bft) O-SO 103 0 min 0,000 mm 0,0 UV-I 0 W/m 8,6 C 1,6 km/h (1 Bft)
07.09.2016 04:52 9,4 C 9,4 C 95 % 1020,8 hPa 0,0 mm 0,1 km/h (0 Bft) O-SO 103 0 min 0,000 mm 0,0 UV-I 0 W/m 8,6 C 1,6 km/h (1 Bft)
07.09.2016 04:53 9,4 C 9,4 C 95 % 1020,8 hPa 0,0 mm 0,0 km/h (0 Bft) O-SO 103 0 min 0,000 mm 0,0 UV-I 0 W/m 8,6 C 0,0 km/h (0 Bft)
07.09.2016 04:54 9,4 C 9,4 C 95 % 1020,8 hPa 0,0 mm 0,0 km/h (0 Bft) O-SO 103 0 min 0,000 mm 0,0 UV-I 0 W/m 8,6 C 0,0 km/h (0 Bft)
07.09.2016 04:55 9,4 C 9,5 C 96 % 1020,7 hPa 0,0 mm 0,0 km/h (0 Bft) O-SO 103 0 min 0,000 mm 0,0 UV-I 0 W/m 8,8 C 0,0 km/h (0 Bft)
07.09.2016 04:56 9,5 C 9,5 C 96 % 1020,7 hPa 0,0 mm 0,2 km/h (0 Bft) O-SO 103 0 min 0,000 mm 0,0 UV-I 0 W/m 8,9 C 1,6 km/h (1 Bft)
07.09.2016 04:57 9,4 C 9,5 C 95 % 1020,7 hPa 0,0 mm 0,4 km/h (0 Bft) O-SO 103 0 min 0,000 mm 0,0 UV-I 0 W/m 8,6 C 1,6 km/h (1 Bft)
07.09.2016 04:58 9,4 C 9,4 C 95 % 1020,7 hPa 0,0 mm 0,9 km/h (0 Bft) O-SO 103 0 min 0,000 mm 0,0 UV-I 0 W/m 8,6 C 1,6 km/h (1 Bft)
07.09.2016 04:59 9,4 C 9,4 C 95 % 1020,7 hPa 0,0 mm 0,7 km/h (0 Bft) O-SO 103 0 min 0,000 mm 0,0 UV-I 0 W/m 8,6 C 1,6 km/h (1 Bft)
07.09.2016 05:00 9,4 C 9,4 C 95 % 1020,7 hPa 0,0 mm 1,5 km/h (1 Bft) O-SO 103 0 min 0,000 mm 0,0 UV-I 0 W/m 8,6 C 1,6 km/h (1 Bft)
07.09.2016 05:01 9,4 C 9,4 C 95 % 1020,7 hPa 0,0 mm 0,9 km/h (0 Bft) O-SO 103 0 min 0,000 mm 0,0 UV-I 0 W/m 8,6 C 1,6 km/h (1 Bft)
07.09.2016 05:02 9,4 C 9,4 C 95 % 1020,6 hPa 0,0 mm 1,1 km/h (1 Bft) O-SO 103 0 min 0,000 mm 0,0 UV-I 0 W/m 8,6 C 1,6 km/h (1 Bft)
07.09.2016 05:03 9,4 C 9,4 C 96 % 1020,7 hPa 0,0 mm 1,4 km/h (1 Bft) O-SO 103 0 min 0,000 mm 0,0 UV-I 0 W/m 8,8 C 1,6 km/h (1 Bft)
07.09.2016 05:04 9,4 C 9,4 C 95 % 1020,6 hPa 0,0 mm 1,4 km/h (1 Bft) O-SO 103 0 min 0,000 mm 0,0 UV-I 0 W/m 8,6 C 3,2 km/h (1 Bft)
07.09.2016 05:05 9,3 C 9,4 C 95 % 1020,6 hPa 0,0 mm 2,4 km/h (1 Bft) O-SO 103 0 min 0,000 mm 0,0 UV-I 0 W/m 8,5 C 3,2 km/h (1 Bft)
07.09.2016 05:06 9,3 C 9,3 C 95 % 1020,6 hPa 0,0 mm 1,1 km/h (1 Bft) O-SO 103 0 min 0,000 mm 0,0 UV-I 0 W/m 8,5 C 1,6 km/h (1 Bft)
07.09.2016 05:07 9,3 C 9,3 C 95 % 1020,5 hPa 0,0 mm 0,2 km/h (0 Bft) O-SO 103 0 min 0,000 mm 0,0 UV-I 0 W/m 8,5 C 1,6 km/h (1 Bft)
07.09.2016 05:08 9,3 C 9,3 C 95 % 1020,5 hPa 0,0 mm 1,5 km/h (1 Bft) O-SO 103 0 min 0,000 mm 0,0 UV-I 0 W/m 8,5 C 3,2 km/h (1 Bft)
07.09.2016 05:09 9,2 C 9,3 C 95 % 1020,5 hPa 0,0 mm 0,9 km/h (0 Bft) O-SO 103 0 min 0,000 mm 0,0 UV-I 0 W/m 8,4 C 1,6 km/h (1 Bft)
07.09.2016 05:10 9,1 C 9,2 C 95 % 1020,5 hPa 0,0 mm 1,8 km/h (1 Bft) O-SO 103 0 min 0,000 mm 0,0 UV-I 0 W/m 8,3 C 3,2 km/h (1 Bft)
07.09.2016 05:11 9,1 C 9,1 C 95 % 1020,5 hPa 0,0 mm 2,2 km/h (1 Bft) O-SO 103 0 min 0,000 mm 0,0 UV-I 0 W/m 8,3 C 3,2 km/h (1 Bft)
07.09.2016 05:12 9,1 C 9,1 C 95 % 1020,5 hPa 0,0 mm 1,3 km/h (1 Bft) O-SO 103 0 min 0,000 mm 0,0 UV-I 0 W/m 8,3 C 1,6 km/h (1 Bft)
07.09.2016 05:13 9,0 C 9,1 C 95 % 1020,4 hPa 0,0 mm 1,8 km/h (1 Bft) O-SO 103 0 min 0,000 mm 0,0 UV-I 0 W/m 8,2 C 3,2 km/h (1 Bft)
07.09.2016 05:14 8,9 C 9,0 C 95 % 1020,4 hPa 0,0 mm 2,3 km/h (1 Bft) O-SO 103 0 min 0,000 mm 0,0 UV-I 0 W/m 8,1 C 3,2 km/h (1 Bft)
07.09.2016 05:15 8,9 C 8,9 C 95 % 1020,4 hPa 0,0 mm 2,4 km/h (1 Bft) O-SO 103 0 min 0,000 mm 0,0 UV-I 0 W/m 8,1 C 3,2 km/h (1 Bft)
07.09.2016 05:16 8,9 C 8,9 C 95 % 1020,4 hPa 0,0 mm 2,0 km/h (1 Bft) O-SO 103 0 min 0,000 mm 0,0 UV-I 0 W/m 8,1 C 3,2 km/h (1 Bft)
07.09.2016 05:17 8,8 C 8,9 C 95 % 1020,4 hPa 0,0 mm 1,9 km/h (1 Bft) O-SO 103 0 min 0,000 mm 0,0 UV-I 0 W/m 8,0 C 3,2 km/h (1 Bft)
07.09.2016 05:18 8,7 C 8,8 C 95 % 1020,4 hPa 0,0 mm 3,3 km/h (1 Bft) S-SO 168 0 min 0,000 mm 0,0 UV-I 0 W/m 7,9 C 6,4 km/h (2 Bft)
07.09.2016 05:19 8,7 C 8,7 C 95 % 1020,4 hPa 0,0 mm 3,6 km/h (1 Bft) S-SO 168 0 min 0,000 mm 0,0 UV-I 0 W/m 7,9 C 6,4 km/h (2 Bft)
07.09.2016 05:20 8,6 C 8,7 C 95 % 1020,3 hPa 0,0 mm 2,0 km/h (1 Bft) S-SO 168 0 min 0,000 mm 0,0 UV-I 0 W/m 7,8 C 3,2 km/h (1 Bft)
07.09.2016 05:21 8,6 C 8,6 C 95 % 1020,3 hPa 0,0 mm 1,5 km/h (1 Bft) S-SO 168 0 min 0,000 mm 0,0 UV-I 0 W/m 7,8 C 1,6 km/h (1 Bft)
07.09.2016 05:22 8,6 C 8,6 C 95 % 1020,3 hPa 0,0 mm 1,3 km/h (1 Bft) S-SO 168 0 min 0,000 mm 0,0 UV-I 0 W/m 7,8 C 1,6 km/h (1 Bft)
07.09.2016 05:23 8,5 C 8,6 C 95 % 1020,3 hPa 0,0 mm 0,0 km/h (0 Bft) S-SO 168 0 min 0,000 mm 0,0 UV-I 0 W/m 7,7 C 0,0 km/h (0 Bft)
07.09.2016 05:24 8,4 C 8,5 C 95 % 1020,2 hPa 0,0 mm 0,0 km/h (0 Bft) S-SO 168 0 min 0,000 mm 0,0 UV-I 0 W/m 7,6 C 0,0 km/h (0 Bft)
07.09.2016 05:25 8,4 C 8,4 C 95 % 1020,3 hPa 0,0 mm 0,0 km/h (0 Bft) S-SO 168 0 min 0,000 mm 0,0 UV-I 0 W/m 7,6 C 0,0 km/h (0 Bft)
07.09.2016 05:26 8,3 C 8,4 C 95 % 1020,2 hPa 0,0 mm 0,1 km/h (0 Bft) S-SO 168 0 min 0,000 mm 0,0 UV-I 0 W/m 7,5 C 1,6 km/h (1 Bft)
07.09.2016 05:27 8,3 C 8,3 C 94 % 1020,2 hPa 0,0 mm 0,6 km/h (0 Bft) S-SO 168 0 min 0,000 mm 0,0 UV-I 0 W/m 7,4 C 1,6 km/h (1 Bft)
07.09.2016 05:28 8,3 C 8,3 C 95 % 1020,2 hPa 0,0 mm 0,5 km/h (0 Bft) S-SO 168 0 min 0,000 mm 0,0 UV-I 0 W/m 7,5 C 1,6 km/h (1 Bft)
07.09.2016 05:29 8,3 C 8,3 C 95 % 1020,2 hPa 0,0 mm 0,3 km/h (0 Bft) S-SO 168 0 min 0,000 mm 0,0 UV-I 0 W/m 7,5 C 1,6 km/h (1 Bft)
07.09.2016 05:30 8,3 C 8,3 C 95 % 1020,1 hPa 0,0 mm 0,5 km/h (0 Bft) S-SO 168 0 min 0,000 mm 0,0 UV-I 0 W/m 7,5 C 1,6 km/h (1 Bft)
07.09.2016 05:31 8,3 C 8,3 C 95 % 1020,0 hPa 0,0 mm 0,0 km/h (0 Bft) S-SO 168 0 min 0,000 mm 0,0 UV-I 0 W/m 7,5 C 0,0 km/h (0 Bft)
07.09.2016 05:32 8,3 C 8,3 C 95 % 1020,0 hPa 0,0 mm 1,0 km/h (0 Bft) S-SO 168 0 min 0,000 mm 0,0 UV-I 0 W/m 7,5 C 1,6 km/h (1 Bft)
07.09.2016 05:33 8,3 C 8,3 C 95 % 1020,0 hPa 0,0 mm 0,1 km/h (0 Bft) S-SO 168 0 min 0,000 mm 0,0 UV-I 0 W/m 7,5 C 1,6 km/h (1 Bft)
07.09.2016 05:34 8,1 C 8,3 C 94 % 1020,0 hPa 0,0 mm 0,1 km/h (0 Bft) S-SO 168 0 min 0,000 mm 0,0 UV-I 0 W/m 7,2 C 1,6 km/h (1 Bft)
07.09.2016 05:35 8,0 C 8,1 C 94 % 1020,0 hPa 0,0 mm 1,5 km/h (1 Bft) S-SO 168 0 min 0,000 mm 0,0 UV-I 0 W/m 7,1 C 1,6 km/h (1 Bft)
07.09.2016 05:36 8,0 C 8,0 C 94 % 1020,0 hPa 0,0 mm 0,5 km/h (0 Bft) S-SO 168 0 min 0,000 mm 0,0 UV-I 0 W/m 7,1 C 1,6 km/h (1 Bft)
07.09.2016 05:37 7,9 C 8,0 C 94 % 1020,0 hPa 0,0 mm 0,0 km/h (0 Bft) S-SO 168 0 min 0,000 mm 0,0 UV-I 0 W/m 7,0 C 0,0 km/h (0 Bft)
07.09.2016 05:38 7,8 C 7,9 C 94 % 1020,0 hPa 0,0 mm 0,0 km/h (0 Bft) S-SO 168 0 min 0,000 mm 0,0 UV-I 0 W/m 6,9 C 0,0 km/h (0 Bft)
07.09.2016 05:39 7,8 C 7,8 C 94 % 1020,0 hPa 0,0 mm 0,0 km/h (0 Bft) S-SO 168 0 min 0,000 mm 0,0 UV-I 0 W/m 6,9 C 0,0 km/h (0 Bft)
07.09.2016 05:40 7,7 C 7,8 C 94 % 1020,0 hPa 0,0 mm 0,0 km/h (0 Bft) S-SO 168 0 min 0,000 mm 0,0 UV-I 0 W/m 6,8 C 0,0 km/h (0 Bft)
07.09.2016 05:41 7,7 C 7,7 C 94 % 1020,0 hPa 0,0 mm 0,0 km/h (0 Bft) S-SO 168 0 min 0,000 mm 0,0 UV-I 0 W/m 6,8 C 0,0 km/h (0 Bft)
07.09.2016 05:42 7,7 C 7,7 C 95 % 1020,0 hPa 0,0 mm 0,1 km/h (0 Bft) S-SO 168 0 min 0,000 mm 0,0 UV-I 0 W/m 7,0 C 1,6 km/h (1 Bft)
07.09.2016 05:43 7,8 C 7,8 C 95 % 1020,0 hPa 0,0 mm 0,1 km/h (0 Bft) S-SO 168 0 min 0,000 mm 0,0 UV-I 0 W/m 7,0 C 1,6 km/h (1 Bft)
07.09.2016 05:44 7,8 C 7,8 C 95 % 1020,0 hPa 0,0 mm 0,3 km/h (0 Bft) S-SO 168 0 min 0,000 mm 0,0 UV-I 0 W/m 7,0 C 1,6 km/h (1 Bft)
07.09.2016 05:45 7,8 C 7,8 C 95 % 1020,0 hPa 0,0 mm 0,3 km/h (0 Bft) S-SO 168 0 min 0,000 mm 0,0 UV-I 0 W/m 7,0 C 1,6 km/h (1 Bft)
07.09.2016 05:46 7,7 C 7,8 C 95 % 1020,0 hPa 0,0 mm 0,8 km/h (0 Bft) S-SO 168 0 min 0,000 mm 0,0 UV-I 0 W/m 7,0 C 1,6 km/h (1 Bft)
07.09.2016 05:47 7,7 C 7,7 C 95 % 1020,0 hPa 0,0 mm 0,5 km/h (0 Bft) S-SO 168 0 min 0,000 mm 0,0 UV-I 0 W/m 7,0 C 1,6 km/h (1 Bft)
07.09.2016 05:48 7,7 C 7,7 C 95 % 1020,0 hPa 0,0 mm 1,5 km/h (1 Bft) S-SO 168 0 min 0,000 mm 0,0 UV-I 0 W/m 7,0 C 1,6 km/h (1 Bft)
07.09.2016 05:49 7,7 C 7,7 C 95 % 1019,9 hPa 0,0 mm 1,7 km/h (1 Bft) S-SO 168 0 min 0,000 mm 0,0 UV-I 0 W/m 7,0 C 3,2 km/h (1 Bft)
07.09.2016 05:50 7,8 C 7,8 C 95 % 1019,9 hPa 0,0 mm 2,2 km/h (1 Bft) S-SO 168 0 min 0,000 mm 0,0 UV-I 0 W/m 7,0 C 3,2 km/h (1 Bft)
07.09.2016 05:51 7,9 C 7,9 C 96 % 1019,9 hPa 0,0 mm 1,4 km/h (1 Bft) S-SO 168 0 min 0,000 mm 0,0 UV-I 0 W/m 7,3 C 1,6 km/h (1 Bft)
07.09.2016 05:52 8,0 C 8,0 C 96 % 1019,9 hPa 0,0 mm 1,5 km/h (1 Bft) S-SO 168 0 min 0,000 mm 0,0 UV-I 0 W/m 7,4 C 3,2 km/h (1 Bft)
07.09.2016 05:53 8,1 C 8,1 C 96 % 1019,8 hPa 0,0 mm 0,9 km/h (0 Bft) S-SO 168 0 min 0,000 mm 0,0 UV-I 0 W/m 7,5 C 1,6 km/h (1 Bft)
07.09.2016 05:54 8,1 C 8,1 C 96 % 1019,8 hPa 0,0 mm 1,2 km/h (1 Bft) S-SO 168 0 min 0,000 mm 0,0 UV-I 0 W/m 7,5 C 3,2 km/h (1 Bft)
07.09.2016 05:55 8,1 C 8,1 C 96 % 1019,8 hPa 0,0 mm 3,0 km/h (1 Bft) O 96 0 min 0,000 mm 0,0 UV-I 0 W/m 7,5 C 4,8 km/h (1 Bft)
07.09.2016 05:56 8,1 C 8,1 C 95 % 1019,8 hPa 0,0 mm 2,9 km/h (1 Bft) O-SO 104 0 min 0,000 mm 0,0 UV-I 0 W/m 7,3 C 4,8 km/h (1 Bft)
07.09.2016 05:57 7,9 C 8,1 C 95 % 1019,8 hPa 0,0 mm 2,5 km/h (1 Bft) O-SO 104 0 min 0,000 mm 0,0 UV-I 0 W/m 7,1 C 3,2 km/h (1 Bft)
07.09.2016 05:58 8,1 C 8,1 C 95 % 1019,8 hPa 0,0 mm 1,4 km/h (1 Bft) O-SO 104 0 min 0,000 mm 0,0 UV-I 0 W/m 7,3 C 3,2 km/h (1 Bft)
07.09.2016 05:59 8,1 C 8,1 C 96 % 1019,8 hPa 0,0 mm 2,4 km/h (1 Bft) O-SO 105 0 min 0,000 mm 0,0 UV-I 0 W/m 7,5 C 3,2 km/h (1 Bft)
07.09.2016 06:00 8,1 C 8,1 C 96 % 1019,8 hPa 0,0 mm 4,7 km/h (1 Bft) O-SO 110 0 min 0,000 mm 0,0 UV-I 0 W/m 7,5 C 6,4 km/h (2 Bft)
07.09.2016 06:01 8,2 C 8,2 C 96 % 1019,7 hPa 0,0 mm 2,9 km/h (1 Bft) O-SO 107 0 min 0,000 mm 0,0 UV-I 0 W/m 7,6 C 4,8 km/h (1 Bft)
07.09.2016 06:02 8,4 C 8,4 C 96 % 1019,7 hPa 0,0 mm 4,7 km/h (1 Bft) NO 56 0 min 0,000 mm 0,0 UV-I 0 W/m 7,8 C 6,4 km/h (2 Bft)
07.09.2016 06:03 8,6 C 8,6 C 96 % 1019,7 hPa 0,0 mm 2,9 km/h (1 Bft) O-NO 64 0 min 0,000 mm 0,0 UV-I 0 W/m 8,0 C 3,2 km/h (1 Bft)
07.09.2016 06:04 8,6 C 8,6 C 96 % 1019,7 hPa 0,0 mm 2,3 km/h (1 Bft) O-NO 64 0 min 0,000 mm 0,0 UV-I 0 W/m 8,0 C 4,8 km/h (1 Bft)
07.09.2016 06:05 8,6 C 8,6 C 96 % 1019,7 hPa 0,0 mm 4,8 km/h (1 Bft) O-NO 78 0 min 0,000 mm 0,0 UV-I 0 W/m 8,0 C 6,4 km/h (2 Bft)
07.09.2016 06:06 8,6 C 8,6 C 96 % 1019,6 hPa 0,0 mm 4,0 km/h (1 Bft) O-SO 103 0 min 0,000 mm 0,0 UV-I 0 W/m 8,0 C 6,4 km/h (2 Bft)
07.09.2016 06:07 8,7 C 8,7 C 96 % 1019,6 hPa 0,0 mm 3,1 km/h (1 Bft) O-NO 75 0 min 0,000 mm 0,0 UV-I 0 W/m 8,1 C 6,4 km/h (2 Bft)
07.09.2016 06:08 8,8 C 8,8 C 96 % 1019,6 hPa 0,0 mm 4,8 km/h (1 Bft) NO 51 0 min 0,000 mm 0,0 UV-I 0 W/m 8,2 C 8,0 km/h (2 Bft)
07.09.2016 06:09 9,0 C 9,0 C 96 % 1019,6 hPa 0,0 mm 6,2 km/h (2 Bft) O-NO 71 0 min 0,000 mm 0,0 UV-I 0 W/m 8,4 C 11,3 km/h (2 Bft)
07.09.2016 06:10 9,1 C 9,1 C 96 % 1019,6 hPa 0,0 mm 4,6 km/h (1 Bft) O 92 0 min 0,000 mm 0,0 UV-I 0 W/m 8,5 C 6,4 km/h (2 Bft)
07.09.2016 06:11 9,1 C 9,1 C 96 % 1019,6 hPa 0,0 mm 5,6 km/h (1 Bft) O-NO 72 0 min 0,000 mm 0,0 UV-I 0 W/m 8,5 C 8,0 km/h (2 Bft)
07.09.2016 06:12 9,2 C 9,2 C 96 % 1019,5 hPa 0,0 mm 6,0 km/h (2 Bft) O-NO 68 0 min 0,000 mm 0,0 UV-I 0 W/m 8,6 C 9,7 km/h (2 Bft)
07.09.2016 06:13 9,2 C 9,2 C 96 % 1019,6 hPa 0,0 mm 5,8 km/h (2 Bft) NO 44 0 min 0,000 mm 0,0 UV-I 0 W/m 8,6 C 11,3 km/h (2 Bft)
07.09.2016 06:14 9,3 C 9,3 C 96 % 1019,6 hPa 0,0 mm 7,6 km/h (2 Bft) O-NO 76 0 min 0,000 mm 0,0 UV-I 0 W/m 8,7 C 11,3 km/h (2 Bft)
07.09.2016 06:15 9,3 C 9,3 C 96 % 1019,6 hPa 0,0 mm 5,9 km/h (2 Bft) O-NO 58 0 min 0,000 mm 0,0 UV-I 0 W/m 8,7 C 8,0 km/h (2 Bft)
07.09.2016 06:16 9,3 C 9,3 C 96 % 1019,7 hPa 0,0 mm 5,8 km/h (2 Bft) NO 42 0 min 0,000 mm 0,0 UV-I 0 W/m 8,7 C 9,7 km/h (2 Bft)
07.09.2016 06:17 9,4 C 9,4 C 96 % 1019,6 hPa 0,0 mm 2,6 km/h (1 Bft) NO 56 0 min 0,000 mm 0,0 UV-I 0 W/m 8,8 C 4,8 km/h (1 Bft)
07.09.2016 06:18 9,3 C 9,4 C 96 % 1019,6 hPa 0,0 mm 3,4 km/h (1 Bft) O 82 0 min 0,000 mm 0,0 UV-I 0 W/m 8,7 C 6,4 km/h (2 Bft)
07.09.2016 06:19 9,4 C 9,4 C 96 % 1019,6 hPa 0,0 mm 1,7 km/h (1 Bft) O 82 0 min 0,000 mm 0,0 UV-I 0 W/m 8,8 C 3,2 km/h (1 Bft)
07.09.2016 06:20 9,4 C 9,4 C 96 % 1019,6 hPa 0,0 mm 0,0 km/h (0 Bft) O 82 0 min 0,000 mm 0,0 UV-I 0 W/m 8,8 C 0,0 km/h (0 Bft)
07.09.2016 06:21 9,4 C 9,4 C 96 % 1019,6 hPa 0,0 mm 0,1 km/h (0 Bft) O 82 0 min 0,000 mm 0,0 UV-I 0 W/m 8,8 C 1,6 km/h (1 Bft)
07.09.2016 06:22 9,4 C 9,4 C 96 % 1019,5 hPa 0,0 mm 0,4 km/h (0 Bft) O 82 0 min 0,000 mm 0,0 UV-I 0 W/m 8,8 C 1,6 km/h (1 Bft)
07.09.2016 06:23 9,4 C 9,4 C 96 % 1019,5 hPa 0,0 mm 0,9 km/h (0 Bft) O-SO 107 0 min 0,000 mm 0,0 UV-I 0 W/m 8,8 C 3,2 km/h (1 Bft)
07.09.2016 06:24 9,4 C 9,4 C 96 % 1019,5 hPa 0,0 mm 2,7 km/h (1 Bft) O 81 0 min 0,000 mm 0,0 UV-I 0 W/m 8,8 C 4,8 km/h (1 Bft)
07.09.2016 06:25 9,4 C 9,4 C 96 % 1019,5 hPa 0,0 mm 3,2 km/h (1 Bft) O 98 0 min 0,000 mm 0,0 UV-I 0 W/m 8,8 C 4,8 km/h (1 Bft)
07.09.2016 06:26 9,4 C 9,4 C 96 % 1019,5 hPa 0,0 mm 2,8 km/h (1 Bft) O-NO 78 0 min 0,000 mm 0,0 UV-I 0 W/m 8,8 C 4,8 km/h (1 Bft)
07.09.2016 06:27 9,4 C 9,4 C 96 % 1019,4 hPa 0,0 mm 3,8 km/h (1 Bft) NO 55 0 min 0,000 mm 0,0 UV-I 0 W/m 8,8 C 4,8 km/h (1 Bft)
07.09.2016 06:28 9,4 C 9,4 C 96 % 1019,4 hPa 0,0 mm 3,8 km/h (1 Bft) NO 49 0 min 0,000 mm 0,0 UV-I 0 W/m 8,8 C 4,8 km/h (1 Bft)
07.09.2016 06:29 9,4 C 9,4 C 96 % 1019,4 hPa 0,0 mm 5,7 km/h (1 Bft) NO 44 0 min 0,000 mm 0,0 UV-I 0 W/m 8,8 C 8,0 km/h (2 Bft)
07.09.2016 06:30 9,4 C 9,4 C 96 % 1019,4 hPa 0,0 mm 4,6 km/h (1 Bft) O-SO 111 0 min 0,000 mm 0,0 UV-I 0 W/m 8,8 C 6,4 km/h (2 Bft)
07.09.2016 06:31 9,4 C 9,4 C 96 % 1019,4 hPa 0,0 mm 2,1 km/h (1 Bft) NO 34 0 min 0,000 mm 0,0 UV-I 0 W/m 8,8 C 4,8 km/h (1 Bft)
07.09.2016 06:32 9,4 C 9,4 C 96 % 1019,5 hPa 0,0 mm 2,1 km/h (1 Bft) SO 146 0 min 0,000 mm 0,0 UV-I 0 W/m 8,8 C 4,8 km/h (1 Bft)
07.09.2016 06:33 9,3 C 9,4 C 96 % 1019,5 hPa 0,0 mm 2,3 km/h (1 Bft) S-SO 157 0 min 0,000 mm 0,0 UV-I 0 W/m 8,7 C 4,8 km/h (1 Bft)
07.09.2016 06:34 9,3 C 9,4 C 96 % 1019,4 hPa 0,0 mm 3,0 km/h (1 Bft) O-NO 73 0 min 0,000 mm 0,0 UV-I 0 W/m 8,7 C 6,4 km/h (2 Bft)
07.09.2016 06:35 9,4 C 9,4 C 96 % 1019,4 hPa 0,0 mm 2,7 km/h (1 Bft) O-NO 73 0 min 0,000 mm 0,0 UV-I 0 W/m 8,8 C 4,8 km/h (1 Bft)
07.09.2016 06:36 9,4 C 9,4 C 96 % 1019,5 hPa 0,0 mm 3,6 km/h (1 Bft) O-NO 58 0 min 0,000 mm 0,0 UV-I 0 W/m 8,8 C 6,4 km/h (2 Bft)
07.09.2016 06:37 9,4 C 9,4 C 96 % 1019,5 hPa 0,0 mm 6,0 km/h (2 Bft) NO 53 0 min 0,000 mm 0,0 UV-I 0 W/m 8,8 C 8,0 km/h (2 Bft)
07.09.2016 06:38 9,3 C 9,4 C 96 % 1019,5 hPa 0,0 mm 3,3 km/h (1 Bft) NO 53 0 min 0,000 mm 0,0 UV-I 0 W/m 8,7 C 4,8 km/h (1 Bft)
07.09.2016 06:39 9,3 C 9,3 C 96 % 1019,5 hPa 0,0 mm 3,5 km/h (1 Bft) NO 46 0 min 0,000 mm 0,0 UV-I 0 W/m 8,7 C 4,8 km/h (1 Bft)
07.09.2016 06:40 9,3 C 9,4 C 96 % 1019,4 hPa 0,0 mm 2,0 km/h (1 Bft) NO 46 0 min 0,000 mm 0,0 UV-I 0 W/m 8,7 C 3,2 km/h (1 Bft)
07.09.2016 06:41 9,3 C 9,3 C 96 % 1019,4 hPa 0,0 mm 1,5 km/h (1 Bft) NO 46 0 min 0,000 mm 0,0 UV-I 0 W/m 8,7 C 3,2 km/h (1 Bft)
07.09.2016 06:42 9,3 C 9,3 C 96 % 1019,4 hPa 0,0 mm 1,3 km/h (1 Bft) NO 46 0 min 0,000 mm 0,0 UV-I 0 W/m 8,7 C 3,2 km/h (1 Bft)
07.09.2016 06:43 9,3 C 9,3 C 96 % 1019,4 hPa 0,0 mm 3,8 km/h (1 Bft) NO 46 0 min 0,000 mm 0,0 UV-I 0 W/m 8,7 C 4,8 km/h (1 Bft)
07.09.2016 06:44 9,3 C 9,3 C 96 % 1019,4 hPa 0,0 mm 3,7 km/h (1 Bft) NO 52 0 min 0,000 mm 0,0 UV-I 0 W/m 8,7 C 6,4 km/h (2 Bft)
07.09.2016 06:45 9,3 C 9,3 C 96 % 1019,4 hPa 0,0 mm 2,7 km/h (1 Bft) NO 52 0 min 0,000 mm 0,0 UV-I 0 W/m 8,7 C 4,8 km/h (1 Bft)
07.09.2016 06:46 9,3 C 9,3 C 96 % 1019,4 hPa 0,0 mm 0,9 km/h (0 Bft) NO 52 0 min 0,000 mm 0,0 UV-I 0 W/m 8,7 C 1,6 km/h (1 Bft)
07.09.2016 06:47 9,3 C 9,3 C 96 % 1019,5 hPa 0,0 mm 0,1 km/h (0 Bft) NO 52 0 min 0,000 mm 0,0 UV-I 0 W/m 8,7 C 1,6 km/h (1 Bft)
07.09.2016 06:48 9,3 C 9,3 C 96 % 1019,5 hPa 0,0 mm 0,9 km/h (0 Bft) NO 52 0 min 0,000 mm 0,0 UV-I 0 W/m 8,7 C 1,6 km/h (1 Bft)
07.09.2016 06:49 9,3 C 9,3 C 96 % 1019,4 hPa 0,0 mm 3,3 km/h (1 Bft) NO 56 0 min 0,000 mm 0,0 UV-I 0 W/m 8,7 C 4,8 km/h (1 Bft)
07.09.2016 06:50 9,3 C 9,4 C 96 % 1019,4 hPa 0,0 mm 2,3 km/h (1 Bft) O 82 0 min 0,000 mm 0,0 UV-I 0 W/m 8,7 C 4,8 km/h (1 Bft)
07.09.2016 06:51 9,3 C 9,3 C 96 % 1019,4 hPa 0,0 mm 1,4 km/h (1 Bft) O-NO 72 0 min 0,000 mm 0,0 UV-I 0 W/m 8,7 C 4,8 km/h (1 Bft)
07.09.2016 06:52 9,3 C 9,4 C 96 % 1019,4 hPa 0,0 mm 3,3 km/h (1 Bft) O-NO 68 0 min 0,000 mm 0,0 UV-I 0 W/m 8,7 C 4,8 km/h (1 Bft)
07.09.2016 06:53 9,3 C 9,3 C 96 % 1019,5 hPa 0,0 mm 3,8 km/h (1 Bft) O 100 0 min 0,000 mm 0,0 UV-I 0 W/m 8,7 C 4,8 km/h (1 Bft)
07.09.2016 06:54 9,3 C 9,3 C 96 % 1019,5 hPa 0,0 mm 2,6 km/h (1 Bft) O 86 0 min 0,000 mm 0,0 UV-I 0 W/m 8,7 C 3,2 km/h (1 Bft)
07.09.2016 06:55 9,3 C 9,3 C 96 % 1019,5 hPa 0,0 mm 2,3 km/h (1 Bft) O 81 0 min 0,000 mm 0,0 UV-I 0 W/m 8,7 C 3,2 km/h (1 Bft)
07.09.2016 06:56 9,3 C 9,3 C 96 % 1019,4 hPa 0,0 mm 3,5 km/h (1 Bft) NO 55 0 min 0,000 mm 0,0 UV-I 0 W/m 8,7 C 4,8 km/h (1 Bft)
07.09.2016 06:57 9,3 C 9,4 C 96 % 1019,4 hPa 0,0 mm 4,9 km/h (1 Bft) NO 56 0 min 0,000 mm 0,0 UV-I 5 W/m 8,7 C 6,4 km/h (2 Bft)
07.09.2016 06:58 9,3 C 9,4 C 96 % 1019,4 hPa 0,0 mm 3,8 km/h (1 Bft) NO 46 0 min 0,000 mm 0,0 UV-I 5 W/m 8,7 C 6,4 km/h (2 Bft)
07.09.2016 06:59 9,3 C 9,3 C 96 % 1019,4 hPa 0,0 mm 4,6 km/h (1 Bft) O-NO 66 0 min 0,000 mm 0,0 UV-I 5 W/m 8,7 C 8,0 km/h (2 Bft)
07.09.2016 07:00 9,3 C 9,3 C 96 % 1019,4 hPa 0,0 mm 4,7 km/h (1 Bft) O-NO 61 0 min 0,000 mm 0,0 UV-I 7 W/m 8,7 C 6,4 km/h (2 Bft)
07.09.2016 07:01 9,3 C 9,3 C 96 % 1019,4 hPa 0,0 mm 3,2 km/h (1 Bft) NO 45 0 min 0,000 mm 0,0 UV-I 7 W/m 8,7 C 4,8 km/h (1 Bft)
07.09.2016 07:02 9,3 C 9,3 C 96 % 1019,5 hPa 0,0 mm 4,4 km/h (1 Bft) O-NO 57 0 min 0,000 mm 0,0 UV-I 9 W/m 8,7 C 6,4 km/h (2 Bft)
07.09.2016 07:03 9,3 C 9,3 C 96 % 1019,5 hPa 0,0 mm 2,9 km/h (1 Bft) O-NO 57 0 min 0,000 mm 0,0 UV-I 11 W/m 8,7 C 4,8 km/h (1 Bft)
07.09.2016 07:04 9,3 C 9,3 C 96 % 1019,4 hPa 0,0 mm 1,3 km/h (1 Bft) O-NO 57 0 min 0,000 mm 0,0 UV-I 11 W/m 8,7 C 1,6 km/h (1 Bft)
07.09.2016 07:05 9,3 C 9,3 C 96 % 1019,4 hPa 0,0 mm 2,7 km/h (1 Bft) O-NO 76 0 min 0,000 mm 0,0 UV-I 12 W/m 8,7 C 4,8 km/h (1 Bft)
07.09.2016 07:06 9,4 C 9,4 C 96 % 1019,4 hPa 0,0 mm 3,4 km/h (1 Bft) O 98 0 min 0,000 mm 0,0 UV-I 14 W/m 8,8 C 4,8 km/h (1 Bft)
07.09.2016 07:07 9,3 C 9,4 C 96 % 1019,4 hPa 0,0 mm 2,5 km/h (1 Bft) SO 130 0 min 0,000 mm 0,0 UV-I 14 W/m 8,7 C 4,8 km/h (1 Bft)
07.09.2016 07:08 9,3 C 9,3 C 96 % 1019,4 hPa 0,0 mm 1,9 km/h (1 Bft) SO 130 0 min 0,000 mm 0,0 UV-I 12 W/m 8,7 C 3,2 km/h (1 Bft)
07.09.2016 07:09 9,3 C 9,3 C 96 % 1019,5 hPa 0,0 mm 1,2 km/h (1 Bft) SO 130 0 min 0,000 mm 0,0 UV-I 11 W/m 8,7 C 3,2 km/h (1 Bft)
07.09.2016 07:10 9,3 C 9,3 C 96 % 1019,3 hPa 0,0 mm 0,4 km/h (0 Bft) SO 130 0 min 0,000 mm 0,0 UV-I 9 W/m 8,7 C 1,6 km/h (1 Bft)
07.09.2016 07:11 9,3 C 9,3 C 96 % 1019,3 hPa 0,0 mm 2,6 km/h (1 Bft) O 87 0 min 0,000 mm 0,0 UV-I 11 W/m 8,7 C 4,8 km/h (1 Bft)
07.09.2016 07:12 9,3 C 9,3 C 96 % 1019,3 hPa 0,0 mm 1,6 km/h (1 Bft) O 85 0 min 0,000 mm 0,0 UV-I 11 W/m 8,7 C 3,2 km/h (1 Bft)
07.09.2016 07:13 9,3 C 9,3 C 96 % 1019,3 hPa 0,0 mm 0,6 km/h (0 Bft) O 85 0 min 0,000 mm 0,0 UV-I 11 W/m 8,7 C 1,6 km/h (1 Bft)
07.09.2016 07:14 9,3 C 9,3 C 96 % 1019,3 hPa 0,0 mm 0,5 km/h (0 Bft) O 85 0 min 0,000 mm 0,0 UV-I 11 W/m 8,7 C 1,6 km/h (1 Bft)
07.09.2016 07:15 9,3 C 9,3 C 96 % 1019,3 hPa 0,0 mm 2,1 km/h (1 Bft) O 85 0 min 0,000 mm 0,0 UV-I 11 W/m 8,7 C 3,2 km/h (1 Bft)
07.09.2016 07:16 9,3 C 9,3 C 96 % 1019,4 hPa 0,0 mm 3,4 km/h (1 Bft) O-NO 64 0 min 0,000 mm 0,0 UV-I 12 W/m 8,7 C 4,8 km/h (1 Bft)
07.09.2016 07:17 9,4 C 9,4 C 96 % 1019,3 hPa 0,0 mm 2,9 km/h (1 Bft) O-NO 72 0 min 0,000 mm 0,0 UV-I 14 W/m 8,8 C 3,2 km/h (1 Bft)
07.09.2016 07:18 9,3 C 9,4 C 96 % 1019,3 hPa 0,0 mm 3,6 km/h (1 Bft) NO 51 0 min 0,000 mm 0,0 UV-I 16 W/m 8,7 C 4,8 km/h (1 Bft)
07.09.2016 07:19 9,3 C 9,3 C 96 % 1019,3 hPa 0,0 mm 2,2 km/h (1 Bft) NO 51 0 min 0,000 mm 0,0 UV-I 12 W/m 8,7 C 3,2 km/h (1 Bft)
07.09.2016 07:20 9,3 C 9,3 C 96 % 1019,3 hPa 0,0 mm 2,4 km/h (1 Bft) O-NO 76 0 min 0,000 mm 0,0 UV-I 14 W/m 8,7 C 4,8 km/h (1 Bft)
07.09.2016 07:21 9,3 C 9,3 C 96 % 1019,3 hPa 0,0 mm 2,9 km/h (1 Bft) NO 34 0 min 0,000 mm 0,0 UV-I 18 W/m 8,7 C 6,4 km/h (2 Bft)
07.09.2016 07:22 9,3 C 9,3 C 96 % 1019,3 hPa 0,0 mm 3,7 km/h (1 Bft) O 86 0 min 0,000 mm 0,0 UV-I 16 W/m 8,7 C 6,4 km/h (2 Bft)
07.09.2016 07:23 9,3 C 9,3 C 96 % 1019,3 hPa 0,0 mm 4,8 km/h (1 Bft) NO 48 0 min 0,000 mm 0,0 UV-I 16 W/m 8,7 C 6,4 km/h (2 Bft)
07.09.2016 07:24 9,3 C 9,3 C 96 % 1019,3 hPa 0,0 mm 4,5 km/h (1 Bft) NO 54 0 min 0,000 mm 0,0 UV-I 19 W/m 8,7 C 6,4 km/h (2 Bft)
07.09.2016 07:25 9,3 C 9,3 C 96 % 1019,3 hPa 0,0 mm 5,8 km/h (2 Bft) O-SO 117 0 min 0,000 mm 0,0 UV-I 19 W/m 8,7 C 11,3 km/h (2 Bft)
07.09.2016 07:26 9,3 C 9,3 C 96 % 1019,3 hPa 0,0 mm 8,2 km/h (2 Bft) SO 128 0 min 0,000 mm 0,0 UV-I 18 W/m 8,7 C 11,3 km/h (2 Bft)
07.09.2016 07:27 9,3 C 9,3 C 96 % 1019,3 hPa 0,0 mm 3,6 km/h (1 Bft) O-NO 76 0 min 0,000 mm 0,0 UV-I 18 W/m 8,7 C 8,0 km/h (2 Bft)
07.09.2016 07:28 9,3 C 9,3 C 96 % 1019,2 hPa 0,0 mm 3,9 km/h (1 Bft) O-NO 65 0 min 0,000 mm 0,0 UV-I 19 W/m 8,7 C 8,0 km/h (2 Bft)
07.09.2016 07:29 9,3 C 9,3 C 96 % 1019,3 hPa 0,0 mm 3,2 km/h (1 Bft) S 181 0 min 0,000 mm 0,0 UV-I 21 W/m 8,7 C 6,4 km/h (2 Bft)
07.09.2016 07:30 9,3 C 9,3 C 96 % 1019,3 hPa 0,0 mm 2,8 km/h (1 Bft) O 83 0 min 0,000 mm 0,0 UV-I 19 W/m 8,7 C 4,8 km/h (1 Bft)
07.09.2016 07:31 9,3 C 9,3 C 96 % 1019,3 hPa 0,0 mm 5,3 km/h (1 Bft) S-SO 149 0 min 0,000 mm 0,0 UV-I 23 W/m 8,7 C 8,0 km/h (2 Bft)
07.09.2016 07:32 9,3 C 9,4 C 96 % 1019,3 hPa 0,0 mm 3,9 km/h (1 Bft) O-NO 59 0 min 0,000 mm 0,0 UV-I 26 W/m 8,7 C 6,4 km/h (2 Bft)
07.09.2016 07:33 9,3 C 9,4 C 96 % 1019,3 hPa 0,0 mm 4,0 km/h (1 Bft) N-NO 30 0 min 0,000 mm 0,0 UV-I 28 W/m 8,7 C 6,4 km/h (2 Bft)
07.09.2016 07:34 9,3 C 9,4 C 96 % 1019,4 hPa 0,0 mm 1,2 km/h (1 Bft) N-NO 31 0 min 0,000 mm 0,0 UV-I 28 W/m 8,7 C 1,6 km/h (1 Bft)
07.09.2016 07:35 9,3 C 9,3 C 96 % 1019,4 hPa 0,0 mm 0,7 km/h (0 Bft) N-NO 31 0 min 0,000 mm 0,0 UV-I 26 W/m 8,7 C 1,6 km/h (1 Bft)
07.09.2016 07:36 9,3 C 9,3 C 96 % 1019,4 hPa 0,0 mm 2,7 km/h (1 Bft) O-NO 61 0 min 0,000 mm 0,0 UV-I 26 W/m 8,7 C 6,4 km/h (2 Bft)
07.09.2016 07:37 9,4 C 9,4 C 96 % 1019,4 hPa 0,0 mm 2,9 km/h (1 Bft) O-NO 78 0 min 0,000 mm 0,0 UV-I 30 W/m 8,8 C 6,4 km/h (2 Bft)
07.09.2016 07:38 9,3 C 9,4 C 96 % 1019,4 hPa 0,0 mm 3,2 km/h (1 Bft) O-NO 69 0 min 0,000 mm 0,0 UV-I 28 W/m 8,7 C 4,8 km/h (1 Bft)
07.09.2016 07:39 9,3 C 9,4 C 96 % 1019,4 hPa 0,0 mm 4,8 km/h (1 Bft) O-NO 67 0 min 0,000 mm 0,0 UV-I 25 W/m 8,7 C 6,4 km/h (2 Bft)
07.09.2016 07:40 9,4 C 9,4 C 96 % 1019,4 hPa 0,0 mm 6,4 km/h (2 Bft) O-NO 70 0 min 0,000 mm 0,0 UV-I 23 W/m 8,8 C 11,3 km/h (2 Bft)
07.09.2016 07:41 9,4 C 9,4 C 96 % 1019,4 hPa 0,0 mm 6,1 km/h (2 Bft) O-NO 63 0 min 0,000 mm 0,0 UV-I 25 W/m 8,8 C 8,0 km/h (2 Bft)
07.09.2016 07:42 9,4 C 9,4 C 96 % 1019,4 hPa 0,0 mm 4,4 km/h (1 Bft) N 5 0 min 0,000 mm 0,0 UV-I 25 W/m 8,8 C 4,8 km/h (1 Bft)
07.09.2016 07:43 9,4 C 9,4 C 96 % 1019,4 hPa 0,0 mm 5,4 km/h (1 Bft) NO 45 0 min 0,000 mm 0,0 UV-I 23 W/m 8,8 C 6,4 km/h (2 Bft)
07.09.2016 07:44 9,4 C 9,4 C 96 % 1019,4 hPa 0,0 mm 3,2 km/h (1 Bft) O-NO 57 0 min 0,000 mm 0,0 UV-I 23 W/m 8,8 C 8,0 km/h (2 Bft)
07.09.2016 07:45 9,4 C 9,4 C 96 % 1019,4 hPa 0,0 mm 10,2 km/h (2 Bft) O 91 0 min 0,000 mm 0,0 UV-I 28 W/m 8,8 C 14,5 km/h (3 Bft)
07.09.2016 07:46 9,4 C 9,4 C 96 % 1019,4 hPa 0,0 mm 2,7 km/h (1 Bft) SO 132 0 min 0,000 mm 0,0 UV-I 30 W/m 8,8 C 4,8 km/h (1 Bft)
07.09.2016 07:47 9,4 C 9,4 C 96 % 1019,4 hPa 0,0 mm 6,4 km/h (2 Bft) O-NO 71 0 min 0,000 mm 0,0 UV-I 32 W/m 8,8 C 8,0 km/h (2 Bft)
07.09.2016 07:48 9,4 C 9,4 C 96 % 1019,3 hPa 0,0 mm 4,2 km/h (1 Bft) O-NO 65 0 min 0,000 mm 0,0 UV-I 33 W/m 8,8 C 9,7 km/h (2 Bft)
07.09.2016 07:49 9,3 C 9,4 C 96 % 1019,3 hPa 0,0 mm 5,4 km/h (1 Bft) O-NO 73 0 min 0,000 mm 0,0 UV-I 35 W/m 8,7 C 8,0 km/h (2 Bft)
07.09.2016 07:50 9,3 C 9,4 C 96 % 1019,3 hPa 0,0 mm 1,6 km/h (1 Bft) O 80 0 min 0,000 mm 0,0 UV-I 33 W/m 8,7 C 4,8 km/h (1 Bft)
07.09.2016 07:51 9,4 C 9,4 C 96 % 1019,3 hPa 0,0 mm 2,1 km/h (1 Bft) O 90 0 min 0,000 mm 0,0 UV-I 32 W/m 8,8 C 3,2 km/h (1 Bft)
07.09.2016 07:52 9,4 C 9,4 C 97 % 1019,3 hPa 0,0 mm 2,9 km/h (1 Bft) O-SO 109 0 min 0,000 mm 0,0 UV-I 37 W/m 8,9 C 4,8 km/h (1 Bft)
07.09.2016 07:53 9,4 C 9,4 C 96 % 1019,3 hPa 0,0 mm 2,2 km/h (1 Bft) O 85 0 min 0,000 mm 0,0 UV-I 42 W/m 8,8 C 4,8 km/h (1 Bft)
07.09.2016 07:54 9,4 C 9,4 C 97 % 1019,3 hPa 0,0 mm 1,3 km/h (1 Bft) O-NO 69 0 min 0,000 mm 0,0 UV-I 37 W/m 8,9 C 3,2 km/h (1 Bft)
07.09.2016 07:55 9,4 C 9,4 C 97 % 1019,3 hPa 0,0 mm 2,1 km/h (1 Bft) O-NO 69 0 min 0,000 mm 0,0 UV-I 35 W/m 8,9 C 3,2 km/h (1 Bft)
07.09.2016 07:56 9,4 C 9,4 C 97 % 1019,4 hPa 0,0 mm 1,3 km/h (1 Bft) O-NO 59 0 min 0,000 mm 0,0 UV-I 35 W/m 8,9 C 3,2 km/h (1 Bft)
07.09.2016 07:57 9,4 C 9,4 C 97 % 1019,4 hPa 0,0 mm 2,6 km/h (1 Bft) O-NO 67 0 min 0,000 mm 0,0 UV-I 37 W/m 8,9 C 4,8 km/h (1 Bft)
07.09.2016 07:58 9,4 C 9,4 C 97 % 1019,3 hPa 0,0 mm 5,6 km/h (1 Bft) O-NO 62 0 min 0,000 mm 0,0 UV-I 39 W/m 8,9 C 8,0 km/h (2 Bft)
07.09.2016 07:59 9,4 C 9,4 C 97 % 1019,4 hPa 0,0 mm 3,4 km/h (1 Bft) O 85 0 min 0,000 mm 0,0 UV-I 33 W/m 8,9 C 6,4 km/h (2 Bft)
07.09.2016 08:00 9,4 C 9,4 C 97 % 1019,3 hPa 0,0 mm 0,7 km/h (0 Bft) O 85 0 min 0,000 mm 0,0 UV-I 35 W/m 8,9 C 1,6 km/h (1 Bft)
07.09.2016 08:01 9,4 C 9,4 C 97 % 1019,4 hPa 0,0 mm 0,5 km/h (0 Bft) O 84 0 min 0,000 mm 0,0 UV-I 37 W/m 8,9 C 3,2 km/h (1 Bft)
07.09.2016 08:02 9,4 C 9,4 C 97 % 1019,4 hPa 0,0 mm 2,3 km/h (1 Bft) NO 52 0 min 0,000 mm 0,0 UV-I 33 W/m 8,9 C 4,8 km/h (1 Bft)
07.09.2016 08:03 9,4 C 9,4 C 97 % 1019,3 hPa 0,0 mm 2,4 km/h (1 Bft) O-NO 71 0 min 0,000 mm 0,0 UV-I 33 W/m 8,9 C 4,8 km/h (1 Bft)
07.09.2016 08:04 9,4 C 9,4 C 97 % 1019,4 hPa 0,0 mm 1,7 km/h (1 Bft) O-NO 77 0 min 0,000 mm 0,0 UV-I 37 W/m 8,9 C 3,2 km/h (1 Bft)
07.09.2016 08:05 9,4 C 9,4 C 97 % 1019,4 hPa 0,0 mm 5,0 km/h (1 Bft) NO 53 0 min 0,000 mm 0,0 UV-I 37 W/m 8,9 C 9,7 km/h (2 Bft)
07.09.2016 08:06 9,4 C 9,4 C 96 % 1019,4 hPa 0,0 mm 5,0 km/h (1 Bft) NO 46 0 min 0,000 mm 0,0 UV-I 37 W/m 8,8 C 9,7 km/h (2 Bft)
07.09.2016 08:07 9,4 C 9,4 C 96 % 1019,4 hPa 0,0 mm 4,6 km/h (1 Bft) O-NO 71 0 min 0,000 mm 0,0 UV-I 44 W/m 8,8 C 8,0 km/h (2 Bft)
07.09.2016 08:08 9,4 C 9,5 C 96 % 1019,3 hPa 0,0 mm 1,8 km/h (1 Bft) NO 55 0 min 0,000 mm 0,0 UV-I 40 W/m 8,8 C 3,2 km/h (1 Bft)
07.09.2016 08:09 9,5 C 9,5 C 97 % 1019,3 hPa 0,0 mm 2,3 km/h (1 Bft) O-NO 61 0 min 0,000 mm 0,0 UV-I 40 W/m 9,0 C 4,8 km/h (1 Bft)
07.09.2016 08:10 9,5 C 9,5 C 96 % 1019,3 hPa 0,0 mm 3,2 km/h (1 Bft) O-NO 71 0 min 0,000 mm 0,0 UV-I 39 W/m 8,9 C 4,8 km/h (1 Bft)
07.09.2016 08:11 9,5 C 9,5 C 96 % 1019,3 hPa 0,0 mm 3,6 km/h (1 Bft) O-NO 65 0 min 0,000 mm 0,0 UV-I 40 W/m 8,9 C 6,4 km/h (2 Bft)
07.09.2016 08:12 9,6 C 9,6 C 96 % 1019,3 hPa 0,0 mm 5,2 km/h (1 Bft) O-NO 76 0 min 0,000 mm 0,0 UV-I 39 W/m 9,0 C 6,4 km/h (2 Bft)
07.09.2016 08:13 9,5 C 9,6 C 96 % 1019,3 hPa 0,0 mm 6,5 km/h (2 Bft) O-NO 77 0 min 0,000 mm 0,0 UV-I 42 W/m 8,9 C 9,7 km/h (2 Bft)
07.09.2016 08:14 9,5 C 9,5 C 96 % 1019,3 hPa 0,0 mm 2,2 km/h (1 Bft) O-NO 72 0 min 0,000 mm 0,0 UV-I 46 W/m 8,9 C 4,8 km/h (1 Bft)
07.09.2016 08:15 9,5 C 9,5 C 96 % 1019,3 hPa 0,0 mm 3,6 km/h (1 Bft) O-NO 58 0 min 0,000 mm 0,0 UV-I 47 W/m 8,9 C 4,8 km/h (1 Bft)
07.09.2016 08:16 9,6 C 9,6 C 96 % 1019,3 hPa 0,0 mm 3,1 km/h (1 Bft) O-NO 58 0 min 0,000 mm 0,0 UV-I 47 W/m 9,0 C 4,8 km/h (1 Bft)
07.09.2016 08:17 9,6 C 9,6 C 96 % 1019,3 hPa 0,0 mm 2,7 km/h (1 Bft) NO 40 0 min 0,000 mm 0,0 UV-I 42 W/m 9,0 C 8,0 km/h (2 Bft)
07.09.2016 08:18 9,6 C 9,6 C 96 % 1019,3 hPa 0,0 mm 6,9 km/h (2 Bft) O-SO 107 0 min 0,000 mm 0,0 UV-I 44 W/m 9,0 C 9,7 km/h (2 Bft)
07.09.2016 08:19 9,6 C 9,6 C 96 % 1019,3 hPa 0,0 mm 4,2 km/h (1 Bft) O-NO 67 0 min 0,000 mm 0,0 UV-I 49 W/m 9,0 C 8,0 km/h (2 Bft)
07.09.2016 08:20 9,5 C 9,6 C 96 % 1019,3 hPa 0,0 mm 2,5 km/h (1 Bft) O 93 0 min 0,000 mm 0,0 UV-I 51 W/m 8,9 C 4,8 km/h (1 Bft)
07.09.2016 08:21 9,6 C 9,6 C 96 % 1019,3 hPa 0,0 mm 0,3 km/h (0 Bft) O 92 0 min 0,000 mm 0,0 UV-I 46 W/m 9,0 C 1,6 km/h (1 Bft)
07.09.2016 08:22 9,6 C 9,6 C 96 % 1019,3 hPa 0,0 mm 4,0 km/h (1 Bft) O-NO 71 0 min 0,000 mm 0,0 UV-I 46 W/m 9,0 C 6,4 km/h (2 Bft)
07.09.2016 08:23 9,6 C 9,6 C 96 % 1019,3 hPa 0,0 mm 4,6 km/h (1 Bft) O-NO 72 0 min 0,000 mm 0,0 UV-I 46 W/m 9,0 C 6,4 km/h (2 Bft)
07.09.2016 08:24 9,6 C 9,6 C 96 % 1019,3 hPa 0,0 mm 3,2 km/h (1 Bft) O-NO 63 0 min 0,000 mm 0,0 UV-I 49 W/m 9,0 C 4,8 km/h (1 Bft)
07.09.2016 08:25 9,6 C 9,6 C 96 % 1019,3 hPa 0,0 mm 3,6 km/h (1 Bft) NO 47 0 min 0,000 mm 0,0 UV-I 58 W/m 9,0 C 6,4 km/h (2 Bft)
07.09.2016 08:26 9,6 C 9,6 C 96 % 1019,3 hPa 0,0 mm 7,5 km/h (2 Bft) O-NO 61 0 min 0,000 mm 0,0 UV-I 54 W/m 9,0 C 11,3 km/h (2 Bft)
07.09.2016 08:27 9,5 C 9,6 C 96 % 1019,3 hPa 0,0 mm 5,8 km/h (2 Bft) O-NO 63 0 min 0,000 mm 0,0 UV-I 54 W/m 8,9 C 8,0 km/h (2 Bft)
07.09.2016 08:28 9,5 C 9,5 C 96 % 1019,3 hPa 0,0 mm 5,9 km/h (2 Bft) NO 51 0 min 0,000 mm 0,0 UV-I 56 W/m 8,9 C 8,0 km/h (2 Bft)
07.09.2016 08:29 9,6 C 9,6 C 96 % 1019,3 hPa 0,0 mm 6,7 km/h (2 Bft) NO 50 0 min 0,000 mm 0,0 UV-I 54 W/m 9,0 C 11,3 km/h (2 Bft)
07.09.2016 08:30 9,6 C 9,6 C 96 % 1019,3 hPa 0,0 mm 4,0 km/h (1 Bft) O 91 0 min 0,000 mm 0,0 UV-I 54 W/m 9,0 C 6,4 km/h (2 Bft)
07.09.2016 08:31 9,4 C 9,6 C 96 % 1019,3 hPa 0,0 mm 4,9 km/h (1 Bft) O-NO 57 0 min 0,000 mm 0,0 UV-I 54 W/m 8,8 C 6,4 km/h (2 Bft)
07.09.2016 08:32 9,5 C 9,5 C 96 % 1019,2 hPa 0,0 mm 4,6 km/h (1 Bft) O 79 0 min 0,000 mm 0,0 UV-I 53 W/m 8,9 C 6,4 km/h (2 Bft)
07.09.2016 08:33 9,6 C 9,6 C 96 % 1019,3 hPa 0,0 mm 6,1 km/h (2 Bft) O 84 0 min 0,000 mm 0,5 UV-I 62 W/m 9,0 C 8,0 km/h (2 Bft)
07.09.2016 08:34 9,6 C 9,6 C 96 % 1019,3 hPa 0,0 mm 6,6 km/h (2 Bft) NO 56 0 min 0,000 mm 0,5 UV-I 72 W/m 9,0 C 8,0 km/h (2 Bft)
07.09.2016 08:35 9,6 C 9,6 C 96 % 1019,2 hPa 0,0 mm 3,6 km/h (1 Bft) N-NO 32 0 min 0,000 mm 0,6 UV-I 77 W/m 9,0 C 4,8 km/h (1 Bft)
07.09.2016 08:36 9,6 C 9,6 C 96 % 1019,2 hPa 0,0 mm 5,1 km/h (1 Bft) O 100 0 min 0,000 mm 0,6 UV-I 83 W/m 9,0 C 9,7 km/h (2 Bft)
07.09.2016 08:37 9,6 C 9,7 C 97 % 1019,2 hPa 0,0 mm 5,2 km/h (1 Bft) O-NO 62 0 min 0,000 mm 0,6 UV-I 84 W/m 9,1 C 9,7 km/h (2 Bft)
07.09.2016 08:38 9,7 C 9,7 C 96 % 1019,1 hPa 0,0 mm 4,4 km/h (1 Bft) O-NO 76 0 min 0,000 mm 0,6 UV-I 93 W/m 9,1 C 6,4 km/h (2 Bft)
07.09.2016 08:39 9,7 C 9,7 C 97 % 1019,1 hPa 0,0 mm 3,0 km/h (1 Bft) O 90 0 min 0,000 mm 0,7 UV-I 102 W/m 9,2 C 11,3 km/h (2 Bft)
07.09.2016 08:40 9,7 C 9,7 C 96 % 1019,1 hPa 0,0 mm 5,6 km/h (1 Bft) NO 53 0 min 0,000 mm 0,7 UV-I 107 W/m 9,1 C 8,0 km/h (2 Bft)
07.09.2016 08:41 9,7 C 9,7 C 97 % 1019,1 hPa 0,0 mm 6,1 km/h (2 Bft) O-NO 62 0 min 0,000 mm 0,7 UV-I 104 W/m 9,2 C 8,0 km/h (2 Bft)
07.09.2016 08:42 9,7 C 9,7 C 97 % 1019,1 hPa 0,0 mm 6,1 km/h (2 Bft) O-NO 69 0 min 0,000 mm 0,7 UV-I 98 W/m 9,2 C 8,0 km/h (2 Bft)
07.09.2016 08:43 9,8 C 9,8 C 97 % 1019,1 hPa 0,0 mm 4,8 km/h (1 Bft) O 82 0 min 0,000 mm 0,7 UV-I 104 W/m 9,3 C 9,7 km/h (2 Bft)
07.09.2016 08:44 9,7 C 9,8 C 97 % 1019,1 hPa 0,0 mm 6,8 km/h (2 Bft) N-NO 26 0 min 0,000 mm 0,7 UV-I 97 W/m 9,2 C 9,7 km/h (2 Bft)
07.09.2016 08:45 9,7 C 9,7 C 97 % 1019,1 hPa 0,0 mm 7,2 km/h (2 Bft) N-NO 26 0 min 0,000 mm 0,8 UV-I 98 W/m 9,2 C 12,9 km/h (3 Bft)
07.09.2016 08:46 9,7 C 9,8 C 97 % 1019,1 hPa 0,0 mm 5,7 km/h (1 Bft) O-NO 63 0 min 0,000 mm 0,8 UV-I 97 W/m 9,2 C 8,0 km/h (2 Bft)
07.09.2016 08:47 9,7 C 9,7 C 97 % 1019,1 hPa 0,0 mm 7,6 km/h (2 Bft) O-NO 67 0 min 0,000 mm 0,8 UV-I 97 W/m 9,2 C 16,1 km/h (3 Bft)
07.09.2016 08:48 9,7 C 9,8 C 97 % 1019,1 hPa 0,0 mm 6,4 km/h (2 Bft) N-NO 30 0 min 0,000 mm 0,8 UV-I 102 W/m 9,2 C 11,3 km/h (2 Bft)
07.09.2016 08:49 9,7 C 9,7 C 97 % 1019,1 hPa 0,0 mm 7,7 km/h (2 Bft) O-NO 70 0 min 0,000 mm 0,8 UV-I 107 W/m 9,2 C 12,9 km/h (3 Bft)
07.09.2016 08:50 9,7 C 9,8 C 97 % 1019,2 hPa 0,0 mm 4,4 km/h (1 Bft) O 82 0 min 0,000 mm 0,9 UV-I 93 W/m 9,2 C 8,0 km/h (2 Bft)
07.09.2016 08:51 9,8 C 9,8 C 97 % 1019,2 hPa 0,0 mm 4,9 km/h (1 Bft) NO 55 0 min 0,000 mm 0,9 UV-I 100 W/m 9,3 C 8,0 km/h (2 Bft)
07.09.2016 08:52 9,8 C 9,8 C 97 % 1019,1 hPa 0,0 mm 8,7 km/h (2 Bft) O 80 0 min 0,000 mm 0,9 UV-I 109 W/m 9,3 C 14,5 km/h (3 Bft)
07.09.2016 08:53 9,7 C 9,8 C 97 % 1019,2 hPa 0,0 mm 7,2 km/h (2 Bft) O-NO 61 0 min 0,000 mm 0,9 UV-I 90 W/m 9,2 C 11,3 km/h (2 Bft)
07.09.2016 08:54 9,8 C 9,8 C 97 % 1019,1 hPa 0,0 mm 5,2 km/h (1 Bft) NO 50 0 min 0,000 mm 0,9 UV-I 93 W/m 9,3 C 12,9 km/h (3 Bft)
07.09.2016 08:55 9,8 C 9,8 C 97 % 1019,2 hPa 0,0 mm 7,8 km/h (2 Bft) NO 55 0 min 0,000 mm 0,9 UV-I 91 W/m 9,3 C 12,9 km/h (3 Bft)
07.09.2016 08:56 9,8 C 9,8 C 97 % 1019,1 hPa 0,0 mm 4,1 km/h (1 Bft) NO 48 0 min 0,000 mm 0,9 UV-I 97 W/m 9,3 C 8,0 km/h (2 Bft)
07.09.2016 08:57 9,8 C 9,8 C 97 % 1019,2 hPa 0,0 mm 4,6 km/h (1 Bft) O-NO 57 0 min 0,000 mm 0,9 UV-I 113 W/m 9,3 C 8,0 km/h (2 Bft)
07.09.2016 08:58 9,8 C 9,8 C 96 % 1019,2 hPa 0,0 mm 4,0 km/h (1 Bft) O-NO 67 0 min 0,000 mm 1,0 UV-I 123 W/m 9,2 C 8,0 km/h (2 Bft)
07.09.2016 08:59 9,9 C 9,9 C 96 % 1019,1 hPa 0,0 mm 3,8 km/h (1 Bft) NO 52 0 min 0,000 mm 0,9 UV-I 114 W/m 9,3 C 8,0 km/h (2 Bft)
07.09.2016 09:00 9,9 C 9,9 C 96 % 1019,2 hPa 0,0 mm 3,1 km/h (1 Bft) O-NO 63 0 min 0,000 mm 0,9 UV-I 102 W/m 9,3 C 4,8 km/h (1 Bft)
07.09.2016 09:01 10,0 C 10,0 C 96 % 1019,2 hPa 0,0 mm 5,1 km/h (1 Bft) NO 51 0 min 0,025 mm 0,9 UV-I 109 W/m 9,4 C 8,0 km/h (2 Bft)
07.09.2016 09:02 10,1 C 10,1 C 96 % 1019,1 hPa 0,0 mm 3,2 km/h (1 Bft) NO 49 0 min 0,000 mm 0,9 UV-I 118 W/m 9,5 C 6,4 km/h (2 Bft)
07.09.2016 09:03 10,1 C 10,1 C 97 % 1019,1 hPa 0,0 mm 1,3 km/h (1 Bft) NO 43 0 min 0,000 mm 0,9 UV-I 102 W/m 9,6 C 4,8 km/h (1 Bft)
07.09.2016 09:04 10,2 C 10,2 C 96 % 1019,2 hPa 0,0 mm 1,9 km/h (1 Bft) NO 44 0 min 0,000 mm 0,9 UV-I 104 W/m 9,6 C 3,2 km/h (1 Bft)
07.09.2016 09:05 10,2 C 10,2 C 96 % 1019,2 hPa 0,0 mm 2,8 km/h (1 Bft) O-NO 69 0 min 0,000 mm 0,8 UV-I 90 W/m 9,6 C 8,0 km/h (2 Bft)
07.09.2016 09:06 10,2 C 10,2 C 96 % 1019,2 hPa 0,0 mm 4,2 km/h (1 Bft) NO 55 0 min 0,000 mm 0,9 UV-I 107 W/m 9,6 C 6,4 km/h (2 Bft)
07.09.2016 09:07 10,2 C 10,2 C 96 % 1019,2 hPa 0,0 mm 3,9 km/h (1 Bft) N-NO 13 0 min 0,000 mm 0,9 UV-I 114 W/m 9,6 C 6,4 km/h (2 Bft)
07.09.2016 09:08 10,2 C 10,2 C 96 % 1019,2 hPa 0,0 mm 4,2 km/h (1 Bft) NO 51 0 min 0,000 mm 0,9 UV-I 125 W/m 9,6 C 4,8 km/h (1 Bft)
07.09.2016 09:09 10,3 C 10,3 C 96 % 1019,1 hPa 0,0 mm 4,8 km/h (1 Bft) O-NO 67 0 min 0,000 mm 0,9 UV-I 130 W/m 9,7 C 6,4 km/h (2 Bft)
07.09.2016 09:10 10,2 C 10,3 C 96 % 1019,1 hPa 0,0 mm 4,5 km/h (1 Bft) O 95 0 min 0,000 mm 0,9 UV-I 130 W/m 9,6 C 6,4 km/h (2 Bft)
07.09.2016 09:11 10,3 C 10,3 C 96 % 1019,1 hPa 0,0 mm 5,1 km/h (1 Bft) O-NO 64 0 min 0,000 mm 0,9 UV-I 135 W/m 9,7 C 8,0 km/h (2 Bft)
07.09.2016 09:12 10,3 C 10,3 C 96 % 1019,1 hPa 0,0 mm 6,6 km/h (2 Bft) O 89 0 min 0,000 mm 0,9 UV-I 127 W/m 9,7 C 11,3 km/h (2 Bft)
07.09.2016 09:13 10,3 C 10,3 C 96 % 1019,1 hPa 0,0 mm 2,7 km/h (1 Bft) O 83 0 min 0,000 mm 0,9 UV-I 123 W/m 9,7 C 6,4 km/h (2 Bft)
07.09.2016 09:14 10,3 C 10,3 C 96 % 1019,1 hPa 0,0 mm 3,1 km/h (1 Bft) O-SO 109 0 min 0,000 mm 1,0 UV-I 141 W/m 9,7 C 4,8 km/h (1 Bft)
07.09.2016 09:15 10,3 C 10,3 C 96 % 1019,0 hPa 0,0 mm 1,4 km/h (1 Bft) O-NO 67 0 min 0,000 mm 0,9 UV-I 148 W/m 9,7 C 3,2 km/h (1 Bft)
07.09.2016 09:16 10,3 C 10,3 C 95 % 1019,1 hPa 0,0 mm 3,0 km/h (1 Bft) O 98 0 min 0,000 mm 0,9 UV-I 137 W/m 9,5 C 4,8 km/h (1 Bft)
07.09.2016 09:17 10,3 C 10,4 C 95 % 1019,1 hPa 0,0 mm 3,0 km/h (1 Bft) NO 55 0 min 0,000 mm 0,9 UV-I 141 W/m 9,5 C 4,8 km/h (1 Bft)
07.09.2016 09:18 10,4 C 10,4 C 95 % 1019,1 hPa 0,0 mm 2,9 km/h (1 Bft) NO 55 0 min 0,000 mm 0,9 UV-I 135 W/m 9,6 C 4,8 km/h (1 Bft)
07.09.2016 09:19 10,4 C 10,4 C 95 % 1019,1 hPa 0,0 mm 1,7 km/h (1 Bft) NO 55 0 min 0,000 mm 0,9 UV-I 146 W/m 9,6 C 3,2 km/h (1 Bft)
07.09.2016 09:20 10,5 C 10,5 C 95 % 1019,1 hPa 0,0 mm 1,2 km/h (1 Bft) O-NO 57 0 min 0,000 mm 1,0 UV-I 144 W/m 9,7 C 3,2 km/h (1 Bft)
07.09.2016 09:21 10,6 C 10,6 C 95 % 1019,2 hPa 0,0 mm 1,6 km/h (1 Bft) N-NO 24 0 min 0,000 mm 1,0 UV-I 128 W/m 9,8 C 8,0 km/h (2 Bft)
07.09.2016 09:22 10,6 C 10,6 C 95 % 1019,1 hPa 0,0 mm 5,8 km/h (2 Bft) N-NO 21 0 min 0,000 mm 1,0 UV-I 125 W/m 9,8 C 8,0 km/h (2 Bft)
07.09.2016 09:23 10,6 C 10,6 C 95 % 1019,1 hPa 0,0 mm 3,5 km/h (1 Bft) N-NO 15 0 min 0,000 mm 1,1 UV-I 142 W/m 9,8 C 4,8 km/h (1 Bft)
07.09.2016 09:24 10,7 C 10,7 C 95 % 1019,1 hPa 0,0 mm 4,8 km/h (1 Bft) O-NO 58 0 min 0,000 mm 1,1 UV-I 148 W/m 9,9 C 6,4 km/h (2 Bft)
07.09.2016 09:25 10,7 C 10,7 C 95 % 1019,1 hPa 0,0 mm 3,1 km/h (1 Bft) NO 55 0 min 0,000 mm 1,0 UV-I 146 W/m 9,9 C 4,8 km/h (1 Bft)
07.09.2016 09:26 10,8 C 10,8 C 94 % 1019,1 hPa 0,0 mm 4,0 km/h (1 Bft) O-NO 76 0 min 0,000 mm 1,1 UV-I 153 W/m 9,9 C 4,8 km/h (1 Bft)
07.09.2016 09:27 10,8 C 10,8 C 94 % 1019,1 hPa 0,0 mm 5,8 km/h (2 Bft) O-NO 69 0 min 0,000 mm 1,1 UV-I 155 W/m 9,9 C 6,4 km/h (2 Bft)
07.09.2016 09:28 10,8 C 10,8 C 94 % 1019,1 hPa 0,0 mm 6,4 km/h (2 Bft) NO 42 0 min 0,000 mm 1,1 UV-I 156 W/m 9,9 C 8,0 km/h (2 Bft)
07.09.2016 09:29 10,8 C 10,8 C 94 % 1019,1 hPa 0,0 mm 2,5 km/h (1 Bft) NO 46 0 min 0,000 mm 1,2 UV-I 156 W/m 9,9 C 6,4 km/h (2 Bft)
07.09.2016 09:30 10,9 C 10,9 C 94 % 1019,1 hPa 0,0 mm 1,2 km/h (1 Bft) NO 46 0 min 0,000 mm 1,2 UV-I 139 W/m 10,0 C 3,2 km/h (1 Bft)
07.09.2016 09:31 10,9 C 10,9 C 94 % 1019,1 hPa 0,0 mm 1,6 km/h (1 Bft) NO 46 0 min 0,000 mm 1,3 UV-I 142 W/m 10,0 C 3,2 km/h (1 Bft)
07.09.2016 09:32 10,9 C 10,9 C 94 % 1019,1 hPa 0,0 mm 2,4 km/h (1 Bft) NO 45 0 min 0,000 mm 1,3 UV-I 144 W/m 10,0 C 4,8 km/h (1 Bft)
07.09.2016 09:33 10,9 C 10,9 C 94 % 1019,2 hPa 0,0 mm 3,7 km/h (1 Bft) O-NO 57 0 min 0,000 mm 1,3 UV-I 137 W/m 10,0 C 6,4 km/h (2 Bft)
07.09.2016 09:34 11,0 C 11,0 C 93 % 1019,1 hPa 0,0 mm 2,1 km/h (1 Bft) O-NO 57 0 min 0,000 mm 1,3 UV-I 121 W/m 9,9 C 6,4 km/h (2 Bft)
07.09.2016 09:35 11,0 C 11,0 C 93 % 1019,1 hPa 0,0 mm 1,7 km/h (1 Bft) O-NO 77 0 min 0,000 mm 1,3 UV-I 123 W/m 9,9 C 4,8 km/h (1 Bft)
07.09.2016 09:36 11,1 C 11,1 C 93 % 1019,2 hPa 0,0 mm 3,0 km/h (1 Bft) O 80 0 min 0,000 mm 1,3 UV-I 134 W/m 10,0 C 4,8 km/h (1 Bft)
07.09.2016 09:37 11,1 C 11,1 C 93 % 1019,2 hPa 0,0 mm 2,6 km/h (1 Bft) O 80 0 min 0,000 mm 1,3 UV-I 148 W/m 10,0 C 3,2 km/h (1 Bft)
07.09.2016 09:38 11,1 C 11,1 C 93 % 1019,2 hPa 0,0 mm 1,3 km/h (1 Bft) O 80 0 min 0,000 mm 1,4 UV-I 174 W/m 10,0 C 3,2 km/h (1 Bft)
07.09.2016 09:39 11,2 C 11,2 C 93 % 1019,2 hPa 0,0 mm 0,2 km/h (0 Bft) O 80 0 min 0,000 mm 1,5 UV-I 204 W/m 10,1 C 1,6 km/h (1 Bft)
07.09.2016 09:40 11,2 C 11,2 C 93 % 1019,2 hPa 0,0 mm 0,1 km/h (0 Bft) O 80 0 min 0,000 mm 1,6 UV-I 243 W/m 10,1 C 1,6 km/h (1 Bft)
07.09.2016 09:41 11,3 C 11,3 C 93 % 1019,2 hPa 0,0 mm 3,0 km/h (1 Bft) O-SO 105 1 min 0,000 mm 1,7 UV-I 265 W/m 10,2 C 4,8 km/h (1 Bft)
07.09.2016 09:42 11,3 C 11,3 C 93 % 1019,2 hPa 0,0 mm 2,0 km/h (1 Bft) O-SO 116 0 min 0,000 mm 1,6 UV-I 213 W/m 10,2 C 3,2 km/h (1 Bft)
07.09.2016 09:43 11,4 C 11,4 C 92 % 1019,2 hPa 0,0 mm 2,9 km/h (1 Bft) S-SO 150 0 min 0,000 mm 1,4 UV-I 169 W/m 10,1 C 3,2 km/h (1 Bft)
07.09.2016 09:44 11,4 C 11,4 C 92 % 1019,2 hPa 0,0 mm 2,3 km/h (1 Bft) S-SO 150 0 min 0,000 mm 1,4 UV-I 167 W/m 10,1 C 3,2 km/h (1 Bft)
07.09.2016 09:45 11,4 C 11,4 C 92 % 1019,2 hPa 0,0 mm 1,8 km/h (1 Bft) S-SO 150 0 min 0,000 mm 1,5 UV-I 169 W/m 10,1 C 3,2 km/h (1 Bft)
07.09.2016 09:46 11,4 C 11,5 C 93 % 1019,2 hPa 0,0 mm 0,6 km/h (0 Bft) S-SO 150 0 min 0,000 mm 1,6 UV-I 190 W/m 10,3 C 1,6 km/h (1 Bft)
07.09.2016 09:47 11,6 C 11,6 C 92 % 1019,2 hPa 0,0 mm 1,0 km/h (0 Bft) S-SO 150 0 min 0,000 mm 2,5 UV-I 190 W/m 10,3 C 3,2 km/h (1 Bft)
07.09.2016 09:48 11,6 C 11,6 C 92 % 1019,2 hPa 0,0 mm 0,2 km/h (0 Bft) S-SO 150 1 min 0,000 mm 2,6 UV-I 490 W/m 10,3 C 1,6 km/h (1 Bft)
07.09.2016 09:49 11,7 C 11,7 C 92 % 1019,2 hPa 0,0 mm 2,1 km/h (1 Bft) O-SO 108 0 min 0,000 mm 1,7 UV-I 216 W/m 10,4 C 3,2 km/h (1 Bft)
07.09.2016 09:50 11,7 C 11,7 C 92 % 1019,2 hPa 0,0 mm 2,6 km/h (1 Bft) O-SO 103 0 min 0,000 mm 1,8 UV-I 227 W/m 10,4 C 3,2 km/h (1 Bft)
07.09.2016 09:51 11,8 C 11,8 C 92 % 1019,3 hPa 0,0 mm 1,4 km/h (1 Bft) O-SO 103 0 min 0,000 mm 1,8 UV-I 255 W/m 10,5 C 1,6 km/h (1 Bft)
07.09.2016 09:52 11,9 C 11,9 C 92 % 1019,3 hPa 0,0 mm 0,2 km/h (0 Bft) O-SO 103 0 min 0,000 mm 1,8 UV-I 213 W/m 10,6 C 1,6 km/h (1 Bft)
07.09.2016 09:53 11,9 C 11,9 C 92 % 1019,3 hPa 0,0 mm 1,7 km/h (1 Bft) S 169 0 min 0,000 mm 1,8 UV-I 267 W/m 10,6 C 3,2 km/h (1 Bft)
07.09.2016 09:54 12,0 C 12,0 C 92 % 1019,3 hPa 0,0 mm 1,2 km/h (1 Bft) S 169 0 min 0,000 mm 1,8 UV-I 230 W/m 10,7 C 3,2 km/h (1 Bft)
07.09.2016 09:55 11,9 C 12,0 C 91 % 1019,2 hPa 0,0 mm 2,7 km/h (1 Bft) S 169 1 min 0,000 mm 1,9 UV-I 292 W/m 10,5 C 3,2 km/h (1 Bft)
07.09.2016 09:56 12,1 C 12,1 C 91 % 1019,2 hPa 0,0 mm 3,4 km/h (1 Bft) S-SO 167 1 min 0,000 mm 2,7 UV-I 292 W/m 10,7 C 6,4 km/h (2 Bft)
07.09.2016 09:57 12,2 C 12,2 C 93 % 1019,2 hPa 0,0 mm 1,5 km/h (1 Bft) S-SO 166 1 min 0,000 mm 2,5 UV-I 292 W/m 11,1 C 4,8 km/h (1 Bft)
07.09.2016 09:58 12,3 C 12,3 C 92 % 1019,2 hPa 0,0 mm 1,1 km/h (1 Bft) S 184 1 min 0,000 mm 2,6 UV-I 292 W/m 11,0 C 3,2 km/h (1 Bft)
07.09.2016 09:59 12,4 C 12,4 C 91 % 1019,2 hPa 0,0 mm 3,1 km/h (1 Bft) S-SW 192 1 min 0,000 mm 2,0 UV-I 492 W/m 11,0 C 4,8 km/h (1 Bft)
07.09.2016 10:00 12,4 C 12,4 C 90 % 1019,2 hPa 0,0 mm 3,1 km/h (1 Bft) S 176 0 min 0,102 mm 2,1 UV-I 193 W/m 10,8 C 4,8 km/h (1 Bft)
07.09.2016 10:01 12,4 C 12,4 C 90 % 1019,2 hPa 0,0 mm 1,5 km/h (1 Bft) S 177 0 min 0,000 mm 1,9 UV-I 239 W/m 10,8 C 3,2 km/h (1 Bft)
07.09.2016 10:02 12,4 C 12,4 C 91 % 1019,2 hPa 0,0 mm 0,1 km/h (0 Bft) S 177 0 min 0,000 mm 1,7 UV-I 162 W/m 11,0 C 1,6 km/h (1 Bft)
07.09.2016 10:03 12,5 C 12,5 C 91 % 1019,2 hPa 0,0 mm 1,0 km/h (0 Bft) S 176 0 min 0,000 mm 1,8 UV-I 179 W/m 11,1 C 1,6 km/h (1 Bft)
07.09.2016 10:04 12,6 C 12,6 C 91 % 1019,2 hPa 0,0 mm 1,5 km/h (1 Bft) S 177 0 min 0,000 mm 1,9 UV-I 237 W/m 11,2 C 3,2 km/h (1 Bft)
07.09.2016 10:05 12,7 C 12,7 C 91 % 1019,2 hPa 0,0 mm 0,7 km/h (0 Bft) S 177 0 min 0,000 mm 1,8 UV-I 142 W/m 11,3 C 1,6 km/h (1 Bft)
07.09.2016 10:06 12,6 C 12,7 C 89 % 1019,2 hPa 0,0 mm 0,5 km/h (0 Bft) S 177 0 min 0,000 mm 1,8 UV-I 155 W/m 10,8 C 1,6 km/h (1 Bft)
07.09.2016 10:07 12,6 C 12,6 C 89 % 1019,2 hPa 0,0 mm 0,8 km/h (0 Bft) S 177 0 min 0,000 mm 1,7 UV-I 144 W/m 10,8 C 1,6 km/h (1 Bft)
07.09.2016 10:08 12,6 C 12,6 C 89 % 1019,3 hPa 0,0 mm 1,8 km/h (1 Bft) S 177 0 min 0,000 mm 1,8 UV-I 155 W/m 10,8 C 4,8 km/h (1 Bft)
07.09.2016 10:09 12,6 C 12,6 C 91 % 1019,2 hPa 0,0 mm 3,2 km/h (1 Bft) S-SW 200 0 min 0,000 mm 1,8 UV-I 148 W/m 11,2 C 4,8 km/h (1 Bft)
07.09.2016 10:10 12,6 C 12,6 C 90 % 1019,2 hPa 0,0 mm 1,7 km/h (1 Bft) S-SW 199 0 min 0,000 mm 1,8 UV-I 169 W/m 11,0 C 3,2 km/h (1 Bft)
07.09.2016 10:11 12,6 C 12,6 C 91 % 1019,2 hPa 0,0 mm 0,7 km/h (0 Bft) S-SW 199 0 min 0,000 mm 2,0 UV-I 171 W/m 11,2 C 1,6 km/h (1 Bft)
07.09.2016 10:12 12,8 C 12,8 C 91 % 1019,2 hPa 0,0 mm 2,2 km/h (1 Bft) S-SW 200 0 min 0,000 mm 2,0 UV-I 188 W/m 11,4 C 3,2 km/h (1 Bft)
07.09.2016 10:13 12,8 C 12,8 C 90 % 1019,3 hPa 0,0 mm 2,2 km/h (1 Bft) S-SW 210 0 min 0,000 mm 2,5 UV-I 188 W/m 11,2 C 3,2 km/h (1 Bft)
07.09.2016 10:14 12,9 C 12,9 C 91 % 1019,3 hPa 0,0 mm 1,5 km/h (1 Bft) S-SW 210 0 min 0,000 mm 3,2 UV-I 188 W/m 11,5 C 1,6 km/h (1 Bft)
07.09.2016 10:15 13,1 C 13,1 C 90 % 1019,3 hPa 0,0 mm 0,1 km/h (0 Bft) S-SW 210 0 min 0,000 mm 2,4 UV-I 188 W/m 11,5 C 1,6 km/h (1 Bft)
07.09.2016 10:16 13,1 C 13,1 C 89 % 1019,2 hPa 0,0 mm 1,3 km/h (1 Bft) S-SW 210 1 min 0,000 mm 2,6 UV-I 454 W/m 11,3 C 3,2 km/h (1 Bft)
07.09.2016 10:17 13,1 C 13,2 C 89 % 1019,3 hPa 0,0 mm 0,2 km/h (0 Bft) S-SW 209 1 min 0,000 mm 2,5 UV-I 404 W/m 11,3 C 1,6 km/h (1 Bft)
07.09.2016 10:18 13,1 C 13,1 C 90 % 1019,2 hPa 0,0 mm 0,9 km/h (0 Bft) S-SW 209 0 min 0,000 mm 2,2 UV-I 167 W/m 11,5 C 1,6 km/h (1 Bft)
07.09.2016 10:19 12,9 C 13,1 C 90 % 1019,2 hPa 0,0 mm 0,7 km/h (0 Bft) S-SW 208 0 min 0,000 mm 2,0 UV-I 186 W/m 11,3 C 1,6 km/h (1 Bft)
07.09.2016 10:20 12,9 C 12,9 C 90 % 1019,3 hPa 0,0 mm 0,4 km/h (0 Bft) S-SW 208 0 min 0,000 mm 3,5 UV-I 186 W/m 11,3 C 1,6 km/h (1 Bft)
07.09.2016 10:21 13,0 C 13,0 C 92 % 1019,2 hPa 0,0 mm 0,7 km/h (0 Bft) S-SW 208 0 min 0,000 mm 3,4 UV-I 186 W/m 11,7 C 1,6 km/h (1 Bft)
07.09.2016 10:22 13,3 C 13,3 C 93 % 1019,2 hPa 0,0 mm 1,8 km/h (1 Bft) N 5 1 min 0,000 mm 3,5 UV-I 613 W/m 12,2 C 6,4 km/h (2 Bft)
07.09.2016 10:23 13,4 C 13,4 C 90 % 1019,2 hPa 0,0 mm 3,8 km/h (1 Bft) N-NW 331 1 min 0,000 mm 2,7 UV-I 613 W/m 11,8 C 6,4 km/h (2 Bft)
07.09.2016 10:24 13,6 C 13,6 C 88 % 1019,2 hPa 0,0 mm 2,0 km/h (1 Bft) SO 129 1 min 0,000 mm 3,4 UV-I 610 W/m 11,6 C 4,8 km/h (1 Bft)
07.09.2016 10:25 13,7 C 13,7 C 87 % 1019,2 hPa 0,0 mm 2,0 km/h (1 Bft) O 95 1 min 0,000 mm 3,2 UV-I 610 W/m 11,6 C 4,8 km/h (1 Bft)
07.09.2016 10:26 13,8 C 13,8 C 86 % 1019,2 hPa 0,0 mm 2,9 km/h (1 Bft) NO 53 1 min 0,000 mm 3,4 UV-I 610 W/m 11,5 C 4,8 km/h (1 Bft)
07.09.2016 10:27 13,8 C 13,8 C 84 % 1019,2 hPa 0,0 mm 3,2 km/h (1 Bft) NO 36 1 min 0,000 mm 3,3 UV-I 610 W/m 11,1 C 6,4 km/h (2 Bft)
07.09.2016 10:28 13,8 C 13,8 C 84 % 1019,2 hPa 0,0 mm 3,2 km/h (1 Bft) N-NW 332 1 min 0,000 mm 3,3 UV-I 610 W/m 11,1 C 4,8 km/h (1 Bft)
07.09.2016 10:29 13,9 C 13,9 C 85 % 1019,2 hPa 0,0 mm 0,8 km/h (0 Bft) N-NW 332 0 min 0,000 mm 2,5 UV-I 272 W/m 11,4 C 3,2 km/h (1 Bft)
07.09.2016 10:30 13,9 C 13,9 C 86 % 1019,2 hPa 0,0 mm 3,7 km/h (1 Bft) O 80 0 min 0,000 mm 2,6 UV-I 227 W/m 11,6 C 6,4 km/h (2 Bft)
07.09.2016 10:31 13,9 C 13,9 C 85 % 1019,2 hPa 0,0 mm 2,8 km/h (1 Bft) NO 51 0 min 0,000 mm 3,1 UV-I 227 W/m 11,4 C 4,8 km/h (1 Bft)
07.09.2016 10:32 13,8 C 13,9 C 83 % 1019,2 hPa 0,0 mm 1,0 km/h (0 Bft) NO 51 0 min 0,000 mm 3,7 UV-I 227 W/m 11,0 C 3,2 km/h (1 Bft)
07.09.2016 10:33 13,8 C 13,8 C 83 % 1019,2 hPa 0,0 mm 0,1 km/h (0 Bft) NO 51 0 min 0,000 mm 3,7 UV-I 227 W/m 11,0 C 1,6 km/h (1 Bft)
07.09.2016 10:34 13,9 C 13,9 C 84 % 1019,2 hPa 0,0 mm 1,4 km/h (1 Bft) NO 46 1 min 0,000 mm 3,7 UV-I 598 W/m 11,2 C 3,2 km/h (1 Bft)
07.09.2016 10:35 14,1 C 14,1 C 84 % 1019,2 hPa 0,0 mm 3,0 km/h (1 Bft) O 82 1 min 0,000 mm 3,7 UV-I 598 W/m 11,4 C 6,4 km/h (2 Bft)
07.09.2016 10:36 14,1 C 14,1 C 84 % 1019,2 hPa 0,0 mm 5,4 km/h (1 Bft) N-NO 19 1 min 0,000 mm 3,2 UV-I 598 W/m 11,4 C 6,4 km/h (2 Bft)
07.09.2016 10:37 14,1 C 14,1 C 84 % 1019,3 hPa 0,0 mm 1,9 km/h (1 Bft) NO 48 1 min 0,000 mm 2,7 UV-I 598 W/m 11,4 C 3,2 km/h (1 Bft)
07.09.2016 10:38 14,2 C 14,2 C 84 % 1019,3 hPa 0,0 mm 5,3 km/h (1 Bft) O-NO 65 0 min 0,000 mm 3,1 UV-I 220 W/m 11,5 C 8,0 km/h (2 Bft)
07.09.2016 10:39 14,2 C 14,2 C 85 % 1019,3 hPa 0,0 mm 3,9 km/h (1 Bft) S-SO 151 0 min 0,000 mm 3,1 UV-I 220 W/m 11,7 C 4,8 km/h (1 Bft)
07.09.2016 10:40 14,1 C 14,2 C 83 % 1019,3 hPa 0,0 mm 4,0 km/h (1 Bft) SO 128 0 min 0,000 mm 3,1 UV-I 220 W/m 11,3 C 4,8 km/h (1 Bft)
07.09.2016 10:41 14,1 C 14,1 C 83 % 1019,3 hPa 0,0 mm 3,1 km/h (1 Bft) O 82 1 min 0,000 mm 3,8 UV-I 612 W/m 11,3 C 4,8 km/h (1 Bft)
07.09.2016 10:42 14,2 C 14,2 C 84 % 1019,3 hPa 0,0 mm 1,0 km/h (0 Bft) O 82 1 min 0,000 mm 3,7 UV-I 543 W/m 11,5 C 1,6 km/h (1 Bft)
07.09.2016 10:43 14,4 C 14,4 C 86 % 1019,3 hPa 0,0 mm 0,9 km/h (0 Bft) O 82 1 min 0,000 mm 3,5 UV-I 543 W/m 12,1 C 3,2 km/h (1 Bft)
07.09.2016 10:44 14,6 C 14,6 C 84 % 1019,3 hPa 0,0 mm 0,9 km/h (0 Bft) O 82 1 min 0,000 mm 3,3 UV-I 543 W/m 11,9 C 1,6 km/h (1 Bft)
07.09.2016 10:45 14,7 C 14,7 C 85 % 1019,3 hPa 0,0 mm 0,3 km/h (0 Bft) O 82 1 min 0,000 mm 3,4 UV-I 543 W/m 12,2 C 1,6 km/h (1 Bft)
07.09.2016 10:46 14,6 C 14,7 C 82 % 1019,3 hPa 0,0 mm 1,5 km/h (1 Bft) O 80 1 min 0,000 mm 3,1 UV-I 466 W/m 11,6 C 3,2 km/h (1 Bft)
07.09.2016 10:47 14,6 C 14,6 C 85 % 1019,2 hPa 0,0 mm 1,2 km/h (1 Bft) O 80 0 min 0,000 mm 2,8 UV-I 272 W/m 12,1 C 1,6 km/h (1 Bft)
07.09.2016 10:48 14,6 C 14,6 C 83 % 1019,3 hPa 0,0 mm 2,0 km/h (1 Bft) O-NO 76 0 min 0,000 mm 3,8 UV-I 272 W/m 11,7 C 3,2 km/h (1 Bft)
07.09.2016 10:49 14,4 C 14,6 C 83 % 1019,3 hPa 0,0 mm 2,9 km/h (1 Bft) O-SO 109 0 min 0,000 mm 4,0 UV-I 272 W/m 11,5 C 6,4 km/h (2 Bft)
07.09.2016 10:50 14,3 C 14,4 C 82 % 1019,2 hPa 0,0 mm 3,2 km/h (1 Bft) O-SO 109 1 min 0,000 mm 4,0 UV-I 589 W/m 11,3 C 4,8 km/h (1 Bft)
07.09.2016 10:51 14,4 C 14,4 C 85 % 1019,3 hPa 0,0 mm 2,9 km/h (1 Bft) O-NO 70 1 min 0,000 mm 4,0 UV-I 629 W/m 11,9 C 4,8 km/h (1 Bft)
07.09.2016 10:52 14,5 C 14,5 C 84 % 1019,2 hPa 0,0 mm 3,5 km/h (1 Bft) N-NO 33 1 min 0,000 mm 3,9 UV-I 603 W/m 11,8 C 4,8 km/h (1 Bft)
07.09.2016 10:53 14,6 C 14,6 C 82 % 1019,2 hPa 0,0 mm 3,0 km/h (1 Bft) O-NO 69 1 min 0,000 mm 3,2 UV-I 512 W/m 11,6 C 6,4 km/h (2 Bft)
07.09.2016 10:54 14,7 C 14,7 C 81 % 1019,2 hPa 0,0 mm 6,2 km/h (2 Bft) SO 132 1 min 0,000 mm 3,9 UV-I 605 W/m 11,5 C 8,0 km/h (2 Bft)
07.09.2016 10:55 14,7 C 14,7 C 81 % 1019,3 hPa 0,0 mm 3,9 km/h (1 Bft) O-SO 111 1 min 0,000 mm 3,9 UV-I 515 W/m 11,5 C 4,8 km/h (1 Bft)
07.09.2016 10:56 14,8 C 14,8 C 81 % 1019,2 hPa 0,0 mm 2,6 km/h (1 Bft) O-SO 111 1 min 0,000 mm 4,0 UV-I 601 W/m 11,6 C 4,8 km/h (1 Bft)
07.09.2016 10:57 14,8 C 14,8 C 83 % 1019,2 hPa 0,0 mm 2,5 km/h (1 Bft) O-NO 76 1 min 0,000 mm 4,1 UV-I 626 W/m 11,9 C 3,2 km/h (1 Bft)
07.09.2016 10:58 14,9 C 14,9 C 84 % 1019,2 hPa 0,0 mm 4,8 km/h (1 Bft) O 96 1 min 0,000 mm 3,6 UV-I 626 W/m 12,2 C 8,0 km/h (2 Bft)
07.09.2016 10:59 14,9 C 14,9 C 82 % 1019,3 hPa 0,0 mm 5,0 km/h (1 Bft) O-NO 63 1 min 0,000 mm 4,1 UV-I 622 W/m 11,9 C 8,0 km/h (2 Bft)
07.09.2016 11:00 15,1 C 15,1 C 82 % 1019,3 hPa 0,0 mm 4,6 km/h (1 Bft) O-SO 109 1 min 0,000 mm 4,1 UV-I 612 W/m 12,0 C 8,0 km/h (2 Bft)
07.09.2016 11:01 15,1 C 15,1 C 81 % 1019,3 hPa 0,0 mm 5,8 km/h (2 Bft) SO 127 1 min 0,229 mm 4,1 UV-I 635 W/m 11,9 C 8,0 km/h (2 Bft)
07.09.2016 11:02 15,0 C 15,1 C 80 % 1019,3 hPa 0,0 mm 4,8 km/h (1 Bft) S-SO 151 1 min 0,000 mm 4,1 UV-I 629 W/m 11,6 C 6,4 km/h (2 Bft)
07.09.2016 11:03 14,9 C 15,0 C 80 % 1019,2 hPa 0,0 mm 3,2 km/h (1 Bft) S-SO 148 1 min 0,000 mm 4,2 UV-I 626 W/m 11,5 C 6,4 km/h (2 Bft)
07.09.2016 11:04 14,9 C 14,9 C 82 % 1019,3 hPa 0,0 mm 1,9 km/h (1 Bft) S-SO 162 1 min 0,000 mm 4,2 UV-I 591 W/m 11,9 C 3,2 km/h (1 Bft)
07.09.2016 11:05 15,0 C 15,0 C 80 % 1019,3 hPa 0,0 mm 0,9 km/h (0 Bft) S-SO 162 1 min 0,000 mm 4,2 UV-I 631 W/m 11,6 C 1,6 km/h (1 Bft)
07.09.2016 11:06 15,0 C 15,0 C 81 % 1019,3 hPa 0,0 mm 2,0 km/h (1 Bft) W 273 1 min 0,000 mm 4,2 UV-I 635 W/m 11,8 C 3,2 km/h (1 Bft)
07.09.2016 11:07 15,1 C 15,1 C 84 % 1019,3 hPa 0,0 mm 2,9 km/h (1 Bft) W-NW 284 1 min 0,000 mm 4,3 UV-I 633 W/m 12,4 C 3,2 km/h (1 Bft)
07.09.2016 11:08 15,4 C 15,4 C 83 % 1019,3 hPa 0,0 mm 2,5 km/h (1 Bft) N 355 1 min 0,000 mm 4,3 UV-I 635 W/m 12,5 C 4,8 km/h (1 Bft)
07.09.2016 11:09 15,7 C 15,7 C 82 % 1019,3 hPa 0,0 mm 3,0 km/h (1 Bft) O 89 1 min 0,000 mm 4,3 UV-I 636 W/m 12,6 C 4,8 km/h (1 Bft)
07.09.2016 11:10 15,7 C 15,7 C 82 % 1019,4 hPa 0,0 mm 3,4 km/h (1 Bft) O 101 1 min 0,000 mm 4,3 UV-I 635 W/m 12,6 C 4,8 km/h (1 Bft)
07.09.2016 11:11 15,7 C 15,7 C 78 % 1019,3 hPa 0,0 mm 0,5 km/h (0 Bft) O 101 1 min 0,000 mm 4,3 UV-I 636 W/m 11,9 C 1,6 km/h (1 Bft)
07.09.2016 11:12 15,7 C 15,7 C 79 % 1019,3 hPa 0,0 mm 2,0 km/h (1 Bft) O-NO 76 1 min 0,000 mm 4,4 UV-I 638 W/m 12,1 C 4,8 km/h (1 Bft)
07.09.2016 11:13 15,9 C 15,9 C 84 % 1019,3 hPa 0,0 mm 5,2 km/h (1 Bft) O-NO 76 1 min 0,000 mm 4,4 UV-I 643 W/m 13,2 C 8,0 km/h (2 Bft)
07.09.2016 11:14 15,9 C 15,9 C 78 % 1019,3 hPa 0,0 mm 2,5 km/h (1 Bft) O 82 1 min 0,000 mm 4,4 UV-I 645 W/m 12,1 C 4,8 km/h (1 Bft)
07.09.2016 11:15 15,9 C 15,9 C 78 % 1019,3 hPa 0,0 mm 0,7 km/h (0 Bft) O 84 1 min 0,000 mm 4,4 UV-I 645 W/m 12,1 C 1,6 km/h (1 Bft)
07.09.2016 11:16 15,8 C 15,9 C 78 % 1019,2 hPa 0,0 mm 0,5 km/h (0 Bft) O 84 1 min 0,000 mm 4,4 UV-I 647 W/m 12,0 C 1,6 km/h (1 Bft)
07.09.2016 11:17 15,7 C 15,8 C 79 % 1019,2 hPa 0,0 mm 0,1 km/h (0 Bft) O 84 1 min 0,000 mm 4,5 UV-I 649 W/m 12,1 C 1,6 km/h (1 Bft)
07.09.2016 11:18 15,6 C 15,7 C 80 % 1019,2 hPa 0,0 mm 2,4 km/h (1 Bft) N-NO 16 1 min 0,000 mm 4,5 UV-I 656 W/m 12,2 C 3,2 km/h (1 Bft)
07.09.2016 11:19 15,7 C 15,7 C 82 % 1019,2 hPa 0,0 mm 4,0 km/h (1 Bft) O-NO 71 1 min 0,000 mm 4,5 UV-I 652 W/m 12,6 C 4,8 km/h (1 Bft)
07.09.2016 11:20 15,9 C 15,9 C 80 % 1019,2 hPa 0,0 mm 3,1 km/h (1 Bft) O-NO 74 1 min 0,000 mm 4,5 UV-I 654 W/m 12,5 C 4,8 km/h (1 Bft)
07.09.2016 11:21 15,9 C 15,9 C 83 % 1019,2 hPa 0,0 mm 3,6 km/h (1 Bft) SO 144 1 min 0,000 mm 4,5 UV-I 656 W/m 13,0 C 4,8 km/h (1 Bft)
07.09.2016 11:22 15,9 C 15,9 C 77 % 1019,2 hPa 0,0 mm 2,9 km/h (1 Bft) SO 136 1 min 0,000 mm 4,5 UV-I 652 W/m 11,9 C 4,8 km/h (1 Bft)
07.09.2016 11:23 15,8 C 15,9 C 78 % 1019,2 hPa 0,0 mm 1,0 km/h (0 Bft) SO 136 1 min 0,000 mm 4,5 UV-I 657 W/m 12,0 C 3,2 km/h (1 Bft)
07.09.2016 11:24 15,9 C 15,9 C 78 % 1019,2 hPa 0,0 mm 1,1 km/h (1 Bft) SO 136 1 min 0,000 mm 4,6 UV-I 663 W/m 12,1 C 1,6 km/h (1 Bft)
07.09.2016 11:25 15,9 C 15,9 C 78 % 1019,1 hPa 0,0 mm 2,6 km/h (1 Bft) S-SO 160 1 min 0,000 mm 4,6 UV-I 663 W/m 12,1 C 3,2 km/h (1 Bft)
07.09.2016 11:26 16,0 C 16,0 C 78 % 1019,1 hPa 0,0 mm 1,8 km/h (1 Bft) S-SO 160 1 min 0,000 mm 4,7 UV-I 666 W/m 12,2 C 3,2 km/h (1 Bft)
07.09.2016 11:27 15,9 C 16,0 C 79 % 1019,1 hPa 0,0 mm 1,3 km/h (1 Bft) S-SO 160 1 min 0,000 mm 4,7 UV-I 668 W/m 12,3 C 1,6 km/h (1 Bft)
07.09.2016 11:28 16,0 C 16,0 C 80 % 1019,1 hPa 0,0 mm 0,4 km/h (0 Bft) S-SO 160 1 min 0,000 mm 4,7 UV-I 668 W/m 12,5 C 1,6 km/h (1 Bft)
07.09.2016 11:29 15,9 C 16,0 C 81 % 1019,1 hPa 0,0 mm 1,9 km/h (1 Bft) SO 142 1 min 0,000 mm 4,7 UV-I 670 W/m 12,6 C 3,2 km/h (1 Bft)
07.09.2016 11:30 15,8 C 15,9 C 78 % 1019,1 hPa 0,0 mm 6,0 km/h (2 Bft) SO 137 1 min 0,000 mm 4,7 UV-I 671 W/m 12,0 C 6,4 km/h (2 Bft)
07.09.2016 11:31 15,8 C 15,8 C 80 % 1019,1 hPa 0,0 mm 3,3 km/h (1 Bft) SO 125 1 min 0,000 mm 4,7 UV-I 673 W/m 12,4 C 4,8 km/h (1 Bft)
07.09.2016 11:32 15,8 C 15,8 C 79 % 1019,1 hPa 0,0 mm 5,1 km/h (1 Bft) O-SO 117 1 min 0,000 mm 4,7 UV-I 673 W/m 12,2 C 9,7 km/h (2 Bft)
07.09.2016 11:33 15,8 C 15,8 C 78 % 1019,1 hPa 0,0 mm 3,7 km/h (1 Bft) S-SO 150 1 min 0,000 mm 4,8 UV-I 677 W/m 12,0 C 4,8 km/h (1 Bft)
07.09.2016 11:34 15,8 C 15,8 C 79 % 1019,1 hPa 0,0 mm 3,1 km/h (1 Bft) SO 146 1 min 0,000 mm 4,8 UV-I 675 W/m 12,2 C 4,8 km/h (1 Bft)
07.09.2016 11:35 15,8 C 15,8 C 78 % 1019,1 hPa 0,0 mm 2,9 km/h (1 Bft) N-NO 32 1 min 0,000 mm 4,8 UV-I 677 W/m 12,0 C 6,4 km/h (2 Bft)
07.09.2016 11:36 15,9 C 15,9 C 79 % 1019,2 hPa 0,0 mm 4,7 km/h (1 Bft) O-NO 63 1 min 0,000 mm 4,8 UV-I 675 W/m 12,3 C 6,4 km/h (2 Bft)
07.09.2016 11:37 16,1 C 16,1 C 78 % 1019,1 hPa 0,0 mm 5,1 km/h (1 Bft) O-NO 57 1 min 0,000 mm 4,8 UV-I 679 W/m 12,3 C 8,0 km/h (2 Bft)
07.09.2016 11:38 16,1 C 16,1 C 78 % 1019,1 hPa 0,0 mm 4,5 km/h (1 Bft) O-NO 73 1 min 0,000 mm 4,8 UV-I 680 W/m 12,3 C 6,4 km/h (2 Bft)
07.09.2016 11:39 16,0 C 16,1 C 77 % 1019,1 hPa 0,0 mm 3,6 km/h (1 Bft) O-NO 78 1 min 0,000 mm 4,8 UV-I 684 W/m 12,0 C 4,8 km/h (1 Bft)
07.09.2016 11:40 16,0 C 16,1 C 80 % 1019,2 hPa 0,0 mm 3,5 km/h (1 Bft) O-NO 77 1 min 0,000 mm 4,9 UV-I 686 W/m 12,5 C 4,8 km/h (1 Bft)
07.09.2016 11:41 15,9 C 16,0 C 77 % 1019,1 hPa 0,0 mm 3,6 km/h (1 Bft) O-SO 122 1 min 0,000 mm 4,9 UV-I 689 W/m 11,9 C 4,8 km/h (1 Bft)
07.09.2016 11:42 16,0 C 16,0 C 79 % 1019,1 hPa 0,0 mm 2,7 km/h (1 Bft) SO 130 1 min 0,000 mm 4,9 UV-I 687 W/m 12,4 C 4,8 km/h (1 Bft)
07.09.2016 11:43 16,0 C 16,0 C 78 % 1019,1 hPa 0,0 mm 3,9 km/h (1 Bft) S 176 1 min 0,000 mm 4,9 UV-I 691 W/m 12,2 C 4,8 km/h (1 Bft)
07.09.2016 11:44 16,1 C 16,1 C 78 % 1019,1 hPa 0,0 mm 3,4 km/h (1 Bft) S 182 1 min 0,000 mm 4,9 UV-I 691 W/m 12,3 C 6,4 km/h (2 Bft)
07.09.2016 11:45 16,2 C 16,2 C 79 % 1019,1 hPa 0,0 mm 5,0 km/h (1 Bft) S 173 1 min 0,000 mm 4,9 UV-I 691 W/m 12,6 C 6,4 km/h (2 Bft)
07.09.2016 11:46 16,3 C 16,3 C 79 % 1019,1 hPa 0,0 mm 1,6 km/h (1 Bft) S 173 1 min 0,000 mm 4,9 UV-I 693 W/m 12,6 C 1,6 km/h (1 Bft)
07.09.2016 11:47 16,3 C 16,4 C 79 % 1019,2 hPa 0,0 mm 2,0 km/h (1 Bft) S 175 1 min 0,000 mm 4,9 UV-I 689 W/m 12,6 C 3,2 km/h (1 Bft)
07.09.2016 11:48 16,5 C 16,5 C 77 % 1019,1 hPa 0,0 mm 3,5 km/h (1 Bft) S-SW 209 1 min 0,000 mm 4,9 UV-I 689 W/m 12,5 C 4,8 km/h (1 Bft)
07.09.2016 11:49 16,7 C 16,7 C 78 % 1019,1 hPa 0,0 mm 3,4 km/h (1 Bft) W-SW 245 1 min 0,000 mm 5,0 UV-I 693 W/m 12,8 C 4,8 km/h (1 Bft)
07.09.2016 11:50 16,7 C 16,7 C 77 % 1019,1 hPa 0,0 mm 3,2 km/h (1 Bft) W-SW 245 1 min 0,000 mm 5,0 UV-I 693 W/m 12,6 C 3,2 km/h (1 Bft)
07.09.2016 11:51 16,8 C 16,8 C 78 % 1019,1 hPa 0,0 mm 2,7 km/h (1 Bft) W-SW 245 1 min 0,000 mm 5,0 UV-I 698 W/m 12,9 C 3,2 km/h (1 Bft)
07.09.2016 11:52 17,1 C 17,1 C 82 % 1019,1 hPa 0,0 mm 1,0 km/h (0 Bft) W-SW 244 1 min 0,000 mm 5,1 UV-I 698 W/m 14,0 C 3,2 km/h (1 Bft)
07.09.2016 11:53 17,2 C 17,2 C 80 % 1019,1 hPa 0,0 mm 2,6 km/h (1 Bft) N 355 1 min 0,000 mm 5,1 UV-I 698 W/m 13,7 C 4,8 km/h (1 Bft)
07.09.2016 11:54 17,3 C 17,3 C 76 % 1019,1 hPa 0,0 mm 2,1 km/h (1 Bft) NW 316 1 min 0,000 mm 5,1 UV-I 700 W/m 13,0 C 4,8 km/h (1 Bft)
07.09.2016 11:55 17,3 C 17,3 C 75 % 1019,1 hPa 0,0 mm 3,3 km/h (1 Bft) NW 316 1 min 0,000 mm 5,1 UV-I 700 W/m 12,8 C 4,8 km/h (1 Bft)
07.09.2016 11:56 17,2 C 17,3 C 76 % 1019,0 hPa 0,0 mm 4,6 km/h (1 Bft) W-NW 301 1 min 0,000 mm 5,1 UV-I 701 W/m 12,9 C 6,4 km/h (2 Bft)
07.09.2016 11:57 17,2 C 17,2 C 76 % 1019,1 hPa 0,0 mm 5,6 km/h (1 Bft) NW 305 1 min 0,000 mm 5,1 UV-I 703 W/m 12,9 C 6,4 km/h (2 Bft)
07.09.2016 11:58 17,1 C 17,2 C 75 % 1019,1 hPa 0,0 mm 4,8 km/h (1 Bft) N-NW 330 1 min 0,000 mm 5,1 UV-I 705 W/m 12,6 C 6,4 km/h (2 Bft)
07.09.2016 11:59 17,1 C 17,1 C 79 % 1019,0 hPa 0,0 mm 4,8 km/h (1 Bft) NW 313 1 min 0,000 mm 5,2 UV-I 707 W/m 13,4 C 6,4 km/h (2 Bft)
07.09.2016 12:00 17,2 C 17,2 C 76 % 1019,0 hPa 0,0 mm 4,6 km/h (1 Bft) NW 310 1 min 0,000 mm 5,2 UV-I 708 W/m 12,9 C 4,8 km/h (1 Bft)
07.09.2016 12:01 17,3 C 17,3 C 79 % 1019,0 hPa 0,0 mm 4,0 km/h (1 Bft) N-NW 341 1 min 0,355 mm 5,2 UV-I 707 W/m 13,6 C 4,8 km/h (1 Bft)
07.09.2016 12:02 17,5 C 17,5 C 77 % 1019,0 hPa 0,0 mm 3,4 km/h (1 Bft) N-NW 327 1 min 0,000 mm 5,2 UV-I 707 W/m 13,4 C 4,8 km/h (1 Bft)
07.09.2016 12:03 17,5 C 17,5 C 74 % 1018,9 hPa 0,0 mm 2,1 km/h (1 Bft) N-NW 340 1 min 0,000 mm 5,2 UV-I 708 W/m 12,8 C 3,2 km/h (1 Bft)
07.09.2016 12:04 17,4 C 17,5 C 74 % 1019,0 hPa 0,0 mm 1,3 km/h (1 Bft) N-NW 340 1 min 0,000 mm 5,2 UV-I 708 W/m 12,7 C 3,2 km/h (1 Bft)
07.09.2016 12:05 17,4 C 17,4 C 74 % 1019,0 hPa 0,0 mm 4,1 km/h (1 Bft) O-NO 61 1 min 0,000 mm 5,2 UV-I 708 W/m 12,7 C 8,0 km/h (2 Bft)
07.09.2016 12:06 17,2 C 17,4 C 73 % 1019,0 hPa 0,0 mm 4,1 km/h (1 Bft) O 101 1 min 0,000 mm 5,2 UV-I 712 W/m 12,3 C 6,4 km/h (2 Bft)
07.09.2016 12:07 17,1 C 17,2 C 73 % 1019,0 hPa 0,0 mm 2,2 km/h (1 Bft) O 101 1 min 0,000 mm 5,2 UV-I 712 W/m 12,2 C 4,8 km/h (1 Bft)
07.09.2016 12:08 17,1 C 17,1 C 74 % 1018,9 hPa 0,0 mm 1,4 km/h (1 Bft) O 101 1 min 0,000 mm 5,2 UV-I 714 W/m 12,4 C 3,2 km/h (1 Bft)
07.09.2016 12:09 17,1 C 17,1 C 77 % 1019,0 hPa 0,0 mm 1,1 km/h (1 Bft) O 101 1 min 0,000 mm 5,3 UV-I 715 W/m 13,0 C 3,2 km/h (1 Bft)
07.09.2016 12:10 17,2 C 17,2 C 74 % 1018,9 hPa 0,0 mm 0,4 km/h (0 Bft) O 101 1 min 0,000 mm 5,3 UV-I 715 W/m 12,5 C 1,6 km/h (1 Bft)
07.09.2016 12:11 17,2 C 17,2 C 81 % 1018,9 hPa 0,0 mm 2,6 km/h (1 Bft) SO 144 1 min 0,000 mm 5,3 UV-I 717 W/m 13,9 C 3,2 km/h (1 Bft)
07.09.2016 12:12 17,1 C 17,2 C 76 % 1018,9 hPa 0,0 mm 0,8 km/h (0 Bft) SO 144 1 min 0,000 mm 5,3 UV-I 717 W/m 12,8 C 1,6 km/h (1 Bft)
07.09.2016 12:13 17,1 C 17,1 C 77 % 1018,9 hPa 0,0 mm 4,1 km/h (1 Bft) O 90 1 min 0,000 mm 5,3 UV-I 719 W/m 13,0 C 6,4 km/h (2 Bft)
07.09.2016 12:14 17,2 C 17,2 C 79 % 1018,8 hPa 0,0 mm 2,3 km/h (1 Bft) NO 51 1 min 0,000 mm 5,3 UV-I 721 W/m 13,5 C 6,4 km/h (2 Bft)
07.09.2016 12:15 17,2 C 17,2 C 75 % 1018,8 hPa 0,0 mm 5,0 km/h (1 Bft) N 355 1 min 0,000 mm 5,3 UV-I 721 W/m 12,7 C 8,0 km/h (2 Bft)
07.09.2016 12:16 17,4 C 17,4 C 75 % 1018,8 hPa 0,0 mm 3,4 km/h (1 Bft) N-NO 24 1 min 0,000 mm 5,3 UV-I 721 W/m 12,9 C 4,8 km/h (1 Bft)
07.09.2016 12:17 17,5 C 17,5 C 76 % 1018,8 hPa 0,0 mm 4,0 km/h (1 Bft) N 360 1 min 0,000 mm 5,3 UV-I 721 W/m 13,2 C 6,4 km/h (2 Bft)
07.09.2016 12:18 17,6 C 17,6 C 74 % 1018,8 hPa 0,0 mm 4,6 km/h (1 Bft) N 355 1 min 0,000 mm 5,3 UV-I 722 W/m 12,9 C 6,4 km/h (2 Bft)
07.09.2016 12:19 17,7 C 17,7 C 76 % 1018,8 hPa 0,0 mm 5,0 km/h (1 Bft) N-NW 348 1 min 0,000 mm 5,3 UV-I 721 W/m 13,4 C 6,4 km/h (2 Bft)
07.09.2016 12:20 17,8 C 17,8 C 76 % 1018,8 hPa 0,0 mm 4,7 km/h (1 Bft) N 5 1 min 0,000 mm 5,3 UV-I 719 W/m 13,5 C 8,0 km/h (2 Bft)
07.09.2016 12:21 17,9 C 17,9 C 74 % 1018,8 hPa 0,0 mm 2,3 km/h (1 Bft) N 9 1 min 0,000 mm 5,4 UV-I 722 W/m 13,2 C 3,2 km/h (1 Bft)
07.09.2016 12:22 17,8 C 17,9 C 73 % 1018,7 hPa 0,0 mm 2,1 km/h (1 Bft) W-SW 246 1 min 0,000 mm 5,4 UV-I 722 W/m 12,9 C 4,8 km/h (1 Bft)
07.09.2016 12:23 17,7 C 17,8 C 72 % 1018,8 hPa 0,0 mm 4,1 km/h (1 Bft) W-NW 296 1 min 0,000 mm 5,4 UV-I 724 W/m 12,6 C 8,0 km/h (2 Bft)
07.09.2016 12:24 17,6 C 17,7 C 74 % 1018,7 hPa 0,0 mm 3,0 km/h (1 Bft) W-NW 296 1 min 0,000 mm 5,4 UV-I 726 W/m 12,9 C 4,8 km/h (1 Bft)
07.09.2016 12:25 17,6 C 17,6 C 78 % 1018,7 hPa 0,0 mm 2,1 km/h (1 Bft) NO 53 1 min 0,000 mm 5,4 UV-I 726 W/m 13,7 C 4,8 km/h (1 Bft)
07.09.2016 12:26 17,7 C 17,7 C 76 % 1018,7 hPa 0,0 mm 3,4 km/h (1 Bft) N 10 1 min 0,000 mm 5,4 UV-I 729 W/m 13,4 C 4,8 km/h (1 Bft)
07.09.2016 12:27 17,7 C 17,7 C 73 % 1018,7 hPa 0,0 mm 6,0 km/h (2 Bft) N 360 1 min 0,000 mm 5,4 UV-I 728 W/m 12,8 C 8,0 km/h (2 Bft)
07.09.2016 12:28 17,7 C 17,7 C 73 % 1018,8 hPa 0,0 mm 3,6 km/h (1 Bft) NW 321 1 min 0,000 mm 5,4 UV-I 729 W/m 12,8 C 4,8 km/h (1 Bft)
07.09.2016 12:29 17,7 C 17,7 C 73 % 1018,7 hPa 0,0 mm 3,9 km/h (1 Bft) W-NW 300 1 min 0,000 mm 5,4 UV-I 729 W/m 12,8 C 6,4 km/h (2 Bft)
07.09.2016 12:30 17,6 C 17,7 C 77 % 1018,7 hPa 0,0 mm 3,5 km/h (1 Bft) NO 50 1 min 0,000 mm 5,4 UV-I 729 W/m 13,5 C 4,8 km/h (1 Bft)
07.09.2016 12:31 17,7 C 17,7 C 73 % 1018,7 hPa 0,0 mm 3,2 km/h (1 Bft) O-NO 57 1 min 0,000 mm 5,4 UV-I 729 W/m 12,8 C 4,8 km/h (1 Bft)
07.09.2016 12:32 17,7 C 17,7 C 74 % 1018,7 hPa 0,0 mm 2,4 km/h (1 Bft) O-NO 57 1 min 0,000 mm 5,4 UV-I 729 W/m 13,0 C 3,2 km/h (1 Bft)
07.09.2016 12:33 17,8 C 17,8 C 76 % 1018,7 hPa 0,0 mm 3,5 km/h (1 Bft) NW 317 1 min 0,000 mm 5,4 UV-I 731 W/m 13,5 C 6,4 km/h (2 Bft)
07.09.2016 12:34 18,0 C 18,0 C 78 % 1018,7 hPa 0,0 mm 4,3 km/h (1 Bft) W-NW 283 1 min 0,000 mm 5,5 UV-I 731 W/m 14,1 C 6,4 km/h (2 Bft)
07.09.2016 12:35 18,0 C 18,1 C 74 % 1018,7 hPa 0,0 mm 5,4 km/h (1 Bft) N-NW 329 1 min 0,000 mm 5,5 UV-I 731 W/m 13,3 C 8,0 km/h (2 Bft)
07.09.2016 12:36 17,9 C 18,0 C 72 % 1018,7 hPa 0,0 mm 5,3 km/h (1 Bft) W 278 1 min 0,000 mm 5,5 UV-I 731 W/m 12,8 C 6,4 km/h (2 Bft)
07.09.2016 12:37 17,8 C 17,9 C 72 % 1018,7 hPa 0,0 mm 5,0 km/h (1 Bft) W 279 1 min 0,000 mm 5,5 UV-I 733 W/m 12,7 C 9,7 km/h (2 Bft)
07.09.2016 12:38 17,7 C 17,8 C 73 % 1018,7 hPa 0,0 mm 4,7 km/h (1 Bft) W-NW 290 1 min 0,000 mm 5,5 UV-I 733 W/m 12,8 C 6,4 km/h (2 Bft)
07.09.2016 12:39 17,7 C 17,7 C 75 % 1018,6 hPa 0,0 mm 3,1 km/h (1 Bft) N 351 1 min 0,000 mm 5,5 UV-I 735 W/m 13,2 C 6,4 km/h (2 Bft)
07.09.2016 12:40 17,9 C 17,9 C 75 % 1018,6 hPa 0,0 mm 1,9 km/h (1 Bft) O-NO 57 1 min 0,000 mm 5,5 UV-I 735 W/m 13,4 C 3,2 km/h (1 Bft)
07.09.2016 12:41 17,9 C 17,9 C 74 % 1018,6 hPa 0,0 mm 0,7 km/h (0 Bft) O-NO 57 1 min 0,000 mm 5,5 UV-I 735 W/m 13,2 C 1,6 km/h (1 Bft)
07.09.2016 12:42 18,2 C 18,2 C 74 % 1018,5 hPa 0,0 mm 2,8 km/h (1 Bft) N-NO 18 1 min 0,000 mm 5,5 UV-I 735 W/m 13,5 C 3,2 km/h (1 Bft)
07.09.2016 12:43 18,2 C 18,2 C 71 % 1018,5 hPa 0,0 mm 2,4 km/h (1 Bft) N-NO 22 1 min 0,000 mm 5,5 UV-I 733 W/m 12,9 C 3,2 km/h (1 Bft)
07.09.2016 12:44 18,1 C 18,2 C 72 % 1018,6 hPa 0,0 mm 3,8 km/h (1 Bft) O-NO 69 1 min 0,000 mm 5,5 UV-I 733 W/m 13,0 C 6,4 km/h (2 Bft)
07.09.2016 12:45 18,0 C 18,1 C 72 % 1018,6 hPa 0,0 mm 2,8 km/h (1 Bft) O-NO 70 1 min 0,000 mm 5,6 UV-I 737 W/m 12,9 C 4,8 km/h (1 Bft)
07.09.2016 12:46 18,0 C 18,0 C 74 % 1018,5 hPa 0,0 mm 0,2 km/h (0 Bft) O-NO 70 1 min 0,000 mm 5,6 UV-I 737 W/m 13,3 C 1,6 km/h (1 Bft)
07.09.2016 12:47 17,9 C 18,0 C 73 % 1018,5 hPa 0,0 mm 0,7 km/h (0 Bft) O-NO 70 1 min 0,000 mm 5,6 UV-I 738 W/m 13,0 C 1,6 km/h (1 Bft)
07.09.2016 12:48 17,9 C 18,0 C 72 % 1018,5 hPa 0,0 mm 0,9 km/h (0 Bft) O-NO 68 1 min 0,000 mm 5,6 UV-I 737 W/m 12,8 C 1,6 km/h (1 Bft)
07.09.2016 12:49 18,0 C 18,0 C 74 % 1018,5 hPa 0,0 mm 5,3 km/h (1 Bft) W-NW 294 1 min 0,000 mm 5,6 UV-I 740 W/m 13,3 C 8,0 km/h (2 Bft)
07.09.2016 12:50 18,1 C 18,1 C 73 % 1018,5 hPa 0,0 mm 5,7 km/h (1 Bft) N-NO 14 1 min 0,000 mm 5,6 UV-I 738 W/m 13,2 C 8,0 km/h (2 Bft)
07.09.2016 12:51 18,1 C 18,1 C 73 % 1018,5 hPa 0,0 mm 3,4 km/h (1 Bft) N-NO 14 1 min 0,000 mm 5,6 UV-I 738 W/m 13,2 C 4,8 km/h (1 Bft)
07.09.2016 12:52 18,2 C 18,2 C 73 % 1018,5 hPa 0,0 mm 2,7 km/h (1 Bft) N-NO 30 1 min 0,000 mm 5,6 UV-I 738 W/m 13,3 C 4,8 km/h (1 Bft)
07.09.2016 12:53 18,3 C 18,3 C 73 % 1018,5 hPa 0,0 mm 3,8 km/h (1 Bft) NO 53 1 min 0,000 mm 5,6 UV-I 740 W/m 13,4 C 4,8 km/h (1 Bft)
07.09.2016 12:54 18,2 C 18,3 C 73 % 1018,6 hPa 0,0 mm 1,4 km/h (1 Bft) NO 53 1 min 0,000 mm 5,6 UV-I 738 W/m 13,3 C 3,2 km/h (1 Bft)
07.09.2016 12:55 18,2 C 18,2 C 72 % 1018,5 hPa 0,0 mm 1,9 km/h (1 Bft) NO 53 1 min 0,000 mm 5,6 UV-I 740 W/m 13,1 C 3,2 km/h (1 Bft)
07.09.2016 12:56 18,3 C 18,3 C 75 % 1018,5 hPa 0,0 mm 0,3 km/h (0 Bft) O-NO 68 1 min 0,000 mm 5,6 UV-I 740 W/m 13,8 C 1,6 km/h (1 Bft)
07.09.2016 12:57 18,3 C 18,3 C 72 % 1018,5 hPa 0,0 mm 1,1 km/h (1 Bft) O-NO 62 1 min 0,000 mm 5,6 UV-I 740 W/m 13,2 C 1,6 km/h (1 Bft)
07.09.2016 12:58 18,3 C 18,4 C 74 % 1018,5 hPa 0,0 mm 2,5 km/h (1 Bft) O 86 1 min 0,000 mm 5,6 UV-I 740 W/m 13,6 C 8,0 km/h (2 Bft)
07.09.2016 12:59 18,3 C 18,3 C 72 % 1018,5 hPa 0,0 mm 5,5 km/h (1 Bft) O 93 1 min 0,000 mm 5,6 UV-I 738 W/m 13,2 C 8,0 km/h (2 Bft)
07.09.2016 13:00 18,3 C 18,3 C 75 % 1018,5 hPa 0,0 mm 4,7 km/h (1 Bft) O 80 1 min 0,407 mm 5,6 UV-I 740 W/m 13,8 C 6,4 km/h (2 Bft)
07.09.2016 13:01 18,4 C 18,4 C 74 % 1018,5 hPa 0,0 mm 4,4 km/h (1 Bft) O 82 1 min 0,000 mm 5,6 UV-I 740 W/m 13,7 C 6,4 km/h (2 Bft)
07.09.2016 13:02 18,4 C 18,4 C 73 % 1018,5 hPa 0,0 mm 4,1 km/h (1 Bft) O 99 1 min 0,000 mm 5,6 UV-I 742 W/m 13,5 C 6,4 km/h (2 Bft)
07.09.2016 13:03 18,4 C 18,4 C 73 % 1018,5 hPa 0,0 mm 1,8 km/h (1 Bft) O 97 1 min 0,000 mm 5,6 UV-I 742 W/m 13,5 C 3,2 km/h (1 Bft)
07.09.2016 13:04 18,4 C 18,4 C 71 % 1018,5 hPa 0,0 mm 0,5 km/h (0 Bft) O 97 1 min 0,000 mm 5,6 UV-I 742 W/m 13,0 C 1,6 km/h (1 Bft)
07.09.2016 13:05 18,5 C 18,5 C 73 % 1018,5 hPa 0,0 mm 2,4 km/h (1 Bft) O 97 1 min 0,000 mm 5,6 UV-I 740 W/m 13,6 C 4,8 km/h (1 Bft)
07.09.2016 13:06 18,4 C 18,5 C 74 % 1018,5 hPa 0,0 mm 5,7 km/h (1 Bft) O 86 1 min 0,000 mm 5,6 UV-I 740 W/m 13,7 C 8,0 km/h (2 Bft)
07.09.2016 13:07 18,5 C 18,5 C 74 % 1018,5 hPa 0,0 mm 6,5 km/h (2 Bft) NO 35 1 min 0,000 mm 5,7 UV-I 742 W/m 13,8 C 8,0 km/h (2 Bft)
07.09.2016 13:08 18,6 C 18,6 C 72 % 1018,5 hPa 0,0 mm 5,4 km/h (1 Bft) N 5 1 min 0,000 mm 5,6 UV-I 740 W/m 13,4 C 8,0 km/h (2 Bft)
07.09.2016 13:09 18,7 C 18,7 C 73 % 1018,5 hPa 0,0 mm 5,4 km/h (1 Bft) N 360 1 min 0,000 mm 5,6 UV-I 740 W/m 13,8 C 6,4 km/h (2 Bft)
07.09.2016 13:10 18,8 C 18,8 C 72 % 1018,5 hPa 0,0 mm 3,4 km/h (1 Bft) N-NO 15 1 min 0,000 mm 5,6 UV-I 740 W/m 13,6 C 4,8 km/h (1 Bft)
07.09.2016 13:11 18,8 C 18,8 C 73 % 1018,6 hPa 0,0 mm 7,2 km/h (2 Bft) NW 315 1 min 0,000 mm 5,6 UV-I 740 W/m 13,9 C 8,0 km/h (2 Bft)
07.09.2016 13:12 18,9 C 18,9 C 73 % 1018,6 hPa 0,0 mm 2,9 km/h (1 Bft) NW 315 1 min 0,000 mm 5,6 UV-I 738 W/m 13,9 C 4,8 km/h (1 Bft)
07.09.2016 13:13 18,8 C 18,9 C 72 % 1018,6 hPa 0,0 mm 1,7 km/h (1 Bft) NW 315 1 min 0,000 mm 5,6 UV-I 740 W/m 13,6 C 3,2 km/h (1 Bft)
07.09.2016 13:14 18,9 C 18,9 C 75 % 1018,5 hPa 0,0 mm 2,9 km/h (1 Bft) N 360 1 min 0,000 mm 5,6 UV-I 742 W/m 14,4 C 4,8 km/h (1 Bft)
07.09.2016 13:15 19,2 C 19,2 C 80 % 1018,6 hPa 0,0 mm 4,8 km/h (1 Bft) N-NW 331 1 min 0,000 mm 5,7 UV-I 744 W/m 15,7 C 6,4 km/h (2 Bft)
07.09.2016 13:16 19,4 C 19,4 C 76 % 1018,5 hPa 0,0 mm 2,7 km/h (1 Bft) W-NW 302 1 min 0,000 mm 5,6 UV-I 742 W/m 15,1 C 3,2 km/h (1 Bft)
07.09.2016 13:17 19,4 C 19,4 C 70 % 1018,6 hPa 0,0 mm 1,5 km/h (1 Bft) W-NW 301 1 min 0,000 mm 5,6 UV-I 742 W/m 13,8 C 3,2 km/h (1 Bft)
07.09.2016 13:18 19,3 C 19,4 C 74 % 1018,6 hPa 0,0 mm 0,7 km/h (0 Bft) O-NO 74 1 min 0,000 mm 5,6 UV-I 738 W/m 14,5 C 3,2 km/h (1 Bft)
07.09.2016 13:19 19,3 C 19,3 C 75 % 1018,5 hPa 0,0 mm 3,2 km/h (1 Bft) O-NO 72 1 min 0,000 mm 5,6 UV-I 738 W/m 14,8 C 4,8 km/h (1 Bft)
07.09.2016 13:20 19,2 C 19,3 C 74 % 1018,5 hPa 0,0 mm 4,8 km/h (1 Bft) N-NO 13 1 min 0,000 mm 5,6 UV-I 740 W/m 14,4 C 6,4 km/h (2 Bft)
07.09.2016 13:21 19,3 C 19,3 C 74 % 1018,5 hPa 0,0 mm 3,4 km/h (1 Bft) N 355 1 min 0,000 mm 5,7 UV-I 744 W/m 14,5 C 4,8 km/h (1 Bft)
07.09.2016 13:22 19,3 C 19,3 C 72 % 1018,6 hPa 0,0 mm 2,5 km/h (1 Bft) N 355 1 min 0,000 mm 5,7 UV-I 744 W/m 14,1 C 4,8 km/h (1 Bft)
07.09.2016 13:23 19,4 C 19,4 C 74 % 1018,5 hPa 0,0 mm 0,5 km/h (0 Bft) N 355 1 min 0,000 mm 5,7 UV-I 744 W/m 14,6 C 1,6 km/h (1 Bft)
07.09.2016 13:24 19,3 C 19,4 C 71 % 1018,5 hPa 0,0 mm 1,5 km/h (1 Bft) N-NW 336 1 min 0,000 mm 5,7 UV-I 742 W/m 13,9 C 3,2 km/h (1 Bft)
07.09.2016 13:25 19,2 C 19,3 C 73 % 1018,4 hPa 0,0 mm 3,8 km/h (1 Bft) NW 321 1 min 0,000 mm 5,7 UV-I 740 W/m 14,2 C 6,4 km/h (2 Bft)
07.09.2016 13:26 19,2 C 19,2 C 75 % 1018,5 hPa 0,0 mm 3,6 km/h (1 Bft) W-NW 286 1 min 0,000 mm 5,6 UV-I 740 W/m 14,7 C 4,8 km/h (1 Bft)
07.09.2016 13:27 19,3 C 19,3 C 75 % 1018,5 hPa 0,0 mm 2,1 km/h (1 Bft) NW 307 1 min 0,000 mm 5,6 UV-I 731 W/m 14,8 C 8,0 km/h (2 Bft)
07.09.2016 13:28 19,2 C 19,3 C 73 % 1018,4 hPa 0,0 mm 6,6 km/h (2 Bft) NW 308 1 min 0,000 mm 5,6 UV-I 735 W/m 14,2 C 11,3 km/h (2 Bft)
07.09.2016 13:29 19,1 C 19,2 C 75 % 1018,4 hPa 0,0 mm 4,0 km/h (1 Bft) N-NW 339 1 min 0,000 mm 5,6 UV-I 731 W/m 14,6 C 6,4 km/h (2 Bft)
07.09.2016 13:30 19,1 C 19,1 C 76 % 1018,4 hPa 0,0 mm 4,4 km/h (1 Bft) N-NW 338 1 min 0,000 mm 5,5 UV-I 729 W/m 14,8 C 8,0 km/h (2 Bft)
07.09.2016 13:31 19,2 C 19,2 C 76 % 1018,4 hPa 0,0 mm 7,7 km/h (2 Bft) N-NW 329 1 min 0,000 mm 5,6 UV-I 735 W/m 14,9 C 11,3 km/h (2 Bft)
07.09.2016 13:32 19,3 C 19,3 C 75 % 1018,4 hPa 0,0 mm 3,8 km/h (1 Bft) NW 307 1 min 0,000 mm 5,7 UV-I 742 W/m 14,8 C 6,4 km/h (2 Bft)
07.09.2016 13:33 19,2 C 19,3 C 72 % 1018,4 hPa 0,0 mm 2,7 km/h (1 Bft) NW 309 1 min 0,000 mm 5,7 UV-I 742 W/m 14,0 C 4,8 km/h (1 Bft)
07.09.2016 13:34 19,1 C 19,2 C 73 % 1018,4 hPa 0,0 mm 4,3 km/h (1 Bft) W-NW 300 1 min 0,000 mm 5,7 UV-I 742 W/m 14,1 C 6,4 km/h (2 Bft)
07.09.2016 13:35 19,1 C 19,1 C 73 % 1018,4 hPa 0,0 mm 2,6 km/h (1 Bft) O-NO 59 1 min 0,000 mm 5,6 UV-I 749 W/m 14,1 C 6,4 km/h (2 Bft)
07.09.2016 13:36 19,0 C 19,1 C 73 % 1018,4 hPa 0,0 mm 3,2 km/h (1 Bft) O-NO 59 1 min 0,000 mm 5,6 UV-I 731 W/m 14,0 C 4,8 km/h (1 Bft)
07.09.2016 13:37 18,8 C 19,0 C 72 % 1018,5 hPa 0,0 mm 2,2 km/h (1 Bft) S-SW 194 1 min 0,000 mm 5,5 UV-I 729 W/m 13,6 C 3,2 km/h (1 Bft)
07.09.2016 13:38 18,8 C 18,8 C 72 % 1018,5 hPa 0,0 mm 1,7 km/h (1 Bft) S 171 1 min 0,000 mm 5,5 UV-I 729 W/m 13,6 C 4,8 km/h (1 Bft)
07.09.2016 13:39 18,9 C 18,9 C 74 % 1018,5 hPa 0,0 mm 0,8 km/h (0 Bft) S 172 1 min 0,000 mm 5,6 UV-I 731 W/m 14,2 C 1,6 km/h (1 Bft)
07.09.2016 13:40 19,1 C 19,1 C 74 % 1018,5 hPa 0,0 mm 1,9 km/h (1 Bft) W-NW 288 1 min 0,000 mm 5,6 UV-I 731 W/m 14,4 C 6,4 km/h (2 Bft)
07.09.2016 13:41 19,2 C 19,2 C 75 % 1018,5 hPa 0,0 mm 4,2 km/h (1 Bft) W-NW 292 1 min 0,000 mm 5,6 UV-I 731 W/m 14,7 C 6,4 km/h (2 Bft)
07.09.2016 13:42 19,2 C 19,2 C 73 % 1018,4 hPa 0,0 mm 1,9 km/h (1 Bft) W-NW 292 1 min 0,000 mm 5,6 UV-I 729 W/m 14,2 C 3,2 km/h (1 Bft)
07.09.2016 13:43 19,3 C 19,3 C 75 % 1018,5 hPa 0,0 mm 4,2 km/h (1 Bft) NW 304 1 min 0,000 mm 5,6 UV-I 729 W/m 14,8 C 12,9 km/h (3 Bft)
07.09.2016 13:44 19,4 C 19,4 C 75 % 1018,4 hPa 0,0 mm 7,9 km/h (2 Bft) W-NW 296 1 min 0,000 mm 5,6 UV-I 728 W/m 14,8 C 14,5 km/h (3 Bft)
07.09.2016 13:45 19,4 C 19,4 C 72 % 1018,5 hPa 0,0 mm 5,4 km/h (1 Bft) W 280 1 min 0,000 mm 5,5 UV-I 724 W/m 14,2 C 6,4 km/h (2 Bft)
07.09.2016 13:46 19,2 C 19,4 C 74 % 1018,5 hPa 0,0 mm 4,4 km/h (1 Bft) W 274 1 min 0,000 mm 5,5 UV-I 722 W/m 14,4 C 8,0 km/h (2 Bft)
07.09.2016 13:47 19,1 C 19,2 C 73 % 1018,5 hPa 0,0 mm 2,9 km/h (1 Bft) W 274 1 min 0,000 mm 5,5 UV-I 722 W/m 14,1 C 3,2 km/h (1 Bft)
07.09.2016 13:48 19,1 C 19,1 C 73 % 1018,5 hPa 0,0 mm 3,0 km/h (1 Bft) W 274 1 min 0,000 mm 5,5 UV-I 722 W/m 14,1 C 4,8 km/h (1 Bft)
07.09.2016 13:49 19,2 C 19,2 C 75 % 1018,5 hPa 0,0 mm 1,8 km/h (1 Bft) W 274 1 min 0,000 mm 5,5 UV-I 721 W/m 14,7 C 3,2 km/h (1 Bft)
07.09.2016 13:50 19,2 C 19,2 C 75 % 1018,4 hPa 0,0 mm 4,2 km/h (1 Bft) W-NW 288 1 min 0,000 mm 5,5 UV-I 722 W/m 14,7 C 4,8 km/h (1 Bft)
07.09.2016 13:51 19,2 C 19,2 C 72 % 1018,4 hPa 0,0 mm 4,2 km/h (1 Bft) W-NW 286 1 min 0,000 mm 5,5 UV-I 722 W/m 14,0 C 4,8 km/h (1 Bft)
07.09.2016 13:52 19,1 C 19,2 C 72 % 1018,3 hPa 0,0 mm 2,6 km/h (1 Bft) W 272 1 min 0,000 mm 5,5 UV-I 722 W/m 13,9 C 4,8 km/h (1 Bft)
07.09.2016 13:53 19,1 C 19,1 C 75 % 1018,3 hPa 0,0 mm 3,7 km/h (1 Bft) W-NW 302 1 min 0,000 mm 5,4 UV-I 717 W/m 14,6 C 4,8 km/h (1 Bft)
07.09.2016 13:54 19,1 C 19,2 C 73 % 1018,4 hPa 0,0 mm 2,8 km/h (1 Bft) N-NO 13 1 min 0,000 mm 5,4 UV-I 719 W/m 14,1 C 4,8 km/h (1 Bft)
07.09.2016 13:55 19,2 C 19,2 C 75 % 1018,3 hPa 0,0 mm 1,6 km/h (1 Bft) N-NW 332 1 min 0,000 mm 5,4 UV-I 721 W/m 14,7 C 4,8 km/h (1 Bft)
07.09.2016 13:56 19,3 C 19,3 C 74 % 1018,3 hPa 0,0 mm 5,2 km/h (1 Bft) N-NW 339 1 min 0,000 mm 5,4 UV-I 721 W/m 14,5 C 8,0 km/h (2 Bft)
07.09.2016 13:57 19,6 C 19,6 C 73 % 1018,3 hPa 0,0 mm 5,9 km/h (2 Bft) N-NW 327 1 min 0,000 mm 5,4 UV-I 721 W/m 14,6 C 8,0 km/h (2 Bft)
07.09.2016 13:58 19,6 C 19,6 C 73 % 1018,3 hPa 0,0 mm 4,0 km/h (1 Bft) W-NW 286 1 min 0,000 mm 5,4 UV-I 715 W/m 14,6 C 6,4 km/h (2 Bft)
07.09.2016 13:59 19,6 C 19,6 C 73 % 1018,3 hPa 0,0 mm 4,6 km/h (1 Bft) N-NW 331 1 min 0,000 mm 5,4 UV-I 710 W/m 14,6 C 6,4 km/h (2 Bft)
07.09.2016 14:00 19,7 C 19,7 C 77 % 1018,3 hPa 0,0 mm 3,5 km/h (1 Bft) NW 308 1 min 0,000 mm 5,4 UV-I 712 W/m 15,5 C 6,4 km/h (2 Bft)
07.09.2016 14:01 19,9 C 19,9 C 76 % 1018,3 hPa 0,0 mm 2,1 km/h (1 Bft) NW 308 1 min 0,431 mm 5,3 UV-I 710 W/m 15,5 C 3,2 km/h (1 Bft)
07.09.2016 14:02 19,9 C 19,9 C 73 % 1018,3 hPa 0,0 mm 2,4 km/h (1 Bft) W 267 1 min 0,000 mm 5,3 UV-I 710 W/m 14,9 C 3,2 km/h (1 Bft)
07.09.2016 14:03 19,8 C 19,9 C 75 % 1018,3 hPa 0,0 mm 1,5 km/h (1 Bft) N-NW 348 1 min 0,000 mm 5,3 UV-I 703 W/m 15,2 C 3,2 km/h (1 Bft)
07.09.2016 14:04 19,9 C 19,9 C 74 % 1018,3 hPa 0,0 mm 2,7 km/h (1 Bft) O-NO 70 1 min 0,000 mm 5,3 UV-I 703 W/m 15,1 C 4,8 km/h (1 Bft)
07.09.2016 14:05 19,8 C 19,9 C 70 % 1018,3 hPa 0,0 mm 5,3 km/h (1 Bft) O-NO 71 1 min 0,000 mm 5,3 UV-I 710 W/m 14,2 C 8,0 km/h (2 Bft)
07.09.2016 14:06 19,6 C 19,8 C 70 % 1018,3 hPa 0,0 mm 3,6 km/h (1 Bft) O-NO 73 1 min 0,000 mm 5,4 UV-I 710 W/m 14,0 C 4,8 km/h (1 Bft)
07.09.2016 14:07 19,4 C 19,6 C 71 % 1018,3 hPa 0,0 mm 2,5 km/h (1 Bft) O-NO 73 1 min 0,000 mm 5,4 UV-I 710 W/m 14,0 C 4,8 km/h (1 Bft)
07.09.2016 14:08 19,3 C 19,4 C 71 % 1018,3 hPa 0,0 mm 3,3 km/h (1 Bft) O-NO 73 1 min 0,000 mm 5,3 UV-I 708 W/m 13,9 C 4,8 km/h (1 Bft)
07.09.2016 14:09 19,4 C 19,4 C 74 % 1018,3 hPa 0,0 mm 4,0 km/h (1 Bft) N 5 1 min 0,000 mm 5,3 UV-I 705 W/m 14,6 C 4,8 km/h (1 Bft)
07.09.2016 14:10 19,6 C 19,6 C 72 % 1018,3 hPa 0,0 mm 5,8 km/h (2 Bft) N 360 1 min 0,000 mm 5,2 UV-I 703 W/m 14,4 C 8,0 km/h (2 Bft)
07.09.2016 14:11 19,6 C 19,6 C 70 % 1018,3 hPa 0,0 mm 2,5 km/h (1 Bft) N 360 1 min 0,000 mm 5,2 UV-I 703 W/m 14,0 C 6,4 km/h (2 Bft)
07.09.2016 14:12 19,7 C 19,7 C 73 % 1018,3 hPa 0,0 mm 1,5 km/h (1 Bft) O-SO 113 1 min 0,000 mm 5,2 UV-I 703 W/m 14,7 C 3,2 km/h (1 Bft)
07.09.2016 14:13 19,7 C 19,7 C 71 % 1018,3 hPa 0,0 mm 3,3 km/h (1 Bft) S 169 1 min 0,000 mm 4,7 UV-I 656 W/m 14,3 C 4,8 km/h (1 Bft)
07.09.2016 14:14 19,6 C 19,7 C 70 % 1018,3 hPa 0,0 mm 1,5 km/h (1 Bft) S 169 1 min 0,000 mm 5,1 UV-I 696 W/m 14,0 C 3,2 km/h (1 Bft)
07.09.2016 14:15 19,6 C 19,6 C 71 % 1018,3 hPa 0,0 mm 3,5 km/h (1 Bft) SW 215 1 min 0,000 mm 5,2 UV-I 701 W/m 14,2 C 4,8 km/h (1 Bft)
07.09.2016 14:16 19,4 C 19,6 C 71 % 1018,3 hPa 0,0 mm 2,0 km/h (1 Bft) SW 216 1 min 0,000 mm 5,1 UV-I 700 W/m 14,0 C 4,8 km/h (1 Bft)
07.09.2016 14:17 19,4 C 19,4 C 72 % 1018,3 hPa 0,0 mm 1,5 km/h (1 Bft) O-NO 58 1 min 0,000 mm 5,2 UV-I 700 W/m 14,2 C 3,2 km/h (1 Bft)
07.09.2016 14:18 19,4 C 19,4 C 76 % 1018,3 hPa 0,0 mm 3,6 km/h (1 Bft) O 80 1 min 0,000 mm 5,2 UV-I 700 W/m 15,1 C 4,8 km/h (1 Bft)
07.09.2016 14:19 19,4 C 19,4 C 73 % 1018,3 hPa 0,0 mm 3,0 km/h (1 Bft) N-NO 28 1 min 0,000 mm 5,2 UV-I 701 W/m 14,4 C 4,8 km/h (1 Bft)
07.09.2016 14:20 19,6 C 19,6 C 71 % 1018,3 hPa 0,0 mm 3,9 km/h (1 Bft) O-NO 57 1 min 0,000 mm 5,2 UV-I 701 W/m 14,2 C 6,4 km/h (2 Bft)
07.09.2016 14:21 19,6 C 19,6 C 74 % 1018,2 hPa 0,0 mm 1,1 km/h (1 Bft) O-NO 57 1 min 0,000 mm 5,1 UV-I 698 W/m 14,8 C 1,6 km/h (1 Bft)
07.09.2016 14:22 19,5 C 19,6 C 72 % 1018,2 hPa 0,0 mm 0,3 km/h (0 Bft) O-NO 57 1 min 0,000 mm 5,1 UV-I 694 W/m 14,3 C 1,6 km/h (1 Bft)
07.09.2016 14:23 19,4 C 19,5 C 72 % 1018,2 hPa 0,0 mm 1,2 km/h (1 Bft) O-NO 57 1 min 0,000 mm 5,1 UV-I 687 W/m 14,2 C 3,2 km/h (1 Bft)
07.09.2016 14:24 19,6 C 19,6 C 74 % 1018,2 hPa 0,0 mm 4,8 km/h (1 Bft) O-NO 67 1 min 0,000 mm 5,1 UV-I 687 W/m 14,8 C 8,0 km/h (2 Bft)
07.09.2016 14:25 19,7 C 19,7 C 77 % 1018,2 hPa 0,0 mm 3,6 km/h (1 Bft) O-NO 67 1 min 0,000 mm 5,1 UV-I 687 W/m 15,5 C 6,4 km/h (2 Bft)
07.09.2016 14:26 19,5 C 19,7 C 73 % 1018,2 hPa 0,0 mm 4,4 km/h (1 Bft) S-SO 147 1 min 0,000 mm 5,0 UV-I 684 W/m 14,5 C 8,0 km/h (2 Bft)
07.09.2016 14:27 19,4 C 19,5 C 74 % 1018,2 hPa 0,0 mm 1,7 km/h (1 Bft) S-SO 147 1 min 0,000 mm 5,0 UV-I 679 W/m 14,6 C 3,2 km/h (1 Bft)
07.09.2016 14:28 19,4 C 19,4 C 73 % 1018,2 hPa 0,0 mm 2,3 km/h (1 Bft) NO 56 1 min 0,000 mm 5,0 UV-I 680 W/m 14,4 C 4,8 km/h (1 Bft)
07.09.2016 14:29 19,4 C 19,4 C 75 % 1018,2 hPa 0,0 mm 5,2 km/h (1 Bft) NO 49 1 min 0,000 mm 5,0 UV-I 680 W/m 14,8 C 6,4 km/h (2 Bft)
07.09.2016 14:30 19,6 C 19,6 C 73 % 1018,2 hPa 0,0 mm 3,6 km/h (1 Bft) N-NO 33 1 min 0,000 mm 4,9 UV-I 679 W/m 14,6 C 6,4 km/h (2 Bft)
07.09.2016 14:31 19,6 C 19,6 C 73 % 1018,2 hPa 0,0 mm 4,3 km/h (1 Bft) N-NW 348 1 min 0,000 mm 4,9 UV-I 689 W/m 14,6 C 6,4 km/h (2 Bft)
07.09.2016 14:32 19,7 C 19,7 C 72 % 1018,3 hPa 0,0 mm 2,7 km/h (1 Bft) N-NO 29 1 min 0,000 mm 4,9 UV-I 689 W/m 14,5 C 6,4 km/h (2 Bft)
07.09.2016 14:33 19,7 C 19,7 C 72 % 1018,2 hPa 0,0 mm 1,7 km/h (1 Bft) NO 37 1 min 0,000 mm 5,0 UV-I 686 W/m 14,5 C 3,2 km/h (1 Bft)
07.09.2016 14:34 19,7 C 19,7 C 73 % 1018,2 hPa 0,0 mm 4,2 km/h (1 Bft) O-NO 65 1 min 0,000 mm 5,0 UV-I 686 W/m 14,7 C 6,4 km/h (2 Bft)
07.09.2016 14:35 19,8 C 19,8 C 72 % 1018,3 hPa 0,0 mm 2,5 km/h (1 Bft) O-NO 65 1 min 0,000 mm 5,0 UV-I 684 W/m 14,6 C 4,8 km/h (1 Bft)
07.09.2016 14:36 19,7 C 19,8 C 72 % 1018,2 hPa 0,0 mm 2,4 km/h (1 Bft) N 11 1 min 0,000 mm 4,9 UV-I 686 W/m 14,5 C 4,8 km/h (1 Bft)
07.09.2016 14:37 19,8 C 19,8 C 74 % 1018,3 hPa 0,0 mm 1,6 km/h (1 Bft) N 11 1 min 0,000 mm 4,9 UV-I 680 W/m 15,0 C 3,2 km/h (1 Bft)
07.09.2016 14:38 20,0 C 20,0 C 72 % 1018,2 hPa 0,0 mm 5,4 km/h (1 Bft) N 360 1 min 0,000 mm 4,9 UV-I 684 W/m 14,8 C 8,0 km/h (2 Bft)
07.09.2016 14:39 20,1 C 20,1 C 71 % 1018,2 hPa 0,0 mm 3,7 km/h (1 Bft) N-NO 22 1 min 0,000 mm 4,9 UV-I 682 W/m 14,7 C 4,8 km/h (1 Bft)
07.09.2016 14:40 20,1 C 20,1 C 72 % 1018,2 hPa 0,0 mm 2,3 km/h (1 Bft) N-NW 341 1 min 0,000 mm 4,9 UV-I 680 W/m 14,9 C 6,4 km/h (2 Bft)
07.09.2016 14:41 20,1 C 20,1 C 74 % 1018,2 hPa 0,0 mm 6,2 km/h (2 Bft) NW 311 1 min 0,000 mm 4,8 UV-I 677 W/m 15,3 C 8,0 km/h (2 Bft)
07.09.2016 14:42 20,2 C 20,2 C 74 % 1018,2 hPa 0,0 mm 8,2 km/h (2 Bft) N-NO 28 1 min 0,000 mm 4,8 UV-I 671 W/m 15,4 C 12,9 km/h (3 Bft)
07.09.2016 14:43 20,3 C 20,3 C 72 % 1018,3 hPa 0,0 mm 5,9 km/h (2 Bft) NW 319 1 min 0,000 mm 4,8 UV-I 670 W/m 15,1 C 8,0 km/h (2 Bft)
07.09.2016 14:44 20,3 C 20,3 C 71 % 1018,2 hPa 0,0 mm 4,1 km/h (1 Bft) N-NW 336 1 min 0,000 mm 4,8 UV-I 673 W/m 14,9 C 6,4 km/h (2 Bft)
07.09.2016 14:45 20,2 C 20,3 C 72 % 1018,2 hPa 0,0 mm 3,1 km/h (1 Bft) N-NW 338 1 min 0,000 mm 4,8 UV-I 671 W/m 15,0 C 4,8 km/h (1 Bft)
07.09.2016 14:46 20,2 C 20,2 C 72 % 1018,2 hPa 0,0 mm 3,1 km/h (1 Bft) N 355 1 min 0,000 mm 4,8 UV-I 668 W/m 15,0 C 6,4 km/h (2 Bft)
07.09.2016 14:47 20,3 C 20,3 C 74 % 1018,2 hPa 0,0 mm 6,8 km/h (2 Bft) N-NO 16 1 min 0,000 mm 4,8 UV-I 671 W/m 15,5 C 12,9 km/h (3 Bft)
07.09.2016 14:48 20,3 C 20,4 C 71 % 1018,2 hPa 0,0 mm 6,7 km/h (2 Bft) N 5 1 min 0,000 mm 4,8 UV-I 670 W/m 14,9 C 12,9 km/h (3 Bft)
07.09.2016 14:49 20,1 C 20,3 C 70 % 1018,3 hPa 0,0 mm 5,5 km/h (1 Bft) N 5 1 min 0,000 mm 4,7 UV-I 666 W/m 14,5 C 8,0 km/h (2 Bft)
07.09.2016 14:50 20,0 C 20,1 C 70 % 1018,2 hPa 0,0 mm 4,9 km/h (1 Bft) N-NO 22 1 min 0,000 mm 4,7 UV-I 661 W/m 14,4 C 8,0 km/h (2 Bft)
07.09.2016 14:51 19,8 C 20,0 C 71 % 1018,2 hPa 0,0 mm 3,8 km/h (1 Bft) O-SO 102 1 min 0,000 mm 4,7 UV-I 661 W/m 14,4 C 4,8 km/h (1 Bft)
07.09.2016 14:52 19,7 C 19,8 C 72 % 1018,2 hPa 0,0 mm 3,2 km/h (1 Bft) N 360 1 min 0,000 mm 4,7 UV-I 659 W/m 14,5 C 6,4 km/h (2 Bft)
07.09.2016 14:53 19,7 C 19,7 C 73 % 1018,2 hPa 0,0 mm 6,7 km/h (2 Bft) N-NW 345 1 min 0,000 mm 4,7 UV-I 657 W/m 14,7 C 8,0 km/h (2 Bft)
07.09.2016 14:54 19,8 C 19,8 C 72 % 1018,2 hPa 0,0 mm 6,1 km/h (2 Bft) N-NW 344 1 min 0,000 mm 4,6 UV-I 652 W/m 14,6 C 8,0 km/h (2 Bft)
07.09.2016 14:55 19,9 C 19,9 C 74 % 1018,2 hPa 0,0 mm 6,3 km/h (2 Bft) NW 325 1 min 0,000 mm 4,5 UV-I 645 W/m 15,1 C 8,0 km/h (2 Bft)
07.09.2016 14:56 20,0 C 20,0 C 71 % 1018,2 hPa 0,0 mm 3,5 km/h (1 Bft) N-NW 333 1 min 0,000 mm 4,5 UV-I 636 W/m 14,6 C 4,8 km/h (1 Bft)
07.09.2016 14:57 20,1 C 20,1 C 73 % 1018,2 hPa 0,0 mm 2,9 km/h (1 Bft) W-NW 301 1 min 0,000 mm 4,5 UV-I 640 W/m 15,1 C 4,8 km/h (1 Bft)
07.09.2016 14:58 20,1 C 20,1 C 72 % 1018,1 hPa 0,0 mm 6,8 km/h (2 Bft) W-NW 300 1 min 0,000 mm 4,4 UV-I 647 W/m 14,9 C 11,3 km/h (2 Bft)
07.09.2016 14:59 20,1 C 20,1 C 71 % 1018,1 hPa 0,0 mm 5,4 km/h (1 Bft) NW 326 1 min 0,000 mm 4,4 UV-I 645 W/m 14,7 C 11,3 km/h (2 Bft)
07.09.2016 15:00 20,1 C 20,1 C 72 % 1018,1 hPa 0,0 mm 5,7 km/h (1 Bft) W-NW 290 1 min 0,000 mm 4,3 UV-I 647 W/m 14,9 C 8,0 km/h (2 Bft)
07.09.2016 15:01 20,1 C 20,1 C 73 % 1018,1 hPa 0,0 mm 4,9 km/h (1 Bft) N-NW 337 1 min 0,406 mm 4,3 UV-I 645 W/m 15,1 C 6,4 km/h (2 Bft)
07.09.2016 15:02 20,2 C 20,2 C 72 % 1018,0 hPa 0,0 mm 4,4 km/h (1 Bft) NW 311 1 min 0,001 mm 4,2 UV-I 647 W/m 15,0 C 6,4 km/h (2 Bft)
07.09.2016 15:03 20,2 C 20,2 C 72 % 1018,0 hPa 0,0 mm 3,6 km/h (1 Bft) W 273 1 min 0,000 mm 4,1 UV-I 643 W/m 15,0 C 6,4 km/h (2 Bft)
07.09.2016 15:04 20,1 C 20,2 C 71 % 1018,1 hPa 0,0 mm 1,8 km/h (1 Bft) W 274 1 min 0,000 mm 4,1 UV-I 631 W/m 14,7 C 3,2 km/h (1 Bft)
07.09.2016 15:05 20,0 C 20,1 C 74 % 1018,0 hPa 0,0 mm 1,5 km/h (1 Bft) N 350 1 min 0,000 mm 4,0 UV-I 626 W/m 15,2 C 3,2 km/h (1 Bft)
07.09.2016 15:06 20,0 C 20,0 C 73 % 1018,1 hPa 0,0 mm 1,5 km/h (1 Bft) N 350 1 min 0,000 mm 3,9 UV-I 619 W/m 15,0 C 3,2 km/h (1 Bft)
07.09.2016 15:07 20,0 C 20,0 C 74 % 1018,1 hPa 0,0 mm 1,0 km/h (0 Bft) N 350 1 min 0,000 mm 3,9 UV-I 615 W/m 15,2 C 1,6 km/h (1 Bft)
07.09.2016 15:08 19,9 C 20,0 C 74 % 1018,1 hPa 0,0 mm 1,9 km/h (1 Bft) SO 130 1 min 0,000 mm 3,9 UV-I 619 W/m 15,1 C 3,2 km/h (1 Bft)
07.09.2016 15:09 19,9 C 20,0 C 73 % 1018,1 hPa 0,0 mm 3,2 km/h (1 Bft) SO 133 1 min 0,000 mm 4,0 UV-I 626 W/m 14,9 C 4,8 km/h (1 Bft)
07.09.2016 15:10 19,8 C 19,9 C 73 % 1018,1 hPa 0,0 mm 4,6 km/h (1 Bft) SO 131 1 min 0,000 mm 4,0 UV-I 626 W/m 14,8 C 6,4 km/h (2 Bft)
07.09.2016 15:11 19,8 C 19,8 C 75 % 1018,1 hPa 0,0 mm 4,1 km/h (1 Bft) SO 141 1 min 0,000 mm 3,9 UV-I 626 W/m 15,2 C 6,4 km/h (2 Bft)
07.09.2016 15:12 19,8 C 19,8 C 72 % 1018,1 hPa 0,0 mm 1,5 km/h (1 Bft) SO 141 1 min 0,000 mm 3,9 UV-I 622 W/m 14,6 C 3,2 km/h (1 Bft)
07.09.2016 15:13 19,9 C 19,9 C 75 % 1018,1 hPa 0,0 mm 1,2 km/h (1 Bft) SO 141 1 min 0,000 mm 3,5 UV-I 587 W/m 15,3 C 3,2 km/h (1 Bft)
07.09.2016 15:14 19,9 C 19,9 C 71 % 1018,1 hPa 0,0 mm 0,8 km/h (0 Bft) SO 124 1 min 0,000 mm 3,8 UV-I 612 W/m 14,5 C 3,2 km/h (1 Bft)
07.09.2016 15:15 19,9 C 19,9 C 74 % 1018,1 hPa 0,0 mm 3,1 km/h (1 Bft) NW 319 1 min 0,000 mm 2,6 UV-I 612 W/m 15,1 C 4,8 km/h (1 Bft)
07.09.2016 15:16 19,9 C 20,0 C 74 % 1018,0 hPa 0,0 mm 5,4 km/h (1 Bft) NW 319 1 min 0,000 mm 3,6 UV-I 603 W/m 15,1 C 8,0 km/h (2 Bft)
07.09.2016 15:17 20,0 C 20,0 C 74 % 1018,0 hPa 0,0 mm 5,5 km/h (1 Bft) NW 311 1 min 0,000 mm 3,8 UV-I 619 W/m 15,2 C 6,4 km/h (2 Bft)
07.09.2016 15:18 20,1 C 20,1 C 73 % 1018,0 hPa 0,0 mm 5,2 km/h (1 Bft) W-NW 282 1 min 0,000 mm 3,8 UV-I 617 W/m 15,1 C 9,7 km/h (2 Bft)
07.09.2016 15:19 20,1 C 20,1 C 72 % 1018,0 hPa 0,0 mm 8,0 km/h (2 Bft) NW 308 1 min 0,000 mm 3,8 UV-I 617 W/m 14,9 C 12,9 km/h (3 Bft)
07.09.2016 15:20 20,1 C 20,1 C 70 % 1018,1 hPa 0,0 mm 4,1 km/h (1 Bft) W-NW 294 1 min 0,000 mm 3,8 UV-I 617 W/m 14,5 C 11,3 km/h (2 Bft)
07.09.2016 15:21 20,0 C 20,1 C 73 % 1018,0 hPa 0,0 mm 1,5 km/h (1 Bft) NW 310 1 min 0,000 mm 3,8 UV-I 612 W/m 15,0 C 4,8 km/h (1 Bft)
07.09.2016 15:22 20,0 C 20,0 C 72 % 1018,0 hPa 0,0 mm 4,7 km/h (1 Bft) N 360 1 min 0,000 mm 3,7 UV-I 592 W/m 14,8 C 8,0 km/h (2 Bft)
07.09.2016 15:23 20,1 C 20,1 C 72 % 1018,0 hPa 0,0 mm 1,3 km/h (1 Bft) N 360 1 min 0,000 mm 3,7 UV-I 596 W/m 14,9 C 3,2 km/h (1 Bft)
07.09.2016 15:24 20,2 C 20,2 C 73 % 1018,0 hPa 0,0 mm 1,5 km/h (1 Bft) N 360 1 min 0,000 mm 3,7 UV-I 598 W/m 15,2 C 3,2 km/h (1 Bft)
07.09.2016 15:25 20,3 C 20,3 C 72 % 1018,0 hPa 0,0 mm 2,5 km/h (1 Bft) N-NW 331 1 min 0,000 mm 3,7 UV-I 598 W/m 15,1 C 3,2 km/h (1 Bft)
07.09.2016 15:26 20,4 C 20,4 C 70 % 1018,0 hPa 0,0 mm 3,4 km/h (1 Bft) NW 324 1 min 0,000 mm 3,8 UV-I 599 W/m 14,7 C 6,4 km/h (2 Bft)
07.09.2016 15:27 20,4 C 20,4 C 69 % 1018,0 hPa 0,0 mm 3,2 km/h (1 Bft) N 355 1 min 0,000 mm 3,8 UV-I 592 W/m 14,5 C 4,8 km/h (1 Bft)
07.09.2016 15:28 20,5 C 20,5 C 71 % 1017,9 hPa 0,0 mm 5,1 km/h (1 Bft) N 5 1 min 0,000 mm 3,7 UV-I 584 W/m 15,1 C 6,4 km/h (2 Bft)
07.09.2016 15:29 20,4 C 20,5 C 70 % 1017,9 hPa 0,0 mm 1,7 km/h (1 Bft) N 5 1 min 0,000 mm 3,7 UV-I 585 W/m 14,7 C 4,8 km/h (1 Bft)
07.09.2016 15:30 20,4 C 20,4 C 70 % 1017,9 hPa 0,0 mm 4,6 km/h (1 Bft) N 355 1 min 0,000 mm 3,7 UV-I 577 W/m 14,7 C 11,3 km/h (2 Bft)
07.09.2016 15:31 20,3 C 20,4 C 71 % 1017,9 hPa 0,0 mm 6,2 km/h (2 Bft) N-NW 331 1 min 0,000 mm 3,7 UV-I 575 W/m 14,9 C 9,7 km/h (2 Bft)
07.09.2016 15:32 20,3 C 20,3 C 71 % 1017,9 hPa 0,0 mm 5,9 km/h (2 Bft) N-NO 25 1 min 0,000 mm 3,7 UV-I 575 W/m 14,9 C 6,4 km/h (2 Bft)
07.09.2016 15:33 20,3 C 20,3 C 70 % 1017,9 hPa 0,0 mm 4,0 km/h (1 Bft) N-NO 27 1 min 0,000 mm 3,8 UV-I 582 W/m 14,6 C 6,4 km/h (2 Bft)
07.09.2016 15:34 20,3 C 20,3 C 72 % 1017,9 hPa 0,0 mm 3,5 km/h (1 Bft) N-NO 26 1 min 0,000 mm 3,8 UV-I 582 W/m 15,1 C 6,4 km/h (2 Bft)
07.09.2016 15:35 20,3 C 20,3 C 70 % 1017,9 hPa 0,0 mm 2,4 km/h (1 Bft) O-NO 57 1 min 0,000 mm 3,8 UV-I 580 W/m 14,6 C 3,2 km/h (1 Bft)
07.09.2016 15:36 20,2 C 20,3 C 72 % 1017,9 hPa 0,0 mm 1,9 km/h (1 Bft) O-NO 69 1 min 0,000 mm 3,8 UV-I 580 W/m 15,0 C 4,8 km/h (1 Bft)
07.09.2016 15:37 20,2 C 20,3 C 69 % 1017,9 hPa 0,0 mm 1,7 km/h (1 Bft) O-NO 71 1 min 0,000 mm 3,8 UV-I 582 W/m 14,3 C 3,2 km/h (1 Bft)
07.09.2016 15:38 20,0 C 20,2 C 73 % 1018,0 hPa 0,0 mm 1,6 km/h (1 Bft) O 80 1 min 0,000 mm 3,8 UV-I 578 W/m 15,0 C 3,2 km/h (1 Bft)
07.09.2016 15:39 19,9 C 20,0 C 75 % 1017,9 hPa 0,0 mm 5,3 km/h (1 Bft) O-NO 74 1 min 0,000 mm 3,8 UV-I 575 W/m 15,3 C 6,4 km/h (2 Bft)
07.09.2016 15:40 19,9 C 19,9 C 73 % 1017,9 hPa 0,0 mm 5,1 km/h (1 Bft) O-SO 107 1 min 0,000 mm 3,8 UV-I 573 W/m 14,9 C 6,4 km/h (2 Bft)
07.09.2016 15:41 19,9 C 19,9 C 72 % 1017,9 hPa 0,0 mm 3,0 km/h (1 Bft) NO 47 1 min 0,000 mm 3,7 UV-I 571 W/m 14,7 C 4,8 km/h (1 Bft)
07.09.2016 15:42 20,0 C 20,0 C 75 % 1017,9 hPa 0,0 mm 3,4 km/h (1 Bft) NO 38 1 min 0,000 mm 3,7 UV-I 570 W/m 15,4 C 6,4 km/h (2 Bft)
07.09.2016 15:43 20,0 C 20,0 C 72 % 1017,8 hPa 0,0 mm 2,8 km/h (1 Bft) O 101 1 min 0,000 mm 3,7 UV-I 568 W/m 14,8 C 4,8 km/h (1 Bft)
07.09.2016 15:44 20,1 C 20,1 C 73 % 1017,8 hPa 0,0 mm 6,2 km/h (2 Bft) N-NO 14 1 min 0,000 mm 3,7 UV-I 566 W/m 15,1 C 12,9 km/h (3 Bft)
07.09.2016 15:45 20,2 C 20,2 C 70 % 1017,8 hPa 0,0 mm 8,3 km/h (2 Bft) N 9 1 min 0,000 mm 3,7 UV-I 561 W/m 14,5 C 12,9 km/h (3 Bft)
07.09.2016 15:46 20,3 C 20,3 C 71 % 1017,8 hPa 0,0 mm 5,7 km/h (1 Bft) N-NW 327 1 min 0,000 mm 3,6 UV-I 559 W/m 14,9 C 6,4 km/h (2 Bft)
07.09.2016 15:47 20,2 C 20,3 C 70 % 1017,8 hPa 0,0 mm 4,8 km/h (1 Bft) N-NW 337 1 min 0,000 mm 3,6 UV-I 557 W/m 14,5 C 8,0 km/h (2 Bft)
07.09.2016 15:48 20,3 C 20,3 C 70 % 1017,7 hPa 0,0 mm 4,7 km/h (1 Bft) N-NW 344 1 min 0,000 mm 3,6 UV-I 555 W/m 14,6 C 6,4 km/h (2 Bft)
07.09.2016 15:49 20,3 C 20,3 C 70 % 1017,7 hPa 0,0 mm 2,1 km/h (1 Bft) W-NW 292 1 min 0,000 mm 3,6 UV-I 554 W/m 14,6 C 3,2 km/h (1 Bft)
07.09.2016 15:50 20,2 C 20,3 C 70 % 1017,7 hPa 0,0 mm 4,0 km/h (1 Bft) NW 322 1 min 0,000 mm 3,6 UV-I 550 W/m 14,5 C 4,8 km/h (1 Bft)
07.09.2016 15:51 20,2 C 20,2 C 71 % 1017,6 hPa 0,0 mm 2,6 km/h (1 Bft) N-NW 338 1 min 0,000 mm 3,5 UV-I 548 W/m 14,8 C 4,8 km/h (1 Bft)
07.09.2016 15:52 20,3 C 20,3 C 71 % 1017,7 hPa 0,0 mm 3,8 km/h (1 Bft) N-NW 344 1 min 0,000 mm 3,5 UV-I 545 W/m 14,9 C 4,8 km/h (1 Bft)
07.09.2016 15:53 20,3 C 20,3 C 69 % 1017,6 hPa 0,0 mm 0,9 km/h (0 Bft) NO 52 1 min 0,000 mm 3,5 UV-I 541 W/m 14,4 C 3,2 km/h (1 Bft)
07.09.2016 15:54 20,3 C 20,3 C 70 % 1017,6 hPa 0,0 mm 4,3 km/h (1 Bft) NO 52 1 min 0,000 mm 3,5 UV-I 541 W/m 14,6 C 6,4 km/h (2 Bft)
07.09.2016 15:55 20,3 C 20,3 C 72 % 1017,5 hPa 0,0 mm 3,0 km/h (1 Bft) O-NO 58 1 min 0,000 mm 3,4 UV-I 540 W/m 15,1 C 4,8 km/h (1 Bft)
07.09.2016 15:56 20,2 C 20,3 C 73 % 1017,5 hPa 0,0 mm 2,7 km/h (1 Bft) O-NO 65 1 min 0,000 mm 3,4 UV-I 536 W/m 15,2 C 4,8 km/h (1 Bft)
07.09.2016 15:57 20,2 C 20,2 C 72 % 1017,5 hPa 0,0 mm 3,0 km/h (1 Bft) O 84 1 min 0,000 mm 3,4 UV-I 531 W/m 15,0 C 6,4 km/h (2 Bft)
07.09.2016 15:58 20,2 C 20,2 C 71 % 1017,5 hPa 0,0 mm 3,2 km/h (1 Bft) O 80 1 min 0,000 mm 3,4 UV-I 531 W/m 14,8 C 6,4 km/h (2 Bft)
07.09.2016 15:59 20,2 C 20,2 C 70 % 1017,6 hPa 0,0 mm 2,7 km/h (1 Bft) O 84 1 min 0,000 mm 3,4 UV-I 527 W/m 14,5 C 6,4 km/h (2 Bft)
07.09.2016 16:00 20,2 C 20,2 C 70 % 1017,6 hPa 0,0 mm 4,1 km/h (1 Bft) O 84 1 min 0,000 mm 3,3 UV-I 527 W/m 14,5 C 6,4 km/h (2 Bft)
07.09.2016 16:01 20,1 C 20,2 C 70 % 1017,5 hPa 0,0 mm 1,6 km/h (1 Bft) O 84 1 min 0,355 mm 3,3 UV-I 526 W/m 14,5 C 3,2 km/h (1 Bft)
07.09.2016 16:02 20,1 C 20,2 C 71 % 1017,6 hPa 0,0 mm 2,1 km/h (1 Bft) O 84 1 min 0,000 mm 3,3 UV-I 522 W/m 14,7 C 3,2 km/h (1 Bft)
07.09.2016 16:03 20,2 C 20,2 C 74 % 1017,5 hPa 0,0 mm 3,0 km/h (1 Bft) O 93 1 min 0,000 mm 3,3 UV-I 519 W/m 15,4 C 6,4 km/h (2 Bft)
07.09.2016 16:04 20,2 C 20,2 C 71 % 1017,5 hPa 0,0 mm 1,8 km/h (1 Bft) O 93 1 min 0,000 mm 3,2 UV-I 517 W/m 14,8 C 3,2 km/h (1 Bft)
07.09.2016 16:05 20,2 C 20,2 C 75 % 1017,5 hPa 0,0 mm 4,9 km/h (1 Bft) NO 55 1 min 0,000 mm 3,2 UV-I 513 W/m 15,6 C 8,0 km/h (2 Bft)
07.09.2016 16:06 20,2 C 20,2 C 70 % 1017,6 hPa 0,0 mm 1,7 km/h (1 Bft) NO 55 1 min 0,000 mm 3,2 UV-I 512 W/m 14,5 C 3,2 km/h (1 Bft)
07.09.2016 16:07 20,2 C 20,2 C 70 % 1017,5 hPa 0,0 mm 1,5 km/h (1 Bft) NO 55 1 min 0,000 mm 3,2 UV-I 512 W/m 14,5 C 3,2 km/h (1 Bft)
07.09.2016 16:08 20,4 C 20,4 C 75 % 1017,5 hPa 0,0 mm 1,3 km/h (1 Bft) O-NO 62 1 min 0,000 mm 3,2 UV-I 510 W/m 15,8 C 1,6 km/h (1 Bft)
07.09.2016 16:09 20,4 C 20,4 C 70 % 1017,4 hPa 0,0 mm 2,0 km/h (1 Bft) O 94 1 min 0,000 mm 3,1 UV-I 506 W/m 14,7 C 3,2 km/h (1 Bft)
07.09.2016 16:10 20,4 C 20,4 C 71 % 1017,4 hPa 0,0 mm 1,1 km/h (1 Bft) O 85 1 min 0,000 mm 3,1 UV-I 504 W/m 15,0 C 3,2 km/h (1 Bft)
07.09.2016 16:11 20,5 C 20,5 C 70 % 1017,4 hPa 0,0 mm 1,5 km/h (1 Bft) O 85 1 min 0,000 mm 3,1 UV-I 504 W/m 14,8 C 3,2 km/h (1 Bft)
07.09.2016 16:12 20,5 C 20,5 C 74 % 1017,4 hPa 0,0 mm 1,8 km/h (1 Bft) O-NO 75 1 min 0,000 mm 3,1 UV-I 503 W/m 15,7 C 6,4 km/h (2 Bft)
07.09.2016 16:13 20,4 C 20,5 C 71 % 1017,4 hPa 0,0 mm 6,2 km/h (2 Bft) O-NO 72 1 min 0,000 mm 3,1 UV-I 501 W/m 15,0 C 8,0 km/h (2 Bft)
07.09.2016 16:14 20,4 C 20,5 C 71 % 1017,4 hPa 0,0 mm 1,3 km/h (1 Bft) O 80 1 min 0,000 mm 3,1 UV-I 497 W/m 15,0 C 4,8 km/h (1 Bft)
07.09.2016 16:15 20,5 C 20,5 C 69 % 1017,4 hPa 0,0 mm 1,9 km/h (1 Bft) S-SO 159 1 min 0,000 mm 3,1 UV-I 496 W/m 14,6 C 3,2 km/h (1 Bft)
07.09.2016 16:16 20,4 C 20,5 C 72 % 1017,4 hPa 0,0 mm 3,3 km/h (1 Bft) O 92 1 min 0,000 mm 3,0 UV-I 492 W/m 15,2 C 4,8 km/h (1 Bft)
07.09.2016 16:17 20,4 C 20,4 C 71 % 1017,4 hPa 0,0 mm 3,8 km/h (1 Bft) O 82 1 min 0,000 mm 3,0 UV-I 489 W/m 15,0 C 6,4 km/h (2 Bft)
07.09.2016 16:18 20,4 C 20,4 C 71 % 1017,4 hPa 0,0 mm 5,2 km/h (1 Bft) O 95 1 min 0,000 mm 2,9 UV-I 483 W/m 15,0 C 9,7 km/h (2 Bft)
07.09.2016 16:19 20,4 C 20,4 C 72 % 1017,4 hPa 0,0 mm 4,8 km/h (1 Bft) NO 48 1 min 0,000 mm 2,2 UV-I 401 W/m 15,2 C 8,0 km/h (2 Bft)
07.09.2016 16:20 20,4 C 20,4 C 71 % 1017,4 hPa 0,0 mm 5,4 km/h (1 Bft) O-NO 74 1 min 0,000 mm 1,7 UV-I 401 W/m 15,0 C 11,3 km/h (2 Bft)
07.09.2016 16:21 20,4 C 20,4 C 72 % 1017,3 hPa 0,0 mm 4,4 km/h (1 Bft) O-NO 58 0 min 0,000 mm 0,0 UV-I 39 W/m 15,2 C 11,3 km/h (2 Bft)
07.09.2016 16:22 20,3 C 20,4 C 71 % 1017,4 hPa 0,0 mm 7,3 km/h (2 Bft) O 98 0 min 0,000 mm 0,0 UV-I 39 W/m 14,9 C 11,3 km/h (2 Bft)
07.09.2016 16:23 20,3 C 20,3 C 71 % 1017,4 hPa 0,0 mm 6,8 km/h (2 Bft) O 82 0 min 0,000 mm 0,0 UV-I 39 W/m 14,9 C 9,7 km/h (2 Bft)
07.09.2016 16:24 20,3 C 20,3 C 73 % 1017,4 hPa 0,0 mm 6,0 km/h (2 Bft) NO 53 0 min 0,000 mm 0,0 UV-I 39 W/m 15,3 C 8,0 km/h (2 Bft)
07.09.2016 16:25 20,4 C 20,4 C 72 % 1017,4 hPa 0,0 mm 5,5 km/h (1 Bft) O 92 0 min 0,000 mm 0,0 UV-I 54 W/m 15,2 C 8,0 km/h (2 Bft)
07.09.2016 16:26 20,4 C 20,4 C 72 % 1017,4 hPa 0,0 mm 4,4 km/h (1 Bft) O-NO 75 0 min 0,000 mm 1,7 UV-I 51 W/m 15,2 C 6,4 km/h (2 Bft)
07.09.2016 16:27 20,4 C 20,4 C 73 % 1017,4 hPa 0,0 mm 2,5 km/h (1 Bft) NO 56 0 min 0,000 mm 0,0 UV-I 54 W/m 15,4 C 6,4 km/h (2 Bft)
07.09.2016 16:28 20,3 C 20,4 C 74 % 1017,4 hPa 0,0 mm 2,9 km/h (1 Bft) O-NO 78 0 min 0,000 mm 1,8 UV-I 86 W/m 15,5 C 4,8 km/h (1 Bft)
07.09.2016 16:29 20,3 C 20,3 C 72 % 1017,3 hPa 0,0 mm 2,1 km/h (1 Bft) O-NO 73 0 min 0,000 mm 1,8 UV-I 141 W/m 15,1 C 4,8 km/h (1 Bft)
07.09.2016 16:30 20,3 C 20,3 C 74 % 1017,3 hPa 0,0 mm 2,3 km/h (1 Bft) N 360 0 min 0,000 mm 1,7 UV-I 116 W/m 15,5 C 4,8 km/h (1 Bft)
07.09.2016 16:31 20,3 C 20,3 C 74 % 1017,3 hPa 0,0 mm 3,8 km/h (1 Bft) N-NW 348 0 min 0,000 mm 1,5 UV-I 74 W/m 15,5 C 4,8 km/h (1 Bft)
07.09.2016 16:32 20,3 C 20,3 C 79 % 1017,3 hPa 0,0 mm 3,6 km/h (1 Bft) O-SO 118 0 min 0,000 mm 1,5 UV-I 116 W/m 16,5 C 6,4 km/h (2 Bft)
07.09.2016 16:33 20,2 C 20,3 C 73 % 1017,3 hPa 0,0 mm 3,4 km/h (1 Bft) O-NO 65 1 min 0,000 mm 2,3 UV-I 373 W/m 15,2 C 6,4 km/h (2 Bft)
07.09.2016 16:34 20,2 C 20,2 C 72 % 1017,3 hPa 0,0 mm 4,2 km/h (1 Bft) O-SO 111 1 min 0,000 mm 2,0 UV-I 373 W/m 15,0 C 6,4 km/h (2 Bft)
07.09.2016 16:35 20,2 C 20,2 C 71 % 1017,3 hPa 0,0 mm 3,0 km/h (1 Bft) N-NO 27 1 min 0,000 mm 1,8 UV-I 373 W/m 14,8 C 6,4 km/h (2 Bft)
07.09.2016 16:36 20,2 C 20,2 C 73 % 1017,2 hPa 0,0 mm 2,9 km/h (1 Bft) O-SO 111 0 min 0,000 mm 1,7 UV-I 86 W/m 15,2 C 4,8 km/h (1 Bft)
07.09.2016 16:37 20,2 C 20,2 C 72 % 1017,3 hPa 0,0 mm 3,0 km/h (1 Bft) O-NO 72 0 min 0,000 mm 1,7 UV-I 72 W/m 15,0 C 4,8 km/h (1 Bft)
07.09.2016 16:38 20,3 C 20,3 C 73 % 1017,3 hPa 0,0 mm 4,2 km/h (1 Bft) N-NO 23 0 min 0,000 mm 1,8 UV-I 111 W/m 15,3 C 8,0 km/h (2 Bft)
07.09.2016 16:39 20,4 C 20,4 C 73 % 1017,3 hPa 0,0 mm 6,3 km/h (2 Bft) NO 35 0 min 0,000 mm 0,0 UV-I 46 W/m 15,4 C 9,7 km/h (2 Bft)
07.09.2016 16:40 20,4 C 20,5 C 75 % 1017,3 hPa 0,0 mm 2,1 km/h (1 Bft) NO 35 0 min 0,000 mm 0,0 UV-I 39 W/m 15,8 C 4,8 km/h (1 Bft)
07.09.2016 16:41 20,4 C 20,4 C 75 % 1017,3 hPa 0,0 mm 6,8 km/h (2 Bft) NO 39 0 min 0,000 mm 0,0 UV-I 35 W/m 15,8 C 14,5 km/h (3 Bft)
07.09.2016 16:42 20,4 C 20,4 C 74 % 1017,3 hPa 0,0 mm 5,0 km/h (1 Bft) O-NO 57 0 min 0,000 mm 0,0 UV-I 39 W/m 15,6 C 11,3 km/h (2 Bft)
07.09.2016 16:43 20,3 C 20,4 C 72 % 1017,3 hPa 0,0 mm 4,2 km/h (1 Bft) O-SO 111 0 min 0,000 mm 0,0 UV-I 42 W/m 15,1 C 6,4 km/h (2 Bft)
07.09.2016 16:44 20,3 C 20,3 C 74 % 1017,3 hPa 0,0 mm 4,5 km/h (1 Bft) O-NO 63 0 min 0,000 mm 0,0 UV-I 40 W/m 15,5 C 8,0 km/h (2 Bft)
07.09.2016 16:45 20,2 C 20,3 C 72 % 1017,3 hPa 0,0 mm 4,7 km/h (1 Bft) O-NO 78 0 min 0,000 mm 0,0 UV-I 37 W/m 15,0 C 8,0 km/h (2 Bft)
07.09.2016 16:46 20,1 C 20,2 C 72 % 1017,3 hPa 0,0 mm 4,5 km/h (1 Bft) NO 37 0 min 0,000 mm 0,0 UV-I 37 W/m 14,9 C 8,0 km/h (2 Bft)
07.09.2016 16:47 20,2 C 20,2 C 72 % 1017,2 hPa 0,0 mm 1,1 km/h (1 Bft) NO 49 0 min 0,000 mm 0,0 UV-I 35 W/m 15,0 C 3,2 km/h (1 Bft)
07.09.2016 16:48 20,2 C 20,2 C 72 % 1017,3 hPa 0,0 mm 3,8 km/h (1 Bft) O-NO 77 0 min 0,000 mm 0,0 UV-I 35 W/m 15,0 C 6,4 km/h (2 Bft)
07.09.2016 16:49 20,2 C 20,2 C 74 % 1017,3 hPa 0,0 mm 3,9 km/h (1 Bft) NO 50 0 min 0,000 mm 0,0 UV-I 33 W/m 15,4 C 6,4 km/h (2 Bft)
07.09.2016 16:50 20,2 C 20,2 C 74 % 1017,3 hPa 0,0 mm 3,7 km/h (1 Bft) NO 49 0 min 0,000 mm 0,0 UV-I 33 W/m 15,4 C 4,8 km/h (1 Bft)
07.09.2016 16:51 20,2 C 20,2 C 72 % 1017,2 hPa 0,0 mm 5,0 km/h (1 Bft) O 86 0 min 0,000 mm 0,0 UV-I 33 W/m 15,0 C 6,4 km/h (2 Bft)
07.09.2016 16:52 20,3 C 20,3 C 72 % 1017,2 hPa 0,0 mm 7,8 km/h (2 Bft) O-NO 57 0 min 0,000 mm 0,0 UV-I 35 W/m 15,1 C 11,3 km/h (2 Bft)
07.09.2016 16:53 20,2 C 20,3 C 71 % 1017,2 hPa 0,0 mm 8,4 km/h (2 Bft) NO 47 0 min 0,000 mm 0,0 UV-I 35 W/m 14,8 C 9,7 km/h (2 Bft)
07.09.2016 16:54 20,2 C 20,2 C 71 % 1017,2 hPa 0,0 mm 6,2 km/h (2 Bft) O-NO 66 0 min 0,000 mm 0,0 UV-I 33 W/m 14,8 C 8,0 km/h (2 Bft)
07.09.2016 16:55 20,2 C 20,2 C 71 % 1017,1 hPa 0,0 mm 5,3 km/h (1 Bft) NO 44 0 min 0,000 mm 0,0 UV-I 33 W/m 14,8 C 8,0 km/h (2 Bft)
07.09.2016 16:56 20,2 C 20,2 C 71 % 1017,2 hPa 0,0 mm 6,4 km/h (2 Bft) O-NO 77 0 min 0,000 mm 0,0 UV-I 33 W/m 14,8 C 8,0 km/h (2 Bft)
07.09.2016 16:57 20,3 C 20,3 C 73 % 1017,1 hPa 0,0 mm 4,9 km/h (1 Bft) NO 39 0 min 0,000 mm 0,0 UV-I 33 W/m 15,3 C 6,4 km/h (2 Bft)
07.09.2016 16:58 20,3 C 20,3 C 73 % 1017,2 hPa 0,0 mm 2,6 km/h (1 Bft) O-NO 61 0 min 0,000 mm 0,0 UV-I 33 W/m 15,3 C 6,4 km/h (2 Bft)
07.09.2016 16:59 20,3 C 20,3 C 72 % 1017,2 hPa 0,0 mm 3,0 km/h (1 Bft) NO 47 0 min 0,000 mm 0,0 UV-I 33 W/m 15,1 C 4,8 km/h (1 Bft)
07.09.2016 17:00 20,3 C 20,3 C 72 % 1017,2 hPa 0,0 mm 5,5 km/h (1 Bft) O-NO 58 0 min 0,000 mm 0,0 UV-I 33 W/m 15,1 C 8,0 km/h (2 Bft)
07.09.2016 17:01 20,3 C 20,3 C 72 % 1017,2 hPa 0,0 mm 4,1 km/h (1 Bft) O-NO 69 0 min 0,127 mm 0,0 UV-I 33 W/m 15,1 C 6,4 km/h (2 Bft)
07.09.2016 17:02 20,3 C 20,3 C 71 % 1017,2 hPa 0,0 mm 4,0 km/h (1 Bft) N-NW 345 0 min 0,000 mm 0,0 UV-I 33 W/m 14,9 C 4,8 km/h (1 Bft)
07.09.2016 17:03 20,3 C 20,3 C 71 % 1017,2 hPa 0,0 mm 4,3 km/h (1 Bft) N 5 0 min 0,000 mm 0,0 UV-I 33 W/m 14,9 C 8,0 km/h (2 Bft)
07.09.2016 17:04 20,3 C 20,3 C 72 % 1017,1 hPa 0,0 mm 3,3 km/h (1 Bft) NO 44 0 min 0,000 mm 0,0 UV-I 33 W/m 15,1 C 4,8 km/h (1 Bft)
07.09.2016 17:05 20,3 C 20,3 C 71 % 1017,2 hPa 0,0 mm 3,1 km/h (1 Bft) NO 36 0 min 0,000 mm 0,0 UV-I 33 W/m 14,9 C 4,8 km/h (1 Bft)
07.09.2016 17:06 20,3 C 20,3 C 72 % 1017,1 hPa 0,0 mm 4,2 km/h (1 Bft) N 10 0 min 0,000 mm 0,0 UV-I 33 W/m 15,1 C 4,8 km/h (1 Bft)
07.09.2016 17:07 20,3 C 20,3 C 71 % 1017,2 hPa 0,0 mm 5,4 km/h (1 Bft) O 80 0 min 0,000 mm 0,0 UV-I 35 W/m 14,9 C 8,0 km/h (2 Bft)
07.09.2016 17:08 20,3 C 20,3 C 72 % 1017,1 hPa 0,0 mm 4,3 km/h (1 Bft) NO 41 0 min 0,000 mm 0,0 UV-I 37 W/m 15,1 C 6,4 km/h (2 Bft)
07.09.2016 17:09 20,3 C 20,3 C 71 % 1017,2 hPa 0,0 mm 5,0 km/h (1 Bft) NO 53 0 min 0,000 mm 0,0 UV-I 33 W/m 14,9 C 6,4 km/h (2 Bft)
07.09.2016 17:10 20,3 C 20,3 C 71 % 1017,1 hPa 0,0 mm 5,4 km/h (1 Bft) O-NO 73 0 min 0,000 mm 0,0 UV-I 33 W/m 14,9 C 8,0 km/h (2 Bft)
07.09.2016 17:11 20,3 C 20,3 C 71 % 1017,2 hPa 0,0 mm 11,4 km/h (2 Bft) O 80 0 min 0,000 mm 0,0 UV-I 33 W/m 14,9 C 16,1 km/h (3 Bft)
07.09.2016 17:12 20,3 C 20,3 C 72 % 1017,1 hPa 0,0 mm 3,8 km/h (1 Bft) NO 36 0 min 0,000 mm 0,0 UV-I 33 W/m 15,1 C 6,4 km/h (2 Bft)
07.09.2016 17:13 20,3 C 20,3 C 71 % 1017,1 hPa 0,0 mm 4,3 km/h (1 Bft) NO 42 0 min 0,000 mm 0,0 UV-I 32 W/m 14,9 C 6,4 km/h (2 Bft)
07.09.2016 17:14 20,2 C 20,3 C 71 % 1017,1 hPa 0,0 mm 5,8 km/h (2 Bft) NO 46 0 min 0,000 mm 0,0 UV-I 32 W/m 14,8 C 9,7 km/h (2 Bft)
07.09.2016 17:15 20,2 C 20,2 C 71 % 1017,1 hPa 0,0 mm 6,6 km/h (2 Bft) O-NO 73 0 min 0,000 mm 0,0 UV-I 32 W/m 14,8 C 9,7 km/h (2 Bft)
07.09.2016 17:16 20,2 C 20,2 C 71 % 1017,1 hPa 0,0 mm 3,8 km/h (1 Bft) NO 50 0 min 0,000 mm 0,0 UV-I 32 W/m 14,8 C 6,4 km/h (2 Bft)
07.09.2016 17:17 20,2 C 20,2 C 71 % 1017,1 hPa 0,0 mm 6,4 km/h (2 Bft) O-NO 76 0 min 0,000 mm 0,0 UV-I 32 W/m 14,8 C 11,3 km/h (2 Bft)
07.09.2016 17:18 20,1 C 20,2 C 71 % 1017,1 hPa 0,0 mm 6,3 km/h (2 Bft) O-NO 69 0 min 0,000 mm 0,0 UV-I 32 W/m 14,7 C 8,0 km/h (2 Bft)
07.09.2016 17:19 20,1 C 20,2 C 73 % 1017,1 hPa 0,0 mm 5,1 km/h (1 Bft) O 86 0 min 0,000 mm 0,0 UV-I 32 W/m 15,1 C 8,0 km/h (2 Bft)
07.09.2016 17:20 20,1 C 20,1 C 72 % 1017,1 hPa 0,0 mm 4,4 km/h (1 Bft) O 79 0 min 0,000 mm 0,0 UV-I 32 W/m 14,9 C 6,4 km/h (2 Bft)
07.09.2016 17:21 20,0 C 20,1 C 71 % 1017,1 hPa 0,0 mm 2,5 km/h (1 Bft) NO 40 0 min 0,000 mm 0,0 UV-I 33 W/m 14,6 C 4,8 km/h (1 Bft)
07.09.2016 17:22 20,1 C 20,1 C 72 % 1017,1 hPa 0,0 mm 5,4 km/h (1 Bft) NO 42 0 min 0,000 mm 0,0 UV-I 33 W/m 14,9 C 8,0 km/h (2 Bft)
07.09.2016 17:23 20,1 C 20,1 C 76 % 1017,1 hPa 0,0 mm 6,1 km/h (2 Bft) N-NO 26 0 min 0,000 mm 0,0 UV-I 32 W/m 15,7 C 11,3 km/h (2 Bft)
07.09.2016 17:24 20,0 C 20,1 C 73 % 1017,1 hPa 0,0 mm 5,2 km/h (1 Bft) N-NO 30 0 min 0,000 mm 0,0 UV-I 32 W/m 15,0 C 8,0 km/h (2 Bft)
07.09.2016 17:25 20,1 C 20,1 C 74 % 1017,1 hPa 0,0 mm 3,5 km/h (1 Bft) NO 39 0 min 0,000 mm 0,0 UV-I 32 W/m 15,3 C 6,4 km/h (2 Bft)
07.09.2016 17:26 20,0 C 20,1 C 75 % 1017,1 hPa 0,0 mm 4,4 km/h (1 Bft) NO 47 0 min 0,000 mm 0,0 UV-I 32 W/m 15,4 C 6,4 km/h (2 Bft)
07.09.2016 17:27 19,9 C 20,0 C 76 % 1017,0 hPa 0,0 mm 1,9 km/h (1 Bft) NO 40 0 min 0,000 mm 0,0 UV-I 33 W/m 15,5 C 4,8 km/h (1 Bft)
07.09.2016 17:28 19,8 C 19,9 C 73 % 1017,0 hPa 0,0 mm 3,8 km/h (1 Bft) NO 40 0 min 0,000 mm 0,0 UV-I 44 W/m 14,8 C 4,8 km/h (1 Bft)
07.09.2016 17:29 19,9 C 19,9 C 73 % 1017,0 hPa 0,0 mm 5,7 km/h (1 Bft) NO 40 0 min 0,000 mm 0,0 UV-I 40 W/m 14,9 C 8,0 km/h (2 Bft)
07.09.2016 17:30 19,9 C 19,9 C 73 % 1017,1 hPa 0,0 mm 6,0 km/h (2 Bft) O-NO 61 0 min 0,000 mm 0,0 UV-I 30 W/m 14,9 C 9,7 km/h (2 Bft)
07.09.2016 17:31 19,9 C 19,9 C 73 % 1017,0 hPa 0,0 mm 3,6 km/h (1 Bft) N-NW 341 0 min 0,000 mm 0,0 UV-I 30 W/m 14,9 C 6,4 km/h (2 Bft)
07.09.2016 17:32 19,9 C 19,9 C 73 % 1017,0 hPa 0,0 mm 3,7 km/h (1 Bft) N-NO 26 0 min 0,000 mm 0,0 UV-I 33 W/m 14,9 C 4,8 km/h (1 Bft)
07.09.2016 17:33 19,9 C 19,9 C 74 % 1017,1 hPa 0,0 mm 4,8 km/h (1 Bft) O-NO 64 0 min 0,000 mm 0,0 UV-I 35 W/m 15,1 C 8,0 km/h (2 Bft)
07.09.2016 17:34 20,0 C 20,0 C 73 % 1017,1 hPa 0,0 mm 4,4 km/h (1 Bft) O 84 0 min 0,000 mm 0,0 UV-I 30 W/m 15,0 C 6,4 km/h (2 Bft)
07.09.2016 17:35 20,1 C 20,1 C 72 % 1017,0 hPa 0,0 mm 1,8 km/h (1 Bft) O-SO 115 0 min 0,000 mm 0,0 UV-I 30 W/m 14,9 C 4,8 km/h (1 Bft)
07.09.2016 17:36 20,0 C 20,1 C 73 % 1017,0 hPa 0,0 mm 4,0 km/h (1 Bft) NO 53 0 min 0,000 mm 0,0 UV-I 30 W/m 15,0 C 6,4 km/h (2 Bft)
07.09.2016 17:37 20,0 C 20,0 C 73 % 1017,0 hPa 0,0 mm 2,6 km/h (1 Bft) NO 49 0 min 0,000 mm 0,0 UV-I 30 W/m 15,0 C 4,8 km/h (1 Bft)
07.09.2016 17:38 19,9 C 20,0 C 73 % 1017,0 hPa 0,0 mm 4,4 km/h (1 Bft) O 87 0 min 0,000 mm 0,0 UV-I 30 W/m 14,9 C 6,4 km/h (2 Bft)
07.09.2016 17:39 19,9 C 19,9 C 73 % 1017,0 hPa 0,0 mm 2,5 km/h (1 Bft) N 11 0 min 0,000 mm 0,0 UV-I 30 W/m 14,9 C 4,8 km/h (1 Bft)
07.09.2016 17:40 19,9 C 20,0 C 72 % 1017,0 hPa 0,0 mm 4,5 km/h (1 Bft) NO 54 0 min 0,000 mm 0,0 UV-I 30 W/m 14,7 C 8,0 km/h (2 Bft)
07.09.2016 17:41 20,0 C 20,0 C 73 % 1016,9 hPa 0,0 mm 2,7 km/h (1 Bft) O-NO 66 0 min 0,000 mm 0,0 UV-I 30 W/m 15,0 C 4,8 km/h (1 Bft)
07.09.2016 17:42 20,0 C 20,0 C 73 % 1016,9 hPa 0,0 mm 3,4 km/h (1 Bft) O-NO 63 0 min 0,000 mm 0,0 UV-I 30 W/m 15,0 C 6,4 km/h (2 Bft)
07.09.2016 17:43 20,0 C 20,0 C 74 % 1016,9 hPa 0,0 mm 1,9 km/h (1 Bft) O-NO 57 0 min 0,000 mm 0,0 UV-I 30 W/m 15,2 C 3,2 km/h (1 Bft)
07.09.2016 17:44 19,9 C 20,0 C 73 % 1017,0 hPa 0,0 mm 4,0 km/h (1 Bft) N-NO 15 0 min 0,000 mm 0,0 UV-I 28 W/m 14,9 C 11,3 km/h (2 Bft)
07.09.2016 17:45 19,9 C 19,9 C 73 % 1016,9 hPa 0,0 mm 4,3 km/h (1 Bft) NO 38 0 min 0,000 mm 0,0 UV-I 28 W/m 14,9 C 9,7 km/h (2 Bft)
07.09.2016 17:46 19,9 C 19,9 C 73 % 1016,9 hPa 0,0 mm 3,5 km/h (1 Bft) NO 54 0 min 0,000 mm 0,0 UV-I 28 W/m 14,9 C 6,4 km/h (2 Bft)
07.09.2016 17:47 19,9 C 19,9 C 73 % 1016,9 hPa 0,0 mm 4,3 km/h (1 Bft) N-NO 33 0 min 0,000 mm 0,0 UV-I 28 W/m 14,9 C 8,0 km/h (2 Bft)
07.09.2016 17:48 19,9 C 19,9 C 73 % 1016,9 hPa 0,0 mm 3,4 km/h (1 Bft) NW 325 0 min 0,000 mm 0,0 UV-I 28 W/m 14,9 C 4,8 km/h (1 Bft)
07.09.2016 17:49 19,9 C 19,9 C 73 % 1016,9 hPa 0,0 mm 2,1 km/h (1 Bft) NO 38 0 min 0,000 mm 0,0 UV-I 28 W/m 14,9 C 3,2 km/h (1 Bft)
07.09.2016 17:50 19,9 C 19,9 C 73 % 1016,9 hPa 0,0 mm 3,1 km/h (1 Bft) NO 45 0 min 0,000 mm 0,0 UV-I 28 W/m 14,9 C 4,8 km/h (1 Bft)
07.09.2016 17:51 19,9 C 19,9 C 73 % 1016,9 hPa 0,0 mm 2,9 km/h (1 Bft) N-NO 33 0 min 0,000 mm 0,0 UV-I 28 W/m 14,9 C 4,8 km/h (1 Bft)
07.09.2016 17:52 19,9 C 19,9 C 74 % 1016,9 hPa 0,0 mm 1,7 km/h (1 Bft) N-NO 15 0 min 0,000 mm 0,0 UV-I 28 W/m 15,1 C 4,8 km/h (1 Bft)
07.09.2016 17:53 19,8 C 19,9 C 74 % 1016,9 hPa 0,0 mm 2,4 km/h (1 Bft) O-NO 62 0 min 0,000 mm 0,0 UV-I 28 W/m 15,0 C 4,8 km/h (1 Bft)
07.09.2016 17:54 19,8 C 19,8 C 74 % 1016,9 hPa 0,0 mm 3,0 km/h (1 Bft) O-NO 64 0 min 0,000 mm 0,0 UV-I 28 W/m 15,0 C 6,4 km/h (2 Bft)
07.09.2016 17:55 19,8 C 19,8 C 73 % 1016,9 hPa 0,0 mm 1,7 km/h (1 Bft) O 86 0 min 0,000 mm 0,0 UV-I 28 W/m 14,8 C 3,2 km/h (1 Bft)
07.09.2016 17:56 19,8 C 19,8 C 73 % 1016,9 hPa 0,0 mm 3,6 km/h (1 Bft) NO 53 0 min 0,000 mm 0,0 UV-I 28 W/m 14,8 C 6,4 km/h (2 Bft)
07.09.2016 17:57 19,8 C 19,8 C 72 % 1016,9 hPa 0,0 mm 2,7 km/h (1 Bft) NO 42 0 min 0,000 mm 0,0 UV-I 28 W/m 14,6 C 6,4 km/h (2 Bft)
07.09.2016 17:58 19,8 C 19,8 C 74 % 1016,8 hPa 0,0 mm 2,6 km/h (1 Bft) NO 42 0 min 0,000 mm 0,0 UV-I 28 W/m 15,0 C 4,8 km/h (1 Bft)
07.09.2016 17:59 19,8 C 19,8 C 73 % 1016,8 hPa 0,0 mm 4,0 km/h (1 Bft) N-NO 21 0 min 0,000 mm 0,0 UV-I 26 W/m 14,8 C 6,4 km/h (2 Bft)
07.09.2016 18:00 19,9 C 19,9 C 74 % 1016,9 hPa 0,0 mm 3,0 km/h (1 Bft) O-NO 61 0 min 0,000 mm 0,0 UV-I 26 W/m 15,1 C 4,8 km/h (1 Bft)
07.09.2016 18:01 19,8 C 19,9 C 73 % 1016,8 hPa 0,0 mm 1,9 km/h (1 Bft) NO 37 0 min 0,051 mm 0,0 UV-I 26 W/m 14,8 C 3,2 km/h (1 Bft)
07.09.2016 18:02 19,8 C 19,9 C 73 % 1016,8 hPa 0,0 mm 3,1 km/h (1 Bft) O-NO 60 0 min 0,000 mm 0,0 UV-I 26 W/m 14,8 C 4,8 km/h (1 Bft)
07.09.2016 18:03 19,8 C 19,8 C 73 % 1016,8 hPa 0,0 mm 2,1 km/h (1 Bft) NO 50 0 min 0,000 mm 0,0 UV-I 26 W/m 14,8 C 6,4 km/h (2 Bft)
07.09.2016 18:04 19,8 C 19,8 C 73 % 1016,8 hPa 0,0 mm 3,8 km/h (1 Bft) NO 45 0 min 0,000 mm 0,0 UV-I 26 W/m 14,8 C 4,8 km/h (1 Bft)
07.09.2016 18:05 19,8 C 19,8 C 74 % 1016,8 hPa 0,0 mm 4,3 km/h (1 Bft) NO 52 0 min 0,000 mm 0,0 UV-I 26 W/m 15,0 C 6,4 km/h (2 Bft)
07.09.2016 18:06 19,7 C 19,8 C 74 % 1016,8 hPa 0,0 mm 1,7 km/h (1 Bft) NO 53 0 min 0,000 mm 0,0 UV-I 26 W/m 14,9 C 3,2 km/h (1 Bft)
07.09.2016 18:07 19,7 C 19,7 C 74 % 1016,8 hPa 0,0 mm 3,2 km/h (1 Bft) NO 43 0 min 0,000 mm 0,0 UV-I 26 W/m 14,9 C 3,2 km/h (1 Bft)
07.09.2016 18:08 19,7 C 19,7 C 74 % 1016,8 hPa 0,0 mm 2,3 km/h (1 Bft) O-NO 58 0 min 0,000 mm 0,0 UV-I 26 W/m 14,9 C 3,2 km/h (1 Bft)
07.09.2016 18:09 19,7 C 19,7 C 74 % 1016,7 hPa 0,0 mm 1,7 km/h (1 Bft) O-NO 76 0 min 0,000 mm 0,0 UV-I 26 W/m 14,9 C 3,2 km/h (1 Bft)
07.09.2016 18:10 19,7 C 19,7 C 74 % 1016,7 hPa 0,0 mm 3,9 km/h (1 Bft) NO 36 0 min 0,000 mm 0,0 UV-I 26 W/m 14,9 C 4,8 km/h (1 Bft)
07.09.2016 18:11 19,6 C 19,7 C 75 % 1016,7 hPa 0,0 mm 1,9 km/h (1 Bft) NO 36 0 min 0,000 mm 0,0 UV-I 26 W/m 15,0 C 4,8 km/h (1 Bft)
07.09.2016 18:12 19,6 C 19,6 C 74 % 1016,7 hPa 0,0 mm 2,1 km/h (1 Bft) NO 37 0 min 0,000 mm 0,0 UV-I 26 W/m 14,8 C 3,2 km/h (1 Bft)
07.09.2016 18:13 19,6 C 19,6 C 75 % 1016,7 hPa 0,0 mm 1,9 km/h (1 Bft) O-NO 61 0 min 0,000 mm 0,0 UV-I 26 W/m 15,0 C 3,2 km/h (1 Bft)
07.09.2016 18:14 19,4 C 19,6 C 76 % 1016,7 hPa 0,0 mm 2,3 km/h (1 Bft) O-NO 76 0 min 0,000 mm 0,0 UV-I 25 W/m 15,1 C 3,2 km/h (1 Bft)
07.09.2016 18:15 19,3 C 19,4 C 76 % 1016,7 hPa 0,0 mm 2,5 km/h (1 Bft) O 88 0 min 0,000 mm 0,0 UV-I 25 W/m 15,0 C 3,2 km/h (1 Bft)
07.09.2016 18:16 19,3 C 19,3 C 75 % 1016,7 hPa 0,0 mm 1,5 km/h (1 Bft) S-SO 150 0 min 0,000 mm 0,0 UV-I 25 W/m 14,8 C 3,2 km/h (1 Bft)
07.09.2016 18:17 19,3 C 19,3 C 75 % 1016,7 hPa 0,0 mm 2,7 km/h (1 Bft) SO 130 0 min 0,000 mm 0,0 UV-I 25 W/m 14,8 C 3,2 km/h (1 Bft)
07.09.2016 18:18 19,3 C 19,4 C 76 % 1016,7 hPa 0,0 mm 1,0 km/h (0 Bft) SO 130 0 min 0,000 mm 0,0 UV-I 25 W/m 15,0 C 1,6 km/h (1 Bft)
07.09.2016 18:19 19,3 C 19,4 C 76 % 1016,7 hPa 0,0 mm 2,4 km/h (1 Bft) SO 130 0 min 0,000 mm 0,0 UV-I 25 W/m 15,0 C 3,2 km/h (1 Bft)
07.09.2016 18:20 19,4 C 19,4 C 76 % 1016,6 hPa 0,0 mm 1,1 km/h (1 Bft) SO 130 0 min 0,000 mm 0,0 UV-I 25 W/m 15,1 C 3,2 km/h (1 Bft)
07.09.2016 18:21 19,4 C 19,4 C 76 % 1016,6 hPa 0,0 mm 1,2 km/h (1 Bft) SO 130 0 min 0,000 mm 0,0 UV-I 25 W/m 15,1 C 3,2 km/h (1 Bft)
07.09.2016 18:22 19,3 C 19,4 C 76 % 1016,6 hPa 0,0 mm 1,4 km/h (1 Bft) SO 130 0 min 0,000 mm 0,0 UV-I 25 W/m 15,0 C 3,2 km/h (1 Bft)
07.09.2016 18:23 19,3 C 19,3 C 76 % 1016,6 hPa 0,0 mm 2,7 km/h (1 Bft) O 86 0 min 0,000 mm 0,0 UV-I 25 W/m 15,0 C 6,4 km/h (2 Bft)
07.09.2016 18:24 19,2 C 19,3 C 77 % 1016,6 hPa 0,0 mm 3,2 km/h (1 Bft) O-NO 77 0 min 0,000 mm 0,0 UV-I 25 W/m 15,1 C 4,8 km/h (1 Bft)
07.09.2016 18:25 19,2 C 19,2 C 76 % 1016,6 hPa 0,0 mm 1,5 km/h (1 Bft) O-NO 77 0 min 0,000 mm 0,0 UV-I 25 W/m 14,9 C 3,2 km/h (1 Bft)
07.09.2016 18:26 19,1 C 19,2 C 77 % 1016,5 hPa 0,0 mm 1,1 km/h (1 Bft) O-NO 77 0 min 0,000 mm 0,0 UV-I 23 W/m 15,0 C 1,6 km/h (1 Bft)
07.09.2016 18:27 19,1 C 19,1 C 77 % 1016,4 hPa 0,0 mm 0,2 km/h (0 Bft) O-NO 77 0 min 0,000 mm 0,0 UV-I 23 W/m 15,0 C 1,6 km/h (1 Bft)
07.09.2016 18:28 18,9 C 19,1 C 78 % 1016,5 hPa 0,0 mm 0,4 km/h (0 Bft) O-NO 77 0 min 0,000 mm 0,0 UV-I 23 W/m 15,0 C 1,6 km/h (1 Bft)
07.09.2016 18:29 18,9 C 18,9 C 79 % 1016,5 hPa 0,0 mm 1,5 km/h (1 Bft) O-NO 77 0 min 0,000 mm 0,0 UV-I 23 W/m 15,2 C 3,2 km/h (1 Bft)
07.09.2016 18:30 18,9 C 18,9 C 77 % 1016,5 hPa 0,0 mm 1,3 km/h (1 Bft) O-NO 77 0 min 0,000 mm 0,0 UV-I 23 W/m 14,8 C 3,2 km/h (1 Bft)
07.09.2016 18:31 18,9 C 18,9 C 78 % 1016,4 hPa 0,0 mm 1,4 km/h (1 Bft) O-NO 77 0 min 0,000 mm 0,0 UV-I 23 W/m 15,0 C 3,2 km/h (1 Bft)
07.09.2016 18:32 18,9 C 18,9 C 78 % 1016,5 hPa 0,0 mm 0,5 km/h (0 Bft) O-NO 77 0 min 0,000 mm 0,0 UV-I 23 W/m 15,0 C 1,6 km/h (1 Bft)
07.09.2016 18:33 18,9 C 18,9 C 77 % 1016,5 hPa 0,0 mm 0,1 km/h (0 Bft) O-NO 77 0 min 0,000 mm 0,0 UV-I 23 W/m 14,8 C 1,6 km/h (1 Bft)
07.09.2016 18:34 18,9 C 18,9 C 78 % 1016,4 hPa 0,0 mm 0,6 km/h (0 Bft) O-NO 77 0 min 0,000 mm 0,0 UV-I 23 W/m 15,0 C 1,6 km/h (1 Bft)
07.09.2016 18:35 18,8 C 18,9 C 77 % 1016,4 hPa 0,0 mm 1,5 km/h (1 Bft) O-NO 77 0 min 0,000 mm 0,0 UV-I 25 W/m 14,7 C 1,6 km/h (1 Bft)
07.09.2016 18:36 18,8 C 18,8 C 78 % 1016,3 hPa 0,0 mm 0,2 km/h (0 Bft) O-NO 77 0 min 0,000 mm 0,0 UV-I 23 W/m 14,9 C 1,6 km/h (1 Bft)
07.09.2016 18:37 18,7 C 18,8 C 78 % 1016,4 hPa 0,0 mm 0,9 km/h (0 Bft) O-NO 77 0 min 0,000 mm 0,0 UV-I 23 W/m 14,8 C 3,2 km/h (1 Bft)
07.09.2016 18:38 18,7 C 18,8 C 78 % 1016,3 hPa 0,0 mm 1,0 km/h (0 Bft) O-NO 77 0 min 0,000 mm 0,0 UV-I 21 W/m 14,8 C 3,2 km/h (1 Bft)
07.09.2016 18:39 18,6 C 18,7 C 79 % 1016,3 hPa 0,0 mm 0,9 km/h (0 Bft) O-NO 77 0 min 0,000 mm 0,0 UV-I 21 W/m 14,9 C 1,6 km/h (1 Bft)
07.09.2016 18:40 18,6 C 18,6 C 79 % 1016,3 hPa 0,0 mm 0,7 km/h (0 Bft) O-NO 77 0 min 0,000 mm 0,0 UV-I 21 W/m 14,9 C 1,6 km/h (1 Bft)
07.09.2016 18:41 18,6 C 18,6 C 79 % 1016,3 hPa 0,0 mm 0,5 km/h (0 Bft) O-NO 77 0 min 0,000 mm 0,0 UV-I 21 W/m 14,9 C 1,6 km/h (1 Bft)
07.09.2016 18:42 18,4 C 18,6 C 80 % 1016,3 hPa 0,0 mm 0,7 km/h (0 Bft) O-NO 77 0 min 0,000 mm 0,0 UV-I 21 W/m 14,9 C 1,6 km/h (1 Bft)
07.09.2016 18:43 18,4 C 18,4 C 79 % 1016,2 hPa 0,0 mm 0,7 km/h (0 Bft) O-NO 77 0 min 0,000 mm 0,0 UV-I 21 W/m 14,7 C 3,2 km/h (1 Bft)
07.09.2016 18:44 18,4 C 18,4 C 80 % 1016,3 hPa 0,0 mm 1,7 km/h (1 Bft) O-NO 77 0 min 0,000 mm 0,0 UV-I 21 W/m 14,9 C 3,2 km/h (1 Bft)
07.09.2016 18:45 18,3 C 18,4 C 79 % 1016,3 hPa 0,0 mm 0,8 km/h (0 Bft) O-NO 77 0 min 0,000 mm 0,0 UV-I 25 W/m 14,6 C 1,6 km/h (1 Bft)
07.09.2016 18:46 18,4 C 18,4 C 79 % 1016,2 hPa 0,0 mm 0,1 km/h (0 Bft) O-NO 77 0 min 0,000 mm 0,0 UV-I 26 W/m 14,7 C 1,6 km/h (1 Bft)
07.09.2016 18:47 18,3 C 18,4 C 79 % 1016,3 hPa 0,0 mm 1,6 km/h (1 Bft) O-NO 77 0 min 0,000 mm 0,0 UV-I 21 W/m 14,6 C 3,2 km/h (1 Bft)
07.09.2016 18:48 18,3 C 18,3 C 79 % 1016,3 hPa 0,0 mm 1,4 km/h (1 Bft) O-NO 77 0 min 0,000 mm 0,0 UV-I 21 W/m 14,6 C 3,2 km/h (1 Bft)
07.09.2016 18:49 18,3 C 18,3 C 79 % 1016,3 hPa 0,0 mm 1,4 km/h (1 Bft) O-NO 77 0 min 0,000 mm 0,0 UV-I 21 W/m 14,6 C 3,2 km/h (1 Bft)
07.09.2016 18:50 18,3 C 18,3 C 79 % 1016,3 hPa 0,0 mm 1,4 km/h (1 Bft) O-NO 77 0 min 0,000 mm 0,0 UV-I 21 W/m 14,6 C 1,6 km/h (1 Bft)
07.09.2016 18:51 18,4 C 18,4 C 79 % 1016,3 hPa 0,0 mm 1,5 km/h (1 Bft) O-NO 77 0 min 0,000 mm 0,0 UV-I 19 W/m 14,7 C 3,2 km/h (1 Bft)
07.09.2016 18:52 18,3 C 18,4 C 79 % 1016,3 hPa 0,0 mm 0,9 km/h (0 Bft) O-NO 77 0 min 0,000 mm 0,0 UV-I 23 W/m 14,6 C 1,6 km/h (1 Bft)
07.09.2016 18:53 18,3 C 18,4 C 79 % 1016,3 hPa 0,0 mm 2,1 km/h (1 Bft) O-NO 77 0 min 0,000 mm 0,0 UV-I 35 W/m 14,6 C 3,2 km/h (1 Bft)
07.09.2016 18:54 18,4 C 18,4 C 79 % 1016,3 hPa 0,0 mm 1,5 km/h (1 Bft) O-NO 77 0 min 0,000 mm 0,0 UV-I 46 W/m 14,7 C 3,2 km/h (1 Bft)
07.09.2016 18:55 18,3 C 18,4 C 79 % 1016,3 hPa 0,0 mm 1,0 km/h (0 Bft) O-NO 77 0 min 0,000 mm 0,0 UV-I 40 W/m 14,6 C 1,6 km/h (1 Bft)
07.09.2016 18:56 18,4 C 18,4 C 79 % 1016,3 hPa 0,0 mm 1,3 km/h (1 Bft) O-NO 77 0 min 0,000 mm 0,0 UV-I 30 W/m 14,7 C 3,2 km/h (1 Bft)
07.09.2016 18:57 18,4 C 18,4 C 79 % 1016,3 hPa 0,0 mm 1,7 km/h (1 Bft) O-NO 77 0 min 0,000 mm 0,0 UV-I 30 W/m 14,7 C 3,2 km/h (1 Bft)
07.09.2016 18:58 18,4 C 18,4 C 79 % 1016,3 hPa 0,0 mm 1,5 km/h (1 Bft) O-NO 77 0 min 0,000 mm 0,0 UV-I 35 W/m 14,7 C 3,2 km/h (1 Bft)
07.09.2016 18:59 18,4 C 18,4 C 79 % 1016,3 hPa 0,0 mm 0,7 km/h (0 Bft) O-NO 77 0 min 0,000 mm 0,0 UV-I 39 W/m 14,7 C 1,6 km/h (1 Bft)
07.09.2016 19:00 18,3 C 18,4 C 79 % 1016,3 hPa 0,0 mm 1,0 km/h (0 Bft) O-NO 77 0 min 0,000 mm 0,0 UV-I 40 W/m 14,6 C 1,6 km/h (1 Bft)
07.09.2016 19:01 18,3 C 18,3 C 80 % 1016,3 hPa 0,0 mm 1,9 km/h (1 Bft) O-NO 77 0 min 0,025 mm 0,0 UV-I 40 W/m 14,8 C 3,2 km/h (1 Bft)
07.09.2016 19:02 18,3 C 18,3 C 80 % 1016,3 hPa 0,0 mm 1,1 km/h (1 Bft) O-NO 77 0 min 0,001 mm 0,0 UV-I 40 W/m 14,8 C 1,6 km/h (1 Bft)
07.09.2016 19:03 18,3 C 18,3 C 80 % 1016,3 hPa 0,0 mm 1,3 km/h (1 Bft) O-NO 77 0 min 0,000 mm 0,0 UV-I 39 W/m 14,8 C 1,6 km/h (1 Bft)
07.09.2016 19:04 18,3 C 18,3 C 80 % 1016,2 hPa 0,0 mm 1,7 km/h (1 Bft) O-NO 77 0 min 0,000 mm 0,0 UV-I 35 W/m 14,8 C 3,2 km/h (1 Bft)
07.09.2016 19:05 18,3 C 18,3 C 80 % 1016,3 hPa 0,0 mm 0,9 km/h (0 Bft) O-NO 77 0 min 0,000 mm 0,0 UV-I 33 W/m 14,8 C 1,6 km/h (1 Bft)
07.09.2016 19:06 18,3 C 18,3 C 80 % 1016,2 hPa 0,0 mm 1,1 km/h (1 Bft) O-NO 78 0 min 0,000 mm 0,0 UV-I 32 W/m 14,8 C 3,2 km/h (1 Bft)
07.09.2016 19:07 18,3 C 18,3 C 80 % 1016,3 hPa 0,0 mm 0,5 km/h (0 Bft) O-NO 78 0 min 0,000 mm 0,0 UV-I 30 W/m 14,8 C 1,6 km/h (1 Bft)
07.09.2016 19:08 18,2 C 18,3 C 80 % 1016,3 hPa 0,0 mm 1,2 km/h (1 Bft) O-NO 78 0 min 0,000 mm 0,0 UV-I 28 W/m 14,7 C 1,6 km/h (1 Bft)
07.09.2016 19:09 18,2 C 18,2 C 80 % 1016,3 hPa 0,0 mm 1,7 km/h (1 Bft) O-NO 78 0 min 0,000 mm 0,0 UV-I 28 W/m 14,7 C 3,2 km/h (1 Bft)
07.09.2016 19:10 18,2 C 18,2 C 80 % 1016,3 hPa 0,0 mm 1,6 km/h (1 Bft) O-NO 78 0 min 0,000 mm 0,0 UV-I 25 W/m 14,7 C 3,2 km/h (1 Bft)
07.09.2016 19:11 18,2 C 18,2 C 80 % 1016,3 hPa 0,0 mm 1,4 km/h (1 Bft) O-NO 78 0 min 0,000 mm 0,0 UV-I 23 W/m 14,7 C 1,6 km/h (1 Bft)
07.09.2016 19:12 18,1 C 18,2 C 80 % 1016,3 hPa 0,0 mm 1,5 km/h (1 Bft) O-NO 78 0 min 0,000 mm 0,0 UV-I 21 W/m 14,6 C 3,2 km/h (1 Bft)
07.09.2016 19:13 18,1 C 18,1 C 81 % 1016,3 hPa 0,0 mm 1,2 km/h (1 Bft) O-NO 78 0 min 0,000 mm 0,0 UV-I 21 W/m 14,8 C 1,6 km/h (1 Bft)
07.09.2016 19:14 18,1 C 18,1 C 81 % 1016,3 hPa 0,0 mm 1,2 km/h (1 Bft) O-NO 78 0 min 0,000 mm 0,0 UV-I 19 W/m 14,8 C 3,2 km/h (1 Bft)
07.09.2016 19:15 18,1 C 18,1 C 81 % 1016,3 hPa 0,0 mm 0,4 km/h (0 Bft) O-NO 78 0 min 0,000 mm 0,0 UV-I 19 W/m 14,8 C 1,6 km/h (1 Bft)
07.09.2016 19:16 17,9 C 18,1 C 81 % 1016,3 hPa 0,0 mm 0,9 km/h (0 Bft) O-NO 78 0 min 0,000 mm 0,0 UV-I 16 W/m 14,6 C 1,6 km/h (1 Bft)
07.09.2016 19:17 17,9 C 17,9 C 81 % 1016,3 hPa 0,0 mm 1,5 km/h (1 Bft) O-NO 78 0 min 0,000 mm 0,0 UV-I 16 W/m 14,6 C 3,2 km/h (1 Bft)
07.09.2016 19:18 17,8 C 17,9 C 81 % 1016,3 hPa 0,0 mm 0,9 km/h (0 Bft) O-NO 78 0 min 0,000 mm 0,0 UV-I 14 W/m 14,5 C 3,2 km/h (1 Bft)
07.09.2016 19:19 17,8 C 17,8 C 82 % 1016,4 hPa 0,0 mm 1,6 km/h (1 Bft) O 82 0 min 0,000 mm 0,0 UV-I 14 W/m 14,7 C 3,2 km/h (1 Bft)
07.09.2016 19:20 17,7 C 17,8 C 82 % 1016,3 hPa 0,0 mm 2,3 km/h (1 Bft) O 82 0 min 0,000 mm 0,0 UV-I 14 W/m 14,6 C 3,2 km/h (1 Bft)
07.09.2016 19:21 17,7 C 17,7 C 82 % 1016,3 hPa 0,0 mm 1,9 km/h (1 Bft) O 83 0 min 0,000 mm 0,0 UV-I 14 W/m 14,6 C 3,2 km/h (1 Bft)
07.09.2016 19:22 17,7 C 17,7 C 82 % 1016,4 hPa 0,0 mm 2,1 km/h (1 Bft) O 83 0 min 0,000 mm 0,0 UV-I 12 W/m 14,6 C 3,2 km/h (1 Bft)
07.09.2016 19:23 17,6 C 17,7 C 82 % 1016,4 hPa 0,0 mm 2,4 km/h (1 Bft) O 85 0 min 0,000 mm 0,0 UV-I 12 W/m 14,5 C 3,2 km/h (1 Bft)
07.09.2016 19:24 17,6 C 17,7 C 82 % 1016,3 hPa 0,0 mm 1,3 km/h (1 Bft) O 85 0 min 0,000 mm 0,0 UV-I 12 W/m 14,5 C 3,2 km/h (1 Bft)
07.09.2016 19:25 17,6 C 17,6 C 83 % 1016,3 hPa 0,0 mm 1,5 km/h (1 Bft) O 85 0 min 0,000 mm 0,0 UV-I 12 W/m 14,7 C 3,2 km/h (1 Bft)
07.09.2016 19:26 17,4 C 17,6 C 83 % 1016,3 hPa 0,0 mm 2,0 km/h (1 Bft) O 85 0 min 0,000 mm 0,0 UV-I 11 W/m 14,5 C 3,2 km/h (1 Bft)
07.09.2016 19:27 17,3 C 17,4 C 83 % 1016,4 hPa 0,0 mm 1,8 km/h (1 Bft) O 85 0 min 0,000 mm 0,0 UV-I 11 W/m 14,4 C 3,2 km/h (1 Bft)
07.09.2016 19:28 17,2 C 17,3 C 84 % 1016,3 hPa 0,0 mm 1,7 km/h (1 Bft) O 85 0 min 0,000 mm 0,0 UV-I 9 W/m 14,5 C 3,2 km/h (1 Bft)
07.09.2016 19:29 17,1 C 17,2 C 84 % 1016,3 hPa 0,0 mm 1,3 km/h (1 Bft) O 85 0 min 0,000 mm 0,0 UV-I 9 W/m 14,4 C 3,2 km/h (1 Bft)
07.09.2016 19:30 16,9 C 17,1 C 85 % 1016,3 hPa 0,0 mm 1,1 km/h (1 Bft) O 85 0 min 0,000 mm 0,0 UV-I 9 W/m 14,4 C 1,6 km/h (1 Bft)
07.09.2016 19:31 16,9 C 16,9 C 85 % 1016,3 hPa 0,0 mm 0,6 km/h (0 Bft) O 85 0 min 0,000 mm 0,0 UV-I 9 W/m 14,4 C 1,6 km/h (1 Bft)
07.09.2016 19:32 16,9 C 16,9 C 85 % 1016,3 hPa 0,0 mm 0,4 km/h (0 Bft) O 85 0 min 0,000 mm 0,0 UV-I 7 W/m 14,4 C 1,6 km/h (1 Bft)
07.09.2016 19:33 16,8 C 16,9 C 85 % 1016,3 hPa 0,0 mm 0,6 km/h (0 Bft) O 85 0 min 0,000 mm 0,0 UV-I 7 W/m 14,3 C 1,6 km/h (1 Bft)
07.09.2016 19:34 16,8 C 16,8 C 85 % 1016,3 hPa 0,0 mm 0,5 km/h (0 Bft) O 85 0 min 0,000 mm 0,0 UV-I 7 W/m 14,3 C 1,6 km/h (1 Bft)
07.09.2016 19:35 16,7 C 16,8 C 85 % 1016,3 hPa 0,0 mm 0,6 km/h (0 Bft) O 85 0 min 0,000 mm 0,0 UV-I 7 W/m 14,2 C 1,6 km/h (1 Bft)
07.09.2016 19:36 16,6 C 16,7 C 85 % 1016,3 hPa 0,0 mm 0,3 km/h (0 Bft) O 85 0 min 0,000 mm 0,0 UV-I 7 W/m 14,1 C 1,6 km/h (1 Bft)
07.09.2016 19:37 16,4 C 16,6 C 86 % 1016,3 hPa 0,0 mm 0,0 km/h (0 Bft) O 85 0 min 0,000 mm 0,0 UV-I 7 W/m 14,1 C 0,0 km/h (0 Bft)
07.09.2016 19:38 16,3 C 16,4 C 86 % 1016,3 hPa 0,0 mm 0,0 km/h (0 Bft) O 85 0 min 0,000 mm 0,0 UV-I 5 W/m 14,0 C 0,0 km/h (0 Bft)
07.09.2016 19:39 16,2 C 16,3 C 87 % 1016,3 hPa 0,0 mm 0,0 km/h (0 Bft) O 85 0 min 0,000 mm 0,0 UV-I 5 W/m 14,0 C 0,0 km/h (0 Bft)
07.09.2016 19:40 16,1 C 16,2 C 87 % 1016,3 hPa 0,0 mm 0,0 km/h (0 Bft) O 85 0 min 0,000 mm 0,0 UV-I 5 W/m 13,9 C 0,0 km/h (0 Bft)
07.09.2016 19:41 16,1 C 16,1 C 87 % 1016,3 hPa 0,0 mm 0,0 km/h (0 Bft) O 85 0 min 0,000 mm 0,0 UV-I 5 W/m 13,9 C 0,0 km/h (0 Bft)
07.09.2016 19:42 16,1 C 16,1 C 88 % 1016,3 hPa 0,0 mm 0,0 km/h (0 Bft) O 85 0 min 0,000 mm 0,0 UV-I 5 W/m 14,1 C 0,0 km/h (0 Bft)
07.09.2016 19:43 16,1 C 16,1 C 88 % 1016,3 hPa 0,0 mm 0,0 km/h (0 Bft) O 86 0 min 0,000 mm 0,0 UV-I 5 W/m 14,1 C 0,0 km/h (0 Bft)
07.09.2016 19:44 16,1 C 16,1 C 88 % 1016,3 hPa 0,0 mm 0,0 km/h (0 Bft) O 94 0 min 0,000 mm 0,0 UV-I 0 W/m 14,1 C 0,0 km/h (0 Bft)
07.09.2016 19:45 16,0 C 16,1 C 88 % 1016,2 hPa 0,0 mm 0,7 km/h (0 Bft) O-SO 113 0 min 0,000 mm 0,0 UV-I 0 W/m 14,0 C 3,2 km/h (1 Bft)
07.09.2016 19:46 16,0 C 16,1 C 88 % 1016,3 hPa 0,0 mm 0,9 km/h (0 Bft) O-SO 113 0 min 0,000 mm 0,0 UV-I 0 W/m 14,0 C 1,6 km/h (1 Bft)
07.09.2016 19:47 16,0 C 16,0 C 88 % 1016,3 hPa 0,0 mm 0,7 km/h (0 Bft) O-SO 113 0 min 0,000 mm 0,0 UV-I 0 W/m 14,0 C 1,6 km/h (1 Bft)
07.09.2016 19:48 15,9 C 16,0 C 88 % 1016,2 hPa 0,0 mm 0,8 km/h (0 Bft) O-SO 113 0 min 0,000 mm 0,0 UV-I 0 W/m 13,9 C 1,6 km/h (1 Bft)
07.09.2016 19:49 15,9 C 15,9 C 88 % 1016,3 hPa 0,0 mm 0,9 km/h (0 Bft) O-SO 113 0 min 0,000 mm 0,0 UV-I 0 W/m 13,9 C 1,6 km/h (1 Bft)
07.09.2016 19:50 15,9 C 15,9 C 88 % 1016,3 hPa 0,0 mm 1,5 km/h (1 Bft) O-SO 113 0 min 0,000 mm 0,0 UV-I 0 W/m 13,9 C 1,6 km/h (1 Bft)
07.09.2016 19:51 15,8 C 15,9 C 88 % 1016,3 hPa 0,0 mm 1,5 km/h (1 Bft) O-SO 113 0 min 0,000 mm 0,0 UV-I 0 W/m 13,8 C 1,6 km/h (1 Bft)
07.09.2016 19:52 15,8 C 15,8 C 88 % 1016,3 hPa 0,0 mm 0,9 km/h (0 Bft) O-SO 113 0 min 0,000 mm 0,0 UV-I 0 W/m 13,8 C 1,6 km/h (1 Bft)
07.09.2016 19:53 15,8 C 15,8 C 88 % 1016,3 hPa 0,0 mm 0,7 km/h (0 Bft) O-SO 113 0 min 0,000 mm 0,0 UV-I 0 W/m 13,8 C 1,6 km/h (1 Bft)
07.09.2016 19:54 15,8 C 15,8 C 88 % 1016,3 hPa 0,0 mm 1,1 km/h (1 Bft) O-SO 113 0 min 0,000 mm 0,0 UV-I 0 W/m 13,8 C 1,6 km/h (1 Bft)
07.09.2016 19:55 15,8 C 15,8 C 88 % 1016,3 hPa 0,0 mm 0,5 km/h (0 Bft) O-SO 113 0 min 0,000 mm 0,0 UV-I 0 W/m 13,8 C 1,6 km/h (1 Bft)
07.09.2016 19:56 15,7 C 15,8 C 87 % 1016,3 hPa 0,0 mm 0,3 km/h (0 Bft) O-SO 113 0 min 0,000 mm 0,0 UV-I 0 W/m 13,5 C 1,6 km/h (1 Bft)
07.09.2016 19:57 15,7 C 15,8 C 87 % 1016,3 hPa 0,0 mm 0,5 km/h (0 Bft) O-SO 113 0 min 0,000 mm 0,0 UV-I 0 W/m 13,5 C 1,6 km/h (1 Bft)
07.09.2016 19:58 15,6 C 15,7 C 88 % 1016,3 hPa 0,0 mm 0,8 km/h (0 Bft) O-SO 113 0 min 0,000 mm 0,0 UV-I 0 W/m 13,6 C 1,6 km/h (1 Bft)
07.09.2016 19:59 15,6 C 15,6 C 88 % 1016,3 hPa 0,0 mm 0,9 km/h (0 Bft) O-SO 113 0 min 0,000 mm 0,0 UV-I 0 W/m 13,6 C 1,6 km/h (1 Bft)
07.09.2016 20:00 15,6 C 15,6 C 88 % 1016,3 hPa 0,0 mm 1,4 km/h (1 Bft) O-SO 113 0 min 0,000 mm 0,0 UV-I 0 W/m 13,6 C 3,2 km/h (1 Bft)
07.09.2016 20:01 15,4 C 15,6 C 88 % 1016,3 hPa 0,0 mm 1,6 km/h (1 Bft) O-SO 113 0 min 0,000 mm 0,0 UV-I 0 W/m 13,4 C 3,2 km/h (1 Bft)
07.09.2016 20:02 15,4 C 15,4 C 88 % 1016,4 hPa 0,0 mm 1,7 km/h (1 Bft) O-SO 121 0 min 0,000 mm 0,0 UV-I 0 W/m 13,4 C 3,2 km/h (1 Bft)
07.09.2016 20:03 15,4 C 15,4 C 88 % 1016,4 hPa 0,0 mm 1,7 km/h (1 Bft) O-SO 121 0 min 0,000 mm 0,0 UV-I 0 W/m 13,4 C 3,2 km/h (1 Bft)
07.09.2016 20:04 15,3 C 15,4 C 89 % 1016,4 hPa 0,0 mm 2,0 km/h (1 Bft) O-SO 121 0 min 0,000 mm 0,0 UV-I 0 W/m 13,5 C 3,2 km/h (1 Bft)
07.09.2016 20:05 15,3 C 15,3 C 89 % 1016,4 hPa 0,0 mm 1,9 km/h (1 Bft) O-SO 121 0 min 0,000 mm 0,0 UV-I 0 W/m 13,5 C 3,2 km/h (1 Bft)
07.09.2016 20:06 15,3 C 15,3 C 89 % 1016,4 hPa 0,0 mm 1,9 km/h (1 Bft) O-SO 121 0 min 0,000 mm 0,0 UV-I 0 W/m 13,5 C 3,2 km/h (1 Bft)
07.09.2016 20:07 15,2 C 15,3 C 89 % 1016,3 hPa 0,0 mm 1,1 km/h (1 Bft) O-SO 121 0 min 0,000 mm 0,0 UV-I 0 W/m 13,4 C 1,6 km/h (1 Bft)
07.09.2016 20:08 15,2 C 15,3 C 89 % 1016,3 hPa 0,0 mm 1,3 km/h (1 Bft) O-SO 121 0 min 0,000 mm 0,0 UV-I 0 W/m 13,4 C 1,6 km/h (1 Bft)
07.09.2016 20:09 15,2 C 15,2 C 89 % 1016,4 hPa 0,0 mm 1,8 km/h (1 Bft) O-SO 121 0 min 0,000 mm 0,0 UV-I 0 W/m 13,4 C 3,2 km/h (1 Bft)
07.09.2016 20:10 15,1 C 15,2 C 89 % 1016,4 hPa 0,0 mm 1,3 km/h (1 Bft) O-SO 121 0 min 0,000 mm 0,0 UV-I 0 W/m 13,3 C 1,6 km/h (1 Bft)
07.09.2016 20:11 15,0 C 15,1 C 89 % 1016,4 hPa 0,0 mm 0,3 km/h (0 Bft) O-SO 121 0 min 0,000 mm 0,0 UV-I 0 W/m 13,2 C 1,6 km/h (1 Bft)
07.09.2016 20:12 14,9 C 15,0 C 89 % 1016,4 hPa 0,0 mm 0,0 km/h (0 Bft) O-SO 121 0 min 0,000 mm 0,0 UV-I 0 W/m 13,1 C 0,0 km/h (0 Bft)
07.09.2016 20:13 14,8 C 14,9 C 89 % 1016,4 hPa 0,0 mm 0,9 km/h (0 Bft) O-SO 121 0 min 0,000 mm 0,0 UV-I 0 W/m 13,0 C 1,6 km/h (1 Bft)
07.09.2016 20:14 14,8 C 14,8 C 90 % 1016,4 hPa 0,0 mm 1,5 km/h (1 Bft) O-SO 121 0 min 0,000 mm 0,0 UV-I 0 W/m 13,2 C 3,2 km/h (1 Bft)
07.09.2016 20:15 14,7 C 14,8 C 90 % 1016,4 hPa 0,0 mm 1,1 km/h (1 Bft) O-SO 121 0 min 0,000 mm 0,0 UV-I 0 W/m 13,1 C 1,6 km/h (1 Bft)
07.09.2016 20:16 14,8 C 14,8 C 90 % 1016,4 hPa 0,0 mm 0,5 km/h (0 Bft) O-SO 121 0 min 0,000 mm 0,0 UV-I 0 W/m 13,2 C 1,6 km/h (1 Bft)
07.09.2016 20:17 14,7 C 14,8 C 90 % 1016,4 hPa 0,0 mm 0,2 km/h (0 Bft) O-SO 121 0 min 0,000 mm 0,0 UV-I 0 W/m 13,1 C 1,6 km/h (1 Bft)
07.09.2016 20:18 14,7 C 14,7 C 90 % 1016,4 hPa 0,0 mm 0,0 km/h (0 Bft) O-SO 121 0 min 0,000 mm 0,0 UV-I 0 W/m 13,1 C 0,0 km/h (0 Bft)
07.09.2016 20:19 14,7 C 14,7 C 90 % 1016,4 hPa 0,0 mm 0,4 km/h (0 Bft) O-SO 121 0 min 0,000 mm 0,0 UV-I 0 W/m 13,1 C 1,6 km/h (1 Bft)
07.09.2016 20:20 14,6 C 14,7 C 90 % 1016,4 hPa 0,0 mm 1,9 km/h (1 Bft) O-SO 121 0 min 0,000 mm 0,0 UV-I 0 W/m 13,0 C 3,2 km/h (1 Bft)
07.09.2016 20:21 14,5 C 14,7 C 89 % 1016,4 hPa 0,0 mm 1,7 km/h (1 Bft) O-SO 121 0 min 0,000 mm 0,0 UV-I 0 W/m 12,7 C 3,2 km/h (1 Bft)
07.09.2016 20:22 14,4 C 14,5 C 89 % 1016,4 hPa 0,0 mm 1,5 km/h (1 Bft) O-SO 121 0 min 0,000 mm 0,0 UV-I 0 W/m 12,6 C 3,2 km/h (1 Bft)
07.09.2016 20:23 14,3 C 14,4 C 90 % 1016,4 hPa 0,0 mm 1,8 km/h (1 Bft) O-SO 121 0 min 0,000 mm 0,0 UV-I 0 W/m 12,7 C 3,2 km/h (1 Bft)
07.09.2016 20:24 14,3 C 14,3 C 90 % 1016,4 hPa 0,0 mm 1,3 km/h (1 Bft) O-SO 121 0 min 0,000 mm 0,0 UV-I 0 W/m 12,7 C 3,2 km/h (1 Bft)
07.09.2016 20:25 14,3 C 14,3 C 91 % 1016,4 hPa 0,0 mm 2,1 km/h (1 Bft) O-SO 121 0 min 0,000 mm 0,0 UV-I 0 W/m 12,8 C 3,2 km/h (1 Bft)
07.09.2016 20:26 14,3 C 14,3 C 91 % 1016,4 hPa 0,0 mm 2,7 km/h (1 Bft) O-SO 121 0 min 0,000 mm 0,0 UV-I 0 W/m 12,8 C 3,2 km/h (1 Bft)
07.09.2016 20:27 14,3 C 14,3 C 91 % 1016,4 hPa 0,0 mm 0,9 km/h (0 Bft) O-SO 121 0 min 0,000 mm 0,0 UV-I 0 W/m 12,8 C 1,6 km/h (1 Bft)
07.09.2016 20:28 14,3 C 14,3 C 91 % 1016,3 hPa 0,0 mm 0,9 km/h (0 Bft) O-SO 121 0 min 0,000 mm 0,0 UV-I 0 W/m 12,8 C 1,6 km/h (1 Bft)
07.09.2016 20:29 14,3 C 14,3 C 91 % 1016,3 hPa 0,0 mm 0,0 km/h (0 Bft) O-SO 121 0 min 0,000 mm 0,0 UV-I 0 W/m 12,8 C 0,0 km/h (0 Bft)
07.09.2016 20:30 14,3 C 14,3 C 90 % 1016,3 hPa 0,0 mm 0,4 km/h (0 Bft) O-SO 121 0 min 0,000 mm 0,0 UV-I 0 W/m 12,7 C 1,6 km/h (1 Bft)
07.09.2016 20:31 14,2 C 14,3 C 90 % 1016,3 hPa 0,0 mm 0,8 km/h (0 Bft) O-SO 121 0 min 0,000 mm 0,0 UV-I 0 W/m 12,6 C 1,6 km/h (1 Bft)
07.09.2016 20:32 14,2 C 14,2 C 91 % 1016,3 hPa 0,0 mm 0,3 km/h (0 Bft) O-SO 121 0 min 0,000 mm 0,0 UV-I 0 W/m 12,8 C 1,6 km/h (1 Bft)
07.09.2016 20:33 14,1 C 14,2 C 91 % 1016,3 hPa 0,0 mm 0,7 km/h (0 Bft) O-SO 121 0 min 0,000 mm 0,0 UV-I 0 W/m 12,7 C 1,6 km/h (1 Bft)
07.09.2016 20:34 14,1 C 14,1 C 90 % 1016,4 hPa 0,0 mm 1,0 km/h (0 Bft) O-SO 121 0 min 0,000 mm 0,0 UV-I 0 W/m 12,5 C 1,6 km/h (1 Bft)
07.09.2016 20:35 14,1 C 14,1 C 91 % 1016,3 hPa 0,0 mm 1,1 km/h (1 Bft) O-SO 121 0 min 0,000 mm 0,0 UV-I 0 W/m 12,7 C 1,6 km/h (1 Bft)
07.09.2016 20:36 14,0 C 14,1 C 91 % 1016,4 hPa 0,0 mm 1,8 km/h (1 Bft) O-SO 121 0 min 0,000 mm 0,0 UV-I 0 W/m 12,6 C 3,2 km/h (1 Bft)
07.09.2016 20:37 13,9 C 14,0 C 91 % 1016,3 hPa 0,0 mm 1,5 km/h (1 Bft) O-SO 121 0 min 0,000 mm 0,0 UV-I 0 W/m 12,5 C 3,2 km/h (1 Bft)
07.09.2016 20:38 13,9 C 13,9 C 91 % 1016,4 hPa 0,0 mm 1,4 km/h (1 Bft) O-SO 121 0 min 0,000 mm 0,0 UV-I 0 W/m 12,5 C 3,2 km/h (1 Bft)
07.09.2016 20:39 13,9 C 13,9 C 92 % 1016,4 hPa 0,0 mm 1,3 km/h (1 Bft) O-SO 121 0 min 0,000 mm 0,0 UV-I 0 W/m 12,6 C 3,2 km/h (1 Bft)
07.09.2016 20:40 13,9 C 13,9 C 92 % 1016,3 hPa 0,0 mm 0,1 km/h (0 Bft) O-SO 121 0 min 0,000 mm 0,0 UV-I 0 W/m 12,6 C 1,6 km/h (1 Bft)
07.09.2016 20:41 13,9 C 13,9 C 92 % 1016,3 hPa 0,0 mm 0,5 km/h (0 Bft) O-SO 121 0 min 0,000 mm 0,0 UV-I 0 W/m 12,6 C 3,2 km/h (1 Bft)
07.09.2016 20:42 14,0 C 14,0 C 92 % 1016,3 hPa 0,0 mm 0,7 km/h (0 Bft) O-SO 121 0 min 0,000 mm 0,0 UV-I 0 W/m 12,7 C 1,6 km/h (1 Bft)
07.09.2016 20:43 13,9 C 14,0 C 91 % 1016,4 hPa 0,0 mm 1,1 km/h (1 Bft) O-SO 121 0 min 0,000 mm 0,0 UV-I 0 W/m 12,5 C 1,6 km/h (1 Bft)
07.09.2016 20:44 13,9 C 13,9 C 92 % 1016,3 hPa 0,0 mm 0,8 km/h (0 Bft) O-SO 121 0 min 0,000 mm 0,0 UV-I 0 W/m 12,6 C 1,6 km/h (1 Bft)
07.09.2016 20:45 13,9 C 13,9 C 92 % 1016,3 hPa 0,0 mm 0,0 km/h (0 Bft) O-SO 121 0 min 0,000 mm 0,0 UV-I 0 W/m 12,6 C 0,0 km/h (0 Bft)
07.09.2016 20:46 13,9 C 13,9 C 92 % 1016,3 hPa 0,0 mm 0,0 km/h (0 Bft) O-SO 121 0 min 0,000 mm 0,0 UV-I 0 W/m 12,6 C 0,0 km/h (0 Bft)
07.09.2016 20:47 13,9 C 13,9 C 92 % 1016,3 hPa 0,0 mm 0,0 km/h (0 Bft) O-SO 121 0 min 0,000 mm 0,0 UV-I 0 W/m 12,6 C 0,0 km/h (0 Bft)
07.09.2016 20:48 13,9 C 13,9 C 92 % 1016,3 hPa 0,0 mm 0,0 km/h (0 Bft) O-SO 121 0 min 0,000 mm 0,0 UV-I 0 W/m 12,6 C 0,0 km/h (0 Bft)
07.09.2016 20:49 13,9 C 13,9 C 92 % 1016,3 hPa 0,0 mm 0,0 km/h (0 Bft) O-SO 121 0 min 0,000 mm 0,0 UV-I 0 W/m 12,6 C 0,0 km/h (0 Bft)
07.09.2016 20:50 13,9 C 13,9 C 92 % 1016,3 hPa 0,0 mm 0,0 km/h (0 Bft) O-SO 121 0 min 0,000 mm 0,0 UV-I 0 W/m 12,6 C 0,0 km/h (0 Bft)
07.09.2016 20:51 13,9 C 14,0 C 92 % 1016,3 hPa 0,0 mm 0,0 km/h (0 Bft) O-SO 121 0 min 0,000 mm 0,0 UV-I 0 W/m 12,6 C 0,0 km/h (0 Bft)
07.09.2016 20:52 14,0 C 14,0 C 92 % 1016,3 hPa 0,0 mm 0,0 km/h (0 Bft) O-SO 121 0 min 0,000 mm 0,0 UV-I 0 W/m 12,7 C 0,0 km/h (0 Bft)
07.09.2016 20:53 14,0 C 14,0 C 92 % 1016,3 hPa 0,0 mm 0,1 km/h (0 Bft) O-SO 121 0 min 0,000 mm 0,0 UV-I 0 W/m 12,7 C 1,6 km/h (1 Bft)
07.09.2016 20:54 14,1 C 14,1 C 92 % 1016,3 hPa 0,0 mm 0,0 km/h (0 Bft) O-SO 121 0 min 0,000 mm 0,0 UV-I 0 W/m 12,8 C 0,0 km/h (0 Bft)
07.09.2016 20:55 14,1 C 14,1 C 92 % 1016,3 hPa 0,0 mm 0,9 km/h (0 Bft) O-SO 121 0 min 0,000 mm 0,0 UV-I 0 W/m 12,8 C 1,6 km/h (1 Bft)
07.09.2016 20:56 14,1 C 14,1 C 91 % 1016,3 hPa 0,0 mm 0,6 km/h (0 Bft) O-SO 121 0 min 0,000 mm 0,0 UV-I 0 W/m 12,7 C 1,6 km/h (1 Bft)
07.09.2016 20:57 14,2 C 14,2 C 91 % 1016,3 hPa 0,0 mm 0,5 km/h (0 Bft) O-SO 121 0 min 0,000 mm 0,0 UV-I 0 W/m 12,8 C 1,6 km/h (1 Bft)
07.09.2016 20:58 14,2 C 14,2 C 92 % 1016,3 hPa 0,0 mm 0,3 km/h (0 Bft) O-SO 121 0 min 0,000 mm 0,0 UV-I 0 W/m 12,9 C 1,6 km/h (1 Bft)
07.09.2016 20:59 14,2 C 14,2 C 91 % 1016,3 hPa 0,0 mm 0,0 km/h (0 Bft) O-SO 121 0 min 0,000 mm 0,0 UV-I 0 W/m 12,8 C 0,0 km/h (0 Bft)
07.09.2016 21:00 14,2 C 14,2 C 91 % 1016,3 hPa 0,0 mm 0,0 km/h (0 Bft) O-SO 121 0 min 0,000 mm 0,0 UV-I 0 W/m 12,8 C 0,0 km/h (0 Bft)
07.09.2016 21:01 14,1 C 14,2 C 91 % 1016,3 hPa 0,0 mm 0,0 km/h (0 Bft) O-SO 121 0 min 0,000 mm 0,0 UV-I 0 W/m 12,7 C 0,0 km/h (0 Bft)
07.09.2016 21:02 14,1 C 14,1 C 91 % 1016,3 hPa 0,0 mm 0,0 km/h (0 Bft) O-SO 121 0 min 0,000 mm 0,0 UV-I 0 W/m 12,7 C 0,0 km/h (0 Bft)
07.09.2016 21:03 14,1 C 14,1 C 91 % 1016,3 hPa 0,0 mm 0,0 km/h (0 Bft) O-SO 121 0 min 0,000 mm 0,0 UV-I 0 W/m 12,7 C 0,0 km/h (0 Bft)
07.09.2016 21:04 14,0 C 14,1 C 91 % 1016,3 hPa 0,0 mm 0,0 km/h (0 Bft) O-SO 121 0 min 0,000 mm 0,0 UV-I 0 W/m 12,6 C 0,0 km/h (0 Bft)
07.09.2016 21:05 13,9 C 14,0 C 91 % 1016,3 hPa 0,0 mm 0,0 km/h (0 Bft) O-SO 121 0 min 0,000 mm 0,0 UV-I 0 W/m 12,5 C 0,0 km/h (0 Bft)
07.09.2016 21:06 13,9 C 13,9 C 91 % 1016,3 hPa 0,0 mm 0,0 km/h (0 Bft) O-SO 121 0 min 0,000 mm 0,0 UV-I 0 W/m 12,5 C 0,0 km/h (0 Bft)
07.09.2016 21:07 13,9 C 13,9 C 92 % 1016,3 hPa 0,0 mm 0,0 km/h (0 Bft) O-SO 121 0 min 0,000 mm 0,0 UV-I 0 W/m 12,6 C 0,0 km/h (0 Bft)
07.09.2016 21:08 13,9 C 13,9 C 92 % 1016,3 hPa 0,0 mm 0,0 km/h (0 Bft) O-SO 121 0 min 0,000 mm 0,0 UV-I 0 W/m 12,6 C 0,0 km/h (0 Bft)
07.09.2016 21:09 13,9 C 13,9 C 92 % 1016,3 hPa 0,0 mm 0,0 km/h (0 Bft) O-SO 121 0 min 0,000 mm 0,0 UV-I 0 W/m 12,6 C 0,0 km/h (0 Bft)
07.09.2016 21:10 13,8 C 13,9 C 92 % 1016,3 hPa 0,0 mm 0,0 km/h (0 Bft) O-SO 121 0 min 0,000 mm 0,0 UV-I 0 W/m 12,5 C 0,0 km/h (0 Bft)
07.09.2016 21:11 13,8 C 13,9 C 92 % 1016,3 hPa 0,0 mm 0,0 km/h (0 Bft) O-SO 121 0 min 0,000 mm 0,0 UV-I 0 W/m 12,5 C 0,0 km/h (0 Bft)
07.09.2016 21:12 13,8 C 13,8 C 92 % 1016,3 hPa 0,0 mm 0,0 km/h (0 Bft) O-SO 121 0 min 0,000 mm 0,0 UV-I 0 W/m 12,5 C 0,0 km/h (0 Bft)
07.09.2016 21:13 13,8 C 13,8 C 92 % 1016,3 hPa 0,0 mm 0,0 km/h (0 Bft) O-SO 121 0 min 0,000 mm 0,0 UV-I 0 W/m 12,5 C 0,0 km/h (0 Bft)
07.09.2016 21:14 13,8 C 13,8 C 92 % 1016,3 hPa 0,0 mm 0,0 km/h (0 Bft) O-SO 121 0 min 0,000 mm 0,0 UV-I 0 W/m 12,5 C 0,0 km/h (0 Bft)
07.09.2016 21:15 13,8 C 13,8 C 92 % 1016,4 hPa 0,0 mm 0,0 km/h (0 Bft) O-SO 121 0 min 0,000 mm 0,0 UV-I 0 W/m 12,5 C 0,0 km/h (0 Bft)
07.09.2016 21:16 13,8 C 13,8 C 92 % 1016,4 hPa 0,0 mm 0,0 km/h (0 Bft) O-SO 121 0 min 0,000 mm 0,0 UV-I 0 W/m 12,5 C 0,0 km/h (0 Bft)
07.09.2016 21:17 13,7 C 13,8 C 92 % 1016,4 hPa 0,0 mm 0,0 km/h (0 Bft) O-SO 121 0 min 0,000 mm 0,0 UV-I 0 W/m 12,4 C 0,0 km/h (0 Bft)
07.09.2016 21:18 13,7 C 13,7 C 93 % 1016,3 hPa 0,0 mm 0,1 km/h (0 Bft) O-SO 121 0 min 0,000 mm 0,0 UV-I 0 W/m 12,6 C 1,6 km/h (1 Bft)
07.09.2016 21:19 13,6 C 13,7 C 92 % 1016,3 hPa 0,0 mm 0,2 km/h (0 Bft) O-SO 121 0 min 0,000 mm 0,0 UV-I 0 W/m 12,3 C 1,6 km/h (1 Bft)
07.09.2016 21:20 13,6 C 13,6 C 93 % 1016,3 hPa 0,0 mm 0,0 km/h (0 Bft) O-SO 121 0 min 0,000 mm 0,0 UV-I 0 W/m 12,5 C 0,0 km/h (0 Bft)
07.09.2016 21:21 13,6 C 13,6 C 93 % 1016,3 hPa 0,0 mm 0,0 km/h (0 Bft) O-SO 121 0 min 0,000 mm 0,0 UV-I 0 W/m 12,5 C 0,0 km/h (0 Bft)
07.09.2016 21:22 13,6 C 13,6 C 93 % 1016,3 hPa 0,0 mm 0,0 km/h (0 Bft) O-SO 121 0 min 0,000 mm 0,0 UV-I 0 W/m 12,5 C 0,0 km/h (0 Bft)
07.09.2016 21:23 13,6 C 13,6 C 93 % 1016,3 hPa 0,0 mm 0,0 km/h (0 Bft) O-SO 121 0 min 0,000 mm 0,0 UV-I 0 W/m 12,5 C 0,0 km/h (0 Bft)
07.09.2016 21:24 13,6 C 13,6 C 94 % 1016,2 hPa 0,0 mm 0,1 km/h (0 Bft) O-SO 121 0 min 0,000 mm 0,0 UV-I 0 W/m 12,7 C 1,6 km/h (1 Bft)
07.09.2016 21:25 13,7 C 13,7 C 93 % 1016,2 hPa 0,0 mm 0,0 km/h (0 Bft) O-SO 121 0 min 0,000 mm 0,0 UV-I 0 W/m 12,6 C 0,0 km/h (0 Bft)
07.09.2016 21:26 13,7 C 13,7 C 94 % 1016,2 hPa 0,0 mm 0,0 km/h (0 Bft) O-SO 121 0 min 0,000 mm 0,0 UV-I 0 W/m 12,8 C 0,0 km/h (0 Bft)
07.09.2016 21:27 13,8 C 13,8 C 94 % 1016,2 hPa 0,0 mm 0,0 km/h (0 Bft) O-SO 121 0 min 0,000 mm 0,0 UV-I 0 W/m 12,9 C 0,0 km/h (0 Bft)
07.09.2016 21:28 13,7 C 13,8 C 93 % 1016,2 hPa 0,0 mm 0,0 km/h (0 Bft) O-SO 121 0 min 0,000 mm 0,0 UV-I 0 W/m 12,6 C 0,0 km/h (0 Bft)
07.09.2016 21:29 13,7 C 13,7 C 93 % 1016,2 hPa 0,0 mm 0,0 km/h (0 Bft) O-SO 121 0 min 0,000 mm 0,0 UV-I 0 W/m 12,6 C 0,0 km/h (0 Bft)
07.09.2016 21:30 13,7 C 13,7 C 93 % 1016,2 hPa 0,0 mm 0,0 km/h (0 Bft) O-SO 121 0 min 0,000 mm 0,0 UV-I 0 W/m 12,6 C 0,0 km/h (0 Bft)
07.09.2016 21:31 13,7 C 13,7 C 93 % 1016,2 hPa 0,0 mm 0,0 km/h (0 Bft) O-SO 121 0 min 0,000 mm 0,0 UV-I 0 W/m 12,6 C 0,0 km/h (0 Bft)
07.09.2016 21:32 13,7 C 13,7 C 93 % 1016,2 hPa 0,0 mm 0,0 km/h (0 Bft) O-SO 121 0 min 0,000 mm 0,0 UV-I 0 W/m 12,6 C 0,0 km/h (0 Bft)
07.09.2016 21:33 13,7 C 13,7 C 93 % 1016,2 hPa 0,0 mm 0,0 km/h (0 Bft) O-SO 121 0 min 0,000 mm 0,0 UV-I 0 W/m 12,6 C 0,0 km/h (0 Bft)
07.09.2016 21:34 13,7 C 13,7 C 93 % 1016,2 hPa 0,0 mm 0,1 km/h (0 Bft) O-SO 121 0 min 0,000 mm 0,0 UV-I 0 W/m 12,6 C 1,6 km/h (1 Bft)
07.09.2016 21:35 13,6 C 13,7 C 92 % 1016,2 hPa 0,0 mm 0,2 km/h (0 Bft) O-SO 121 0 min 0,000 mm 0,0 UV-I 0 W/m 12,3 C 1,6 km/h (1 Bft)
07.09.2016 21:36 13,6 C 13,7 C 93 % 1016,1 hPa 0,0 mm 0,0 km/h (0 Bft) O-SO 121 0 min 0,000 mm 0,0 UV-I 0 W/m 12,5 C 0,0 km/h (0 Bft)
07.09.2016 21:37 13,6 C 13,6 C 93 % 1016,2 hPa 0,0 mm 0,0 km/h (0 Bft) O-SO 121 0 min 0,000 mm 0,0 UV-I 0 W/m 12,5 C 0,0 km/h (0 Bft)
07.09.2016 21:38 13,6 C 13,6 C 93 % 1016,1 hPa 0,0 mm 0,0 km/h (0 Bft) O-SO 121 0 min 0,000 mm 0,0 UV-I 0 W/m 12,5 C 0,0 km/h (0 Bft)
07.09.2016 21:39 13,5 C 13,6 C 93 % 1016,1 hPa 0,0 mm 0,0 km/h (0 Bft) O-SO 121 0 min 0,000 mm 0,0 UV-I 0 W/m 12,4 C 0,0 km/h (0 Bft)
07.09.2016 21:40 13,4 C 13,5 C 93 % 1016,1 hPa 0,0 mm 0,0 km/h (0 Bft) O-SO 121 0 min 0,000 mm 0,0 UV-I 0 W/m 12,3 C 0,0 km/h (0 Bft)
07.09.2016 21:41 13,4 C 13,4 C 93 % 1016,1 hPa 0,0 mm 0,8 km/h (0 Bft) O-SO 121 0 min 0,000 mm 0,0 UV-I 0 W/m 12,3 C 3,2 km/h (1 Bft)
07.09.2016 21:42 13,3 C 13,4 C 93 % 1016,1 hPa 0,0 mm 0,0 km/h (0 Bft) O-SO 121 0 min 0,000 mm 0,0 UV-I 0 W/m 12,2 C 0,0 km/h (0 Bft)
07.09.2016 21:43 13,3 C 13,4 C 93 % 1016,1 hPa 0,0 mm 0,0 km/h (0 Bft) O-SO 121 0 min 0,000 mm 0,0 UV-I 0 W/m 12,2 C 0,0 km/h (0 Bft)
07.09.2016 21:44 13,3 C 13,3 C 93 % 1016,1 hPa 0,0 mm 0,0 km/h (0 Bft) O-SO 121 0 min 0,000 mm 0,0 UV-I 0 W/m 12,2 C 0,0 km/h (0 Bft)
07.09.2016 21:45 13,3 C 13,3 C 93 % 1016,1 hPa 0,0 mm 0,0 km/h (0 Bft) O-SO 121 0 min 0,000 mm 0,0 UV-I 0 W/m 12,2 C 0,0 km/h (0 Bft)
07.09.2016 21:46 13,3 C 13,3 C 94 % 1016,2 hPa 0,0 mm 0,5 km/h (0 Bft) O-SO 121 0 min 0,000 mm 0,0 UV-I 0 W/m 12,4 C 1,6 km/h (1 Bft)
07.09.2016 21:47 13,3 C 13,3 C 94 % 1016,1 hPa 0,0 mm 1,0 km/h (0 Bft) O-SO 121 0 min 0,000 mm 0,0 UV-I 0 W/m 12,4 C 1,6 km/h (1 Bft)
07.09.2016 21:48 13,3 C 13,3 C 94 % 1016,2 hPa 0,0 mm 0,0 km/h (0 Bft) O-SO 121 0 min 0,000 mm 0,0 UV-I 0 W/m 12,4 C 0,0 km/h (0 Bft)
07.09.2016 21:49 13,3 C 13,3 C 94 % 1016,1 hPa 0,0 mm 0,0 km/h (0 Bft) O-SO 121 0 min 0,000 mm 0,0 UV-I 0 W/m 12,4 C 0,0 km/h (0 Bft)
07.09.2016 21:50 13,3 C 13,3 C 93 % 1016,1 hPa 0,0 mm 0,0 km/h (0 Bft) O-SO 121 0 min 0,000 mm 0,0 UV-I 0 W/m 12,2 C 0,0 km/h (0 Bft)
07.09.2016 21:51 13,3 C 13,3 C 94 % 1016,1 hPa 0,0 mm 0,0 km/h (0 Bft) O-SO 121 0 min 0,000 mm 0,0 UV-I 0 W/m 12,4 C 0,0 km/h (0 Bft)
07.09.2016 21:52 13,3 C 13,3 C 94 % 1016,1 hPa 0,0 mm 0,0 km/h (0 Bft) O-SO 121 0 min 0,000 mm 0,0 UV-I 0 W/m 12,4 C 0,0 km/h (0 Bft)
07.09.2016 21:53 13,3 C 13,3 C 94 % 1016,1 hPa 0,0 mm 0,0 km/h (0 Bft) O-SO 121 0 min 0,000 mm 0,0 UV-I 0 W/m 12,4 C 0,0 km/h (0 Bft)
07.09.2016 21:54 13,3 C 13,3 C 94 % 1016,1 hPa 0,0 mm 0,0 km/h (0 Bft) O-SO 121 0 min 0,000 mm 0,0 UV-I 0 W/m 12,4 C 0,0 km/h (0 Bft)
07.09.2016 21:55 13,2 C 13,3 C 93 % 1016,1 hPa 0,0 mm 0,0 km/h (0 Bft) O-SO 121 0 min 0,000 mm 0,0 UV-I 0 W/m 12,1 C 0,0 km/h (0 Bft)
07.09.2016 21:56 13,2 C 13,2 C 93 % 1016,1 hPa 0,0 mm 0,1 km/h (0 Bft) O-SO 121 0 min 0,000 mm 0,0 UV-I 0 W/m 12,1 C 1,6 km/h (1 Bft)
07.09.2016 21:57 13,2 C 13,2 C 93 % 1016,1 hPa 0,0 mm 0,5 km/h (0 Bft) O-SO 121 0 min 0,000 mm 0,0 UV-I 0 W/m 12,1 C 1,6 km/h (1 Bft)
07.09.2016 21:58 13,2 C 13,2 C 93 % 1016,1 hPa 0,0 mm 0,0 km/h (0 Bft) O-SO 121 0 min 0,000 mm 0,0 UV-I 0 W/m 12,1 C 0,0 km/h (0 Bft)
07.09.2016 21:59 13,1 C 13,2 C 93 % 1016,1 hPa 0,0 mm 0,0 km/h (0 Bft) O-SO 121 0 min 0,000 mm 0,0 UV-I 0 W/m 12,0 C 0,0 km/h (0 Bft)
07.09.2016 22:00 13,1 C 13,2 C 93 % 1016,1 hPa 0,0 mm 0,0 km/h (0 Bft) O-SO 121 0 min 0,000 mm 0,0 UV-I 0 W/m 12,0 C 0,0 km/h (0 Bft)
07.09.2016 22:01 13,1 C 13,1 C 94 % 1016,1 hPa 0,0 mm 0,0 km/h (0 Bft) O-SO 121 0 min 0,000 mm 0,0 UV-I 0 W/m 12,2 C 0,0 km/h (0 Bft)
07.09.2016 22:02 13,1 C 13,1 C 94 % 1016,1 hPa 0,0 mm 0,0 km/h (0 Bft) O-SO 121 0 min 0,000 mm 0,0 UV-I 0 W/m 12,2 C 0,0 km/h (0 Bft)
07.09.2016 22:03 13,1 C 13,1 C 94 % 1016,0 hPa 0,0 mm 0,0 km/h (0 Bft) O-SO 121 0 min 0,000 mm 0,0 UV-I 0 W/m 12,2 C 0,0 km/h (0 Bft)
07.09.2016 22:04 13,0 C 13,1 C 94 % 1016,0 hPa 0,0 mm 0,0 km/h (0 Bft) O-SO 121 0 min 0,000 mm 0,0 UV-I 0 W/m 12,1 C 0,0 km/h (0 Bft)
07.09.2016 22:05 13,0 C 13,0 C 94 % 1016,0 hPa 0,0 mm 0,0 km/h (0 Bft) O-SO 121 0 min 0,000 mm 0,0 UV-I 0 W/m 12,1 C 0,0 km/h (0 Bft)
07.09.2016 22:06 12,9 C 13,0 C 94 % 1016,0 hPa 0,0 mm 0,0 km/h (0 Bft) O-SO 121 0 min 0,000 mm 0,0 UV-I 0 W/m 12,0 C 0,0 km/h (0 Bft)
07.09.2016 22:07 12,9 C 13,0 C 94 % 1016,0 hPa 0,0 mm 0,0 km/h (0 Bft) O-SO 121 0 min 0,000 mm 0,0 UV-I 0 W/m 12,0 C 0,0 km/h (0 Bft)
07.09.2016 22:08 12,9 C 12,9 C 93 % 1016,0 hPa 0,0 mm 0,0 km/h (0 Bft) O-SO 121 0 min 0,000 mm 0,0 UV-I 0 W/m 11,8 C 0,0 km/h (0 Bft)
07.09.2016 22:09 12,9 C 12,9 C 94 % 1016,0 hPa 0,0 mm 0,0 km/h (0 Bft) O-SO 121 0 min 0,000 mm 0,0 UV-I 0 W/m 12,0 C 0,0 km/h (0 Bft)
07.09.2016 22:10 12,8 C 12,9 C 94 % 1016,0 hPa 0,0 mm 0,1 km/h (0 Bft) O-SO 121 0 min 0,000 mm 0,0 UV-I 0 W/m 11,9 C 1,6 km/h (1 Bft)
07.09.2016 22:11 12,9 C 12,9 C 94 % 1015,9 hPa 0,0 mm 0,0 km/h (0 Bft) O-SO 121 0 min 0,000 mm 0,0 UV-I 0 W/m 12,0 C 0,0 km/h (0 Bft)
07.09.2016 22:12 12,8 C 12,9 C 94 % 1016,0 hPa 0,0 mm 0,0 km/h (0 Bft) O-SO 121 0 min 0,000 mm 0,0 UV-I 0 W/m 11,9 C 0,0 km/h (0 Bft)
07.09.2016 22:13 12,9 C 12,9 C 94 % 1015,9 hPa 0,0 mm 0,0 km/h (0 Bft) O-SO 121 0 min 0,000 mm 0,0 UV-I 0 W/m 12,0 C 0,0 km/h (0 Bft)
07.09.2016 22:14 12,9 C 12,9 C 94 % 1015,9 hPa 0,0 mm 0,5 km/h (0 Bft) O-SO 121 0 min 0,000 mm 0,0 UV-I 0 W/m 12,0 C 1,6 km/h (1 Bft)
07.09.2016 22:15 12,9 C 12,9 C 94 % 1015,9 hPa 0,0 mm 1,2 km/h (1 Bft) O-SO 121 0 min 0,000 mm 0,0 UV-I 0 W/m 12,0 C 1,6 km/h (1 Bft)
07.09.2016 22:16 12,9 C 12,9 C 94 % 1015,9 hPa 0,0 mm 1,3 km/h (1 Bft) O-SO 121 0 min 0,000 mm 0,0 UV-I 0 W/m 12,0 C 3,2 km/h (1 Bft)
07.09.2016 22:17 12,9 C 12,9 C 94 % 1015,9 hPa 0,0 mm 1,3 km/h (1 Bft) O-SO 123 0 min 0,000 mm 0,0 UV-I 0 W/m 12,0 C 3,2 km/h (1 Bft)
07.09.2016 22:18 12,9 C 12,9 C 94 % 1015,9 hPa 0,0 mm 1,2 km/h (1 Bft) O-SO 123 0 min 0,000 mm 0,0 UV-I 0 W/m 12,0 C 1,6 km/h (1 Bft)
07.09.2016 22:19 13,1 C 13,1 C 94 % 1015,9 hPa 0,0 mm 0,1 km/h (0 Bft) O-SO 123 0 min 0,000 mm 0,0 UV-I 0 W/m 12,2 C 1,6 km/h (1 Bft)
07.09.2016 22:20 13,1 C 13,1 C 94 % 1015,9 hPa 0,0 mm 0,8 km/h (0 Bft) O-SO 123 0 min 0,000 mm 0,0 UV-I 0 W/m 12,2 C 3,2 km/h (1 Bft)
07.09.2016 22:21 13,1 C 13,1 C 93 % 1015,9 hPa 0,0 mm 0,3 km/h (0 Bft) O-SO 123 0 min 0,000 mm 0,0 UV-I 0 W/m 12,0 C 1,6 km/h (1 Bft)
07.09.2016 22:22 13,2 C 13,2 C 93 % 1015,9 hPa 0,0 mm 0,1 km/h (0 Bft) O-SO 123 0 min 0,000 mm 0,0 UV-I 0 W/m 12,1 C 1,6 km/h (1 Bft)
07.09.2016 22:23 13,2 C 13,2 C 93 % 1015,9 hPa 0,0 mm 0,1 km/h (0 Bft) O-SO 123 0 min 0,000 mm 0,0 UV-I 0 W/m 12,1 C 1,6 km/h (1 Bft)
07.09.2016 22:24 13,2 C 13,2 C 92 % 1015,9 hPa 0,0 mm 0,2 km/h (0 Bft) O-SO 123 0 min 0,000 mm 0,0 UV-I 0 W/m 11,9 C 1,6 km/h (1 Bft)
07.09.2016 22:25 13,2 C 13,2 C 92 % 1015,9 hPa 0,0 mm 0,0 km/h (0 Bft) O-SO 123 0 min 0,000 mm 0,0 UV-I 0 W/m 11,9 C 0,0 km/h (0 Bft)
07.09.2016 22:26 13,1 C 13,2 C 92 % 1015,9 hPa 0,0 mm 0,0 km/h (0 Bft) O-SO 123 0 min 0,000 mm 0,0 UV-I 0 W/m 11,8 C 0,0 km/h (0 Bft)
07.09.2016 22:27 13,1 C 13,1 C 92 % 1015,8 hPa 0,0 mm 0,0 km/h (0 Bft) O-SO 123 0 min 0,000 mm 0,0 UV-I 0 W/m 11,8 C 0,0 km/h (0 Bft)
07.09.2016 22:28 13,0 C 13,1 C 92 % 1015,9 hPa 0,0 mm 0,0 km/h (0 Bft) O-SO 123 0 min 0,000 mm 0,0 UV-I 0 W/m 11,7 C 0,0 km/h (0 Bft)
07.09.2016 22:29 12,9 C 13,0 C 93 % 1015,9 hPa 0,0 mm 0,0 km/h (0 Bft) O-SO 123 0 min 0,000 mm 0,0 UV-I 0 W/m 11,8 C 0,0 km/h (0 Bft)
07.09.2016 22:30 12,9 C 12,9 C 93 % 1015,8 hPa 0,0 mm 0,0 km/h (0 Bft) O-SO 123 0 min 0,000 mm 0,0 UV-I 0 W/m 11,8 C 0,0 km/h (0 Bft)
07.09.2016 22:31 12,9 C 12,9 C 93 % 1015,8 hPa 0,0 mm 0,0 km/h (0 Bft) O-SO 123 0 min 0,000 mm 0,0 UV-I 0 W/m 11,8 C 0,0 km/h (0 Bft)
07.09.2016 22:32 12,9 C 12,9 C 93 % 1015,8 hPa 0,0 mm 0,0 km/h (0 Bft) O-SO 123 0 min 0,000 mm 0,0 UV-I 0 W/m 11,8 C 0,0 km/h (0 Bft)
07.09.2016 22:33 12,8 C 12,9 C 93 % 1015,8 hPa 0,0 mm 0,0 km/h (0 Bft) O-SO 123 0 min 0,000 mm 0,0 UV-I 0 W/m 11,7 C 0,0 km/h (0 Bft)
07.09.2016 22:34 12,8 C 12,8 C 93 % 1015,8 hPa 0,0 mm 0,0 km/h (0 Bft) O-SO 123 0 min 0,000 mm 0,0 UV-I 0 W/m 11,7 C 0,0 km/h (0 Bft)
07.09.2016 22:35 12,8 C 12,8 C 93 % 1015,8 hPa 0,0 mm 0,0 km/h (0 Bft) O-SO 123 0 min 0,000 mm 0,0 UV-I 0 W/m 11,7 C 0,0 km/h (0 Bft)
07.09.2016 22:36 12,9 C 12,9 C 94 % 1015,8 hPa 0,0 mm 0,0 km/h (0 Bft) O-SO 123 0 min 0,000 mm 0,0 UV-I 0 W/m 12,0 C 0,0 km/h (0 Bft)
07.09.2016 22:37 12,9 C 12,9 C 93 % 1015,8 hPa 0,0 mm 0,0 km/h (0 Bft) O-SO 123 0 min 0,000 mm 0,0 UV-I 0 W/m 11,8 C 0,0 km/h (0 Bft)
07.09.2016 22:38 12,9 C 12,9 C 94 % 1015,8 hPa 0,0 mm 0,0 km/h (0 Bft) O-SO 123 0 min 0,000 mm 0,0 UV-I 0 W/m 12,0 C 0,0 km/h (0 Bft)
07.09.2016 22:39 12,9 C 12,9 C 94 % 1015,8 hPa 0,0 mm 0,0 km/h (0 Bft) O-SO 123 0 min 0,000 mm 0,0 UV-I 0 W/m 12,0 C 0,0 km/h (0 Bft)
07.09.2016 22:40 12,9 C 12,9 C 93 % 1015,8 hPa 0,0 mm 0,0 km/h (0 Bft) O-SO 123 0 min 0,000 mm 0,0 UV-I 0 W/m 11,8 C 0,0 km/h (0 Bft)
07.09.2016 22:41 12,9 C 12,9 C 94 % 1015,9 hPa 0,0 mm 0,0 km/h (0 Bft) O-SO 123 0 min 0,000 mm 0,0 UV-I 0 W/m 12,0 C 0,0 km/h (0 Bft)
07.09.2016 22:42 12,9 C 12,9 C 94 % 1015,8 hPa 0,0 mm 0,0 km/h (0 Bft) O-SO 123 0 min 0,000 mm 0,0 UV-I 0 W/m 12,0 C 0,0 km/h (0 Bft)
07.09.2016 22:43 12,9 C 12,9 C 93 % 1015,8 hPa 0,0 mm 0,0 km/h (0 Bft) O-SO 123 0 min 0,000 mm 0,0 UV-I 0 W/m 11,8 C 0,0 km/h (0 Bft)
07.09.2016 22:44 12,9 C 12,9 C 93 % 1015,7 hPa 0,0 mm 0,0 km/h (0 Bft) O-SO 123 0 min 0,000 mm 0,0 UV-I 0 W/m 11,8 C 0,0 km/h (0 Bft)
07.09.2016 22:45 12,8 C 12,9 C 93 % 1015,7 hPa 0,0 mm 0,0 km/h (0 Bft) O-SO 123 0 min 0,000 mm 0,0 UV-I 0 W/m 11,7 C 0,0 km/h (0 Bft)
07.09.2016 22:46 12,8 C 12,8 C 93 % 1015,7 hPa 0,0 mm 0,0 km/h (0 Bft) O-SO 123 0 min 0,000 mm 0,0 UV-I 0 W/m 11,7 C 0,0 km/h (0 Bft)
07.09.2016 22:47 12,8 C 12,8 C 93 % 1015,7 hPa 0,0 mm 0,0 km/h (0 Bft) O-SO 123 0 min 0,000 mm 0,0 UV-I 0 W/m 11,7 C 0,0 km/h (0 Bft)
07.09.2016 22:48 12,8 C 12,8 C 93 % 1015,6 hPa 0,0 mm 0,0 km/h (0 Bft) O-SO 123 0 min 0,000 mm 0,0 UV-I 0 W/m 11,7 C 0,0 km/h (0 Bft)
07.09.2016 22:49 12,8 C 12,8 C 93 % 1015,7 hPa 0,0 mm 0,0 km/h (0 Bft) O-SO 123 0 min 0,000 mm 0,0 UV-I 0 W/m 11,7 C 0,0 km/h (0 Bft)
07.09.2016 22:50 12,8 C 12,8 C 94 % 1015,6 hPa 0,0 mm 0,0 km/h (0 Bft) O-SO 123 0 min 0,000 mm 0,0 UV-I 0 W/m 11,9 C 0,0 km/h (0 Bft)
07.09.2016 22:51 12,8 C 12,8 C 94 % 1015,6 hPa 0,0 mm 0,0 km/h (0 Bft) O-SO 123 0 min 0,000 mm 0,0 UV-I 0 W/m 11,9 C 0,0 km/h (0 Bft)
07.09.2016 22:52 12,8 C 12,8 C 93 % 1015,6 hPa 0,0 mm 0,0 km/h (0 Bft) O-SO 123 0 min 0,000 mm 0,0 UV-I 0 W/m 11,7 C 0,0 km/h (0 Bft)
07.09.2016 22:53 12,8 C 12,8 C 93 % 1015,6 hPa 0,0 mm 0,0 km/h (0 Bft) O-SO 123 0 min 0,000 mm 0,0 UV-I 0 W/m 11,7 C 0,0 km/h (0 Bft)
07.09.2016 22:54 12,7 C 12,8 C 93 % 1015,6 hPa 0,0 mm 0,0 km/h (0 Bft) O-SO 123 0 min 0,000 mm 0,0 UV-I 0 W/m 11,6 C 0,0 km/h (0 Bft)
07.09.2016 22:55 12,7 C 12,7 C 93 % 1015,6 hPa 0,0 mm 0,0 km/h (0 Bft) O-SO 123 0 min 0,000 mm 0,0 UV-I 0 W/m 11,6 C 0,0 km/h (0 Bft)
07.09.2016 22:56 12,7 C 12,7 C 94 % 1015,6 hPa 0,0 mm 0,0 km/h (0 Bft) O-SO 123 0 min 0,000 mm 0,0 UV-I 0 W/m 11,8 C 0,0 km/h (0 Bft)
07.09.2016 22:57 12,6 C 12,7 C 93 % 1015,5 hPa 0,0 mm 0,0 km/h (0 Bft) O-SO 123 0 min 0,000 mm 0,0 UV-I 0 W/m 11,5 C 0,0 km/h (0 Bft)
07.09.2016 22:58 12,6 C 12,6 C 93 % 1015,5 hPa 0,0 mm 0,0 km/h (0 Bft) O-SO 123 0 min 0,000 mm 0,0 UV-I 0 W/m 11,5 C 0,0 km/h (0 Bft)
07.09.2016 22:59 12,6 C 12,6 C 93 % 1015,5 hPa 0,0 mm 0,0 km/h (0 Bft) O-SO 123 0 min 0,000 mm 0,0 UV-I 0 W/m 11,5 C 0,0 km/h (0 Bft)
07.09.2016 23:00 12,6 C 12,6 C 93 % 1015,5 hPa 0,0 mm 0,0 km/h (0 Bft) O-SO 123 0 min 0,000 mm 0,0 UV-I 0 W/m 11,5 C 0,0 km/h (0 Bft)
07.09.2016 23:01 12,5 C 12,6 C 93 % 1015,5 hPa 0,0 mm 0,0 km/h (0 Bft) O-SO 123 0 min 0,000 mm 0,0 UV-I 0 W/m 11,4 C 0,0 km/h (0 Bft)
07.09.2016 23:02 12,4 C 12,5 C 93 % 1015,5 hPa 0,0 mm 0,0 km/h (0 Bft) O-SO 123 0 min 0,000 mm 0,0 UV-I 0 W/m 11,3 C 0,0 km/h (0 Bft)
07.09.2016 23:03 12,4 C 12,4 C 93 % 1015,6 hPa 0,0 mm 0,0 km/h (0 Bft) O-SO 123 0 min 0,000 mm 0,0 UV-I 0 W/m 11,3 C 0,0 km/h (0 Bft)
07.09.2016 23:04 12,3 C 12,4 C 93 % 1015,5 hPa 0,0 mm 0,0 km/h (0 Bft) O-SO 123 0 min 0,000 mm 0,0 UV-I 0 W/m 11,2 C 0,0 km/h (0 Bft)
07.09.2016 23:05 12,3 C 12,3 C 94 % 1015,5 hPa 0,0 mm 0,0 km/h (0 Bft) O-SO 123 0 min 0,000 mm 0,0 UV-I 0 W/m 11,4 C 0,0 km/h (0 Bft)
07.09.2016 23:06 12,3 C 12,3 C 94 % 1015,5 hPa 0,0 mm 0,0 km/h (0 Bft) O-SO 123 0 min 0,000 mm 0,0 UV-I 0 W/m 11,4 C 0,0 km/h (0 Bft)
07.09.2016 23:07 12,3 C 12,3 C 94 % 1015,6 hPa 0,0 mm 0,0 km/h (0 Bft) O-SO 123 0 min 0,000 mm 0,0 UV-I 0 W/m 11,4 C 0,0 km/h (0 Bft)
07.09.2016 23:08 12,3 C 12,3 C 94 % 1015,6 hPa 0,0 mm 0,0 km/h (0 Bft) O-SO 123 0 min 0,000 mm 0,0 UV-I 0 W/m 11,4 C 0,0 km/h (0 Bft)
07.09.2016 23:09 12,3 C 12,3 C 94 % 1015,6 hPa 0,0 mm 0,0 km/h (0 Bft) O-SO 123 0 min 0,000 mm 0,0 UV-I 0 W/m 11,4 C 0,0 km/h (0 Bft)
07.09.2016 23:10 12,3 C 12,4 C 94 % 1015,6 hPa 0,0 mm 0,0 km/h (0 Bft) O-SO 123 0 min 0,000 mm 0,0 UV-I 0 W/m 11,4 C 0,0 km/h (0 Bft)
07.09.2016 23:11 12,4 C 12,4 C 94 % 1015,5 hPa 0,0 mm 0,0 km/h (0 Bft) O-SO 123 0 min 0,000 mm 0,0 UV-I 0 W/m 11,5 C 0,0 km/h (0 Bft)
07.09.2016 23:12 12,3 C 12,4 C 94 % 1015,6 hPa 0,0 mm 0,0 km/h (0 Bft) O-SO 123 0 min 0,000 mm 0,0 UV-I 0 W/m 11,4 C 0,0 km/h (0 Bft)
07.09.2016 23:13 12,4 C 12,4 C 94 % 1015,6 hPa 0,0 mm 0,0 km/h (0 Bft) O-SO 123 0 min 0,000 mm 0,0 UV-I 0 W/m 11,5 C 0,0 km/h (0 Bft)
07.09.2016 23:14 12,4 C 12,4 C 94 % 1015,6 hPa 0,0 mm 0,0 km/h (0 Bft) O-SO 123 0 min 0,000 mm 0,0 UV-I 0 W/m 11,5 C 0,0 km/h (0 Bft)
07.09.2016 23:15 12,4 C 12,4 C 94 % 1015,5 hPa 0,0 mm 0,0 km/h (0 Bft) O-SO 123 0 min 0,000 mm 0,0 UV-I 0 W/m 11,5 C 0,0 km/h (0 Bft)
07.09.2016 23:16 12,3 C 12,4 C 94 % 1015,5 hPa 0,0 mm 0,0 km/h (0 Bft) O-SO 123 0 min 0,000 mm 0,0 UV-I 0 W/m 11,4 C 0,0 km/h (0 Bft)
07.09.2016 23:17 12,3 C 12,3 C 94 % 1015,5 hPa 0,0 mm 0,0 km/h (0 Bft) O-SO 123 0 min 0,000 mm 0,0 UV-I 0 W/m 11,4 C 0,0 km/h (0 Bft)
07.09.2016 23:18 12,3 C 12,3 C 94 % 1015,5 hPa 0,0 mm 0,0 km/h (0 Bft) O-SO 123 0 min 0,000 mm 0,0 UV-I 0 W/m 11,4 C 0,0 km/h (0 Bft)
07.09.2016 23:19 12,3 C 12,3 C 94 % 1015,5 hPa 0,0 mm 0,0 km/h (0 Bft) O-SO 123 0 min 0,000 mm 0,0 UV-I 0 W/m 11,4 C 0,0 km/h (0 Bft)
07.09.2016 23:20 12,3 C 12,3 C 94 % 1015,6 hPa 0,0 mm 0,0 km/h (0 Bft) O-SO 123 0 min 0,000 mm 0,0 UV-I 0 W/m 11,4 C 0,0 km/h (0 Bft)
07.09.2016 23:21 12,4 C 12,4 C 95 % 1015,5 hPa 0,0 mm 0,0 km/h (0 Bft) O-SO 123 0 min 0,000 mm 0,0 UV-I 0 W/m 11,6 C 0,0 km/h (0 Bft)
07.09.2016 23:22 12,4 C 12,4 C 95 % 1015,5 hPa 0,0 mm 0,0 km/h (0 Bft) O-SO 123 0 min 0,000 mm 0,0 UV-I 0 W/m 11,6 C 0,0 km/h (0 Bft)
07.09.2016 23:23 12,4 C 12,4 C 95 % 1015,5 hPa 0,0 mm 0,0 km/h (0 Bft) O-SO 123 0 min 0,000 mm 0,0 UV-I 0 W/m 11,6 C 0,0 km/h (0 Bft)
07.09.2016 23:24 12,5 C 12,5 C 95 % 1015,5 hPa 0,0 mm 0,0 km/h (0 Bft) O-SO 123 0 min 0,000 mm 0,0 UV-I 0 W/m 11,7 C 0,0 km/h (0 Bft)
07.09.2016 23:25 12,5 C 12,5 C 95 % 1015,5 hPa 0,0 mm 0,0 km/h (0 Bft) O-SO 123 0 min 0,000 mm 0,0 UV-I 0 W/m 11,7 C 0,0 km/h (0 Bft)
07.09.2016 23:26 12,6 C 12,6 C 94 % 1015,5 hPa 0,0 mm 0,0 km/h (0 Bft) O-SO 123 0 min 0,000 mm 0,0 UV-I 0 W/m 11,7 C 0,0 km/h (0 Bft)
07.09.2016 23:27 12,6 C 12,6 C 94 % 1015,5 hPa 0,0 mm 0,0 km/h (0 Bft) O-SO 123 0 min 0,000 mm 0,0 UV-I 0 W/m 11,7 C 0,0 km/h (0 Bft)
07.09.2016 23:28 12,4 C 12,6 C 93 % 1015,5 hPa 0,0 mm 0,0 km/h (0 Bft) O-SO 123 0 min 0,000 mm 0,0 UV-I 0 W/m 11,3 C 0,0 km/h (0 Bft)
07.09.2016 23:29 12,4 C 12,4 C 93 % 1015,5 hPa 0,0 mm 0,0 km/h (0 Bft) O-SO 123 0 min 0,000 mm 0,0 UV-I 0 W/m 11,3 C 0,0 km/h (0 Bft)
07.09.2016 23:30 12,4 C 12,4 C 93 % 1015,4 hPa 0,0 mm 0,0 km/h (0 Bft) O-SO 123 0 min 0,000 mm 0,0 UV-I 0 W/m 11,3 C 0,0 km/h (0 Bft)
07.09.2016 23:31 12,3 C 12,4 C 93 % 1015,4 hPa 0,0 mm 0,0 km/h (0 Bft) O-SO 123 0 min 0,000 mm 0,0 UV-I 0 W/m 11,2 C 0,0 km/h (0 Bft)
07.09.2016 23:32 12,3 C 12,4 C 93 % 1015,4 hPa 0,0 mm 0,0 km/h (0 Bft) O-SO 123 0 min 0,000 mm 0,0 UV-I 0 W/m 11,2 C 0,0 km/h (0 Bft)
07.09.2016 23:33 12,3 C 12,3 C 94 % 1015,4 hPa 0,0 mm 0,0 km/h (0 Bft) O-SO 123 0 min 0,000 mm 0,0 UV-I 0 W/m 11,4 C 0,0 km/h (0 Bft)
07.09.2016 23:34 12,2 C 12,3 C 94 % 1015,4 hPa 0,0 mm 0,0 km/h (0 Bft) O-SO 123 0 min 0,000 mm 0,0 UV-I 0 W/m 11,3 C 0,0 km/h (0 Bft)
07.09.2016 23:35 12,2 C 12,3 C 94 % 1015,4 hPa 0,0 mm 0,0 km/h (0 Bft) O-SO 123 0 min 0,000 mm 0,0 UV-I 0 W/m 11,3 C 0,0 km/h (0 Bft)
07.09.2016 23:36 12,2 C 12,2 C 94 % 1015,4 hPa 0,0 mm 0,0 km/h (0 Bft) O-SO 123 0 min 0,000 mm 0,0 UV-I 0 W/m 11,3 C 0,0 km/h (0 Bft)
07.09.2016 23:37 12,2 C 12,2 C 94 % 1015,3 hPa 0,0 mm 0,0 km/h (0 Bft) O-SO 123 0 min 0,000 mm 0,0 UV-I 0 W/m 11,3 C 0,0 km/h (0 Bft)
07.09.2016 23:38 12,2 C 12,2 C 94 % 1015,3 hPa 0,0 mm 0,0 km/h (0 Bft) O-SO 123 0 min 0,000 mm 0,0 UV-I 0 W/m 11,3 C 0,0 km/h (0 Bft)
07.09.2016 23:39 12,2 C 12,2 C 94 % 1015,3 hPa 0,0 mm 0,0 km/h (0 Bft) O-SO 123 0 min 0,000 mm 0,0 UV-I 0 W/m 11,3 C 0,0 km/h (0 Bft)
07.09.2016 23:40 12,2 C 12,2 C 94 % 1015,3 hPa 0,0 mm 0,0 km/h (0 Bft) O-SO 123 0 min 0,000 mm 0,0 UV-I 0 W/m 11,3 C 0,0 km/h (0 Bft)
07.09.2016 23:41 12,2 C 12,2 C 94 % 1015,3 hPa 0,0 mm 0,0 km/h (0 Bft) O-SO 123 0 min 0,000 mm 0,0 UV-I 0 W/m 11,3 C 0,0 km/h (0 Bft)
07.09.2016 23:42 12,2 C 12,2 C 94 % 1015,3 hPa 0,0 mm 0,0 km/h (0 Bft) O-SO 123 0 min 0,000 mm 0,0 UV-I 0 W/m 11,3 C 0,0 km/h (0 Bft)
07.09.2016 23:43 12,1 C 12,2 C 94 % 1015,4 hPa 0,0 mm 0,0 km/h (0 Bft) O-SO 123 0 min 0,000 mm 0,0 UV-I 0 W/m 11,2 C 0,0 km/h (0 Bft)
07.09.2016 23:44 12,1 C 12,1 C 94 % 1015,3 hPa 0,0 mm 0,0 km/h (0 Bft) O-SO 123 0 min 0,000 mm 0,0 UV-I 0 W/m 11,2 C 0,0 km/h (0 Bft)
07.09.2016 23:45 12,1 C 12,1 C 94 % 1015,4 hPa 0,0 mm 0,0 km/h (0 Bft) O-SO 123 0 min 0,000 mm 0,0 UV-I 0 W/m 11,2 C 0,0 km/h (0 Bft)
07.09.2016 23:46 12,0 C 12,1 C 94 % 1015,3 hPa 0,0 mm 0,0 km/h (0 Bft) O-SO 123 0 min 0,000 mm 0,0 UV-I 0 W/m 11,1 C 0,0 km/h (0 Bft)
07.09.2016 23:47 11,9 C 12,0 C 94 % 1015,3 hPa 0,0 mm 0,0 km/h (0 Bft) O-SO 123 0 min 0,000 mm 0,0 UV-I 0 W/m 11,0 C 0,0 km/h (0 Bft)
07.09.2016 23:48 11,9 C 11,9 C 94 % 1015,3 hPa 0,0 mm 0,0 km/h (0 Bft) O-SO 123 0 min 0,000 mm 0,0 UV-I 0 W/m 11,0 C 0,0 km/h (0 Bft)
07.09.2016 23:49 11,9 C 11,9 C 94 % 1015,3 hPa 0,0 mm 0,0 km/h (0 Bft) O-SO 123 0 min 0,000 mm 0,0 UV-I 0 W/m 11,0 C 0,0 km/h (0 Bft)
07.09.2016 23:50 11,9 C 11,9 C 94 % 1015,3 hPa 0,0 mm 0,0 km/h (0 Bft) O-SO 123 0 min 0,000 mm 0,0 UV-I 0 W/m 11,0 C 0,0 km/h (0 Bft)
07.09.2016 23:51 11,9 C 11,9 C 94 % 1015,2 hPa 0,0 mm 0,0 km/h (0 Bft) O-SO 123 0 min 0,000 mm 0,0 UV-I 0 W/m 11,0 C 0,0 km/h (0 Bft)
07.09.2016 23:52 11,9 C 11,9 C 94 % 1015,3 hPa 0,0 mm 0,0 km/h (0 Bft) O-SO 123 0 min 0,000 mm 0,0 UV-I 0 W/m 11,0 C 0,0 km/h (0 Bft)
07.09.2016 23:53 11,9 C 11,9 C 95 % 1015,3 hPa 0,0 mm 0,0 km/h (0 Bft) O-SO 123 0 min 0,000 mm 0,0 UV-I 0 W/m 11,1 C 0,0 km/h (0 Bft)
07.09.2016 23:54 11,9 C 11,9 C 95 % 1015,3 hPa 0,0 mm 0,0 km/h (0 Bft) O-SO 123 0 min 0,000 mm 0,0 UV-I 0 W/m 11,1 C 0,0 km/h (0 Bft)
07.09.2016 23:55 11,9 C 11,9 C 94 % 1015,4 hPa 0,0 mm 0,0 km/h (0 Bft) O-SO 123 0 min 0,000 mm 0,0 UV-I 0 W/m 11,0 C 0,0 km/h (0 Bft)
07.09.2016 23:56 11,9 C 11,9 C 95 % 1015,3 hPa 0,0 mm 0,0 km/h (0 Bft) O-SO 123 0 min 0,000 mm 0,0 UV-I 0 W/m 11,1 C 0,0 km/h (0 Bft)
07.09.2016 23:57 11,9 C 11,9 C 95 % 1015,3 hPa 0,0 mm 0,0 km/h (0 Bft) O-SO 123 0 min 0,000 mm 0,0 UV-I 0 W/m 11,1 C 0,0 km/h (0 Bft)
07.09.2016 23:58 11,8 C 11,9 C 95 % 1015,3 hPa 0,0 mm 0,0 km/h (0 Bft) O-SO 123 0 min 0,000 mm 0,0 UV-I 0 W/m 11,0 C 0,0 km/h (0 Bft)
07.09.2016 23:59 11,8 C 11,9 C 95 % 1015,3 hPa 0,0 mm 0,0 km/h (0 Bft) O-SO 123 0 min 0,000 mm 0,0 UV-I 0 W/m 11,0 C 0,0 km/h (0 Bft)
_ Min-Zeit 05:49 05:49 16:15 23:51 - 23:59 - - - - - - 05:41 23:59
Minimum _ 7,7 C 7,7 C 69 % 1015,2 hPa - 0,0 km/h (0 Bft) - - - - - - 6,8 C 0,0 km/h (0 Bft)
_ Max-Zeit 16:15 16:40 09:03 00:07 23:59 17:11 - - 16:35 14:01 13:34 13:35 16:32 17:11
Maximum _ 20,5 C 20,5 C 97 % 1023,6 hPa 0,0 mm 11,4 km/h
O (2 Bft)
- - 1 min 0,431 mm 5,7 UV-I 749 W/m 16,5 C 16,1 km/h
O-NO (3 Bft)
Durchschnitt _ 13,8 C 13,8 C 87 % 1018,8 hPa #0,0 mm 2,1 km/h (1 Bft) O-NO - #6:00 h #2,515 mm 3,8 UV-I 181 W/m 11,5 C 3,6 km/h (1 Bft)